<?xml version="1.0" encoding="UTF-8"?><gpx version="1.1" creator="strava.com" xmlns="http://www.topografix.com/GPX/1/1" xmlns:xsi="http://www.w3.org/2001/XMLSchema-instance" xsi:schemaLocation="http://www.topografix.com/GPX/1/1 http://www.topografix.com/GPX/1/1/gpx.xsd"><metadata><time>2012-04-26T03:33:23Z</time></metadata><trk><trkseg><trkpt lat="32.75139796" lon="35.04817514"><ele>364.37538610182867</ele><time>2012-04-26T03:33:23Z</time></trkpt><trkpt lat="32.75142388" lon="35.04816511"><ele>364.11430993813383</ele><time>2012-04-26T03:33:40Z</time></trkpt><trkpt lat="32.75142337" lon="35.04819734"><ele>364.29563423222106</ele><time>2012-04-26T03:33:50Z</time></trkpt><trkpt lat="32.75143918" lon="35.04822774"><ele>364.3348593021012</ele><time>2012-04-26T03:33:57Z</time></trkpt><trkpt lat="32.75145793" lon="35.04820391"><ele>364.0543516611353</ele><time>2012-04-26T03:34:42Z</time></trkpt><trkpt lat="32.75144482" lon="35.04817528"><ele>364.0038728164378</ele><time>2012-04-26T03:34:54Z</time></trkpt><trkpt lat="32.75144593" lon="35.04813594"><ele>363.7812127935923</ele><time>2012-04-26T03:34:57Z</time></trkpt><trkpt lat="32.75145197" lon="35.04809176"><ele>363.4945288297732</ele><time>2012-04-26T03:35:00Z</time></trkpt><trkpt lat="32.75146828" lon="35.04802697"><ele>363.02086220592827</ele><time>2012-04-26T03:35:03Z</time></trkpt><trkpt lat="32.75146549" lon="35.04796902"><ele>362.7301009342572</ele><time>2012-04-26T03:35:06Z</time></trkpt><trkpt lat="32.75142952" lon="35.04792775"><ele>362.76822572089367</ele><time>2012-04-26T03:35:09Z</time></trkpt><trkpt lat="32.75138832" lon="35.04788638"><ele>362.6950975669108</ele><time>2012-04-26T03:35:12Z</time></trkpt><trkpt lat="32.751363" lon="35.04786473"><ele>362.6508374026101</ele><time>2012-04-26T03:35:15Z</time></trkpt><trkpt lat="32.75134329" lon="35.04783735"><ele>362.5036576313221</ele><time>2012-04-26T03:35:18Z</time></trkpt><trkpt lat="32.7513119" lon="35.047809"><ele>362.4203109274222</ele><time>2012-04-26T03:35:21Z</time></trkpt><trkpt lat="32.75128786" lon="35.04778764"><ele>362.35502298171457</ele><time>2012-04-26T03:35:24Z</time></trkpt><trkpt lat="32.75129265" lon="35.04774228"><ele>361.84167439395435</ele><time>2012-04-26T03:35:27Z</time></trkpt><trkpt lat="32.75129892" lon="35.04771059"><ele>361.4656990880988</ele><time>2012-04-26T03:35:37Z</time></trkpt><trkpt lat="32.75130474" lon="35.04767564"><ele>361.059781214257</ele><time>2012-04-26T03:36:05Z</time></trkpt><trkpt lat="32.75131347" lon="35.04770974"><ele>361.3649453049311</ele><time>2012-04-26T03:36:14Z</time></trkpt><trkpt lat="32.75133202" lon="35.04774504"><ele>361.61669985837113</ele><time>2012-04-26T03:36:17Z</time></trkpt><trkpt lat="32.75134701" lon="35.04780532"><ele>362.1456475167668</ele><time>2012-04-26T03:36:20Z</time></trkpt><trkpt lat="32.75135012" lon="35.0478696"><ele>362.79117319874837</ele><time>2012-04-26T03:36:23Z</time></trkpt><trkpt lat="32.75135273" lon="35.04792462"><ele>363.3057109070409</ele><time>2012-04-26T03:36:26Z</time></trkpt><trkpt lat="32.75136878" lon="35.04797208"><ele>363.4583078516053</ele><time>2012-04-26T03:36:29Z</time></trkpt><trkpt lat="32.75139105" lon="35.04801737"><ele>363.54775188839244</ele><time>2012-04-26T03:36:32Z</time></trkpt><trkpt lat="32.75140486" lon="35.04806703"><ele>363.7201264337863</ele><time>2012-04-26T03:36:35Z</time></trkpt><trkpt lat="32.75142118" lon="35.04811717"><ele>363.87167617675146</ele><time>2012-04-26T03:36:38Z</time></trkpt><trkpt lat="32.75143315" lon="35.04815143"><ele>363.9660689143495</ele><time>2012-04-26T03:36:41Z</time></trkpt><trkpt lat="32.75144017" lon="35.04818246"><ele>364.0799637548628</ele><time>2012-04-26T03:37:07Z</time></trkpt><trkpt lat="32.75146268" lon="35.04820764"><ele>364.0363174787018</ele><time>2012-04-26T03:37:31Z</time></trkpt><trkpt lat="32.75144195" lon="35.04823693"><ele>364.3624933044225</ele><time>2012-04-26T03:38:32Z</time></trkpt><trkpt lat="32.75147437" lon="35.04824796"><ele>364.15821901793106</ele><time>2012-04-26T03:38:42Z</time></trkpt><trkpt lat="32.75154027" lon="35.04827182"><ele>363.74407576804384</ele><time>2012-04-26T03:38:45Z</time></trkpt><trkpt lat="32.7516066" lon="35.04833009"><ele>363.4884309285468</ele><time>2012-04-26T03:38:48Z</time></trkpt><trkpt lat="32.75160512" lon="35.04840771"><ele>363.8871835906959</ele><time>2012-04-26T03:38:51Z</time></trkpt><trkpt lat="32.75157119" lon="35.04846533"><ele>364.4718834922993</ele><time>2012-04-26T03:38:54Z</time></trkpt><trkpt lat="32.75152777" lon="35.04853267"><ele>365.2032871310624</ele><time>2012-04-26T03:38:57Z</time></trkpt><trkpt lat="32.75149291" lon="35.04860692"><ele>365.90968002009663</ele><time>2012-04-26T03:39:00Z</time></trkpt><trkpt lat="32.75147355" lon="35.04866735"><ele>366.41123205288517</ele><time>2012-04-26T03:39:03Z</time></trkpt><trkpt lat="32.75146677" lon="35.04870221"><ele>366.6621031815818</ele><time>2012-04-26T03:39:06Z</time></trkpt><trkpt lat="32.75145282" lon="35.04874145"><ele>367.0066222389841</ele><time>2012-04-26T03:39:09Z</time></trkpt><trkpt lat="32.7514336" lon="35.04879925"><ele>367.28351908721254</ele><time>2012-04-26T03:39:12Z</time></trkpt><trkpt lat="32.75141189" lon="35.04886617"><ele>367.5581782629208</ele><time>2012-04-26T03:39:15Z</time></trkpt><trkpt lat="32.75138224" lon="35.04893604"><ele>367.9183172205905</ele><time>2012-04-26T03:39:18Z</time></trkpt><trkpt lat="32.75135304" lon="35.04900739"><ele>368.28149308875</ele><time>2012-04-26T03:39:21Z</time></trkpt><trkpt lat="32.75132513" lon="35.04908164"><ele>368.64084079620227</ele><time>2012-04-26T03:39:24Z</time></trkpt><trkpt lat="32.75130051" lon="35.04916035"><ele>368.977677438151</ele><time>2012-04-26T03:39:27Z</time></trkpt><trkpt lat="32.75127673" lon="35.04924251"><ele>369.31544669826866</ele><time>2012-04-26T03:39:30Z</time></trkpt><trkpt lat="32.75124934" lon="35.04932857"><ele>369.7012354908866</ele><time>2012-04-26T03:39:33Z</time></trkpt><trkpt lat="32.75122216" lon="35.04941188"><ele>370.1008420170014</ele><time>2012-04-26T03:39:36Z</time></trkpt><trkpt lat="32.7511945" lon="35.04949434"><ele>370.5307586104155</ele><time>2012-04-26T03:39:39Z</time></trkpt><trkpt lat="32.75116795" lon="35.04958427"><ele>370.98718000626576</ele><time>2012-04-26T03:39:42Z</time></trkpt><trkpt lat="32.75114337" lon="35.04967667"><ele>371.54656275063087</ele><time>2012-04-26T03:39:45Z</time></trkpt><trkpt lat="32.75112015" lon="35.04976603"><ele>372.0991560597606</ele><time>2012-04-26T03:39:48Z</time></trkpt><trkpt lat="32.75109007" lon="35.04985376"><ele>372.7550211341895</ele><time>2012-04-26T03:39:51Z</time></trkpt><trkpt lat="32.75105958" lon="35.04994113"><ele>373.4380806893996</ele><time>2012-04-26T03:39:54Z</time></trkpt><trkpt lat="32.75103172" lon="35.05003035"><ele>374.11372312652225</ele><time>2012-04-26T03:39:57Z</time></trkpt><trkpt lat="32.75100286" lon="35.05011581"><ele>374.8121199434564</ele><time>2012-04-26T03:40:00Z</time></trkpt><trkpt lat="32.75097216" lon="35.0502002"><ele>375.554965812864</ele><time>2012-04-26T03:40:03Z</time></trkpt><trkpt lat="32.75094561" lon="35.0502809"><ele>376.2441156114292</ele><time>2012-04-26T03:40:06Z</time></trkpt><trkpt lat="32.75092564" lon="35.05036645"><ele>376.8691306382084</ele><time>2012-04-26T03:40:09Z</time></trkpt><trkpt lat="32.75090019" lon="35.0504484"><ele>377.4988805878525</ele><time>2012-04-26T03:40:12Z</time></trkpt><trkpt lat="32.75087211" lon="35.05052376"><ele>378.0579523971189</ele><time>2012-04-26T03:40:15Z</time></trkpt><trkpt lat="32.75084488" lon="35.05059467"><ele>378.625479513931</ele><time>2012-04-26T03:40:18Z</time></trkpt><trkpt lat="32.75081554" lon="35.05067671"><ele>379.2789686706365</ele><time>2012-04-26T03:40:21Z</time></trkpt><trkpt lat="32.75078416" lon="35.05076192"><ele>380.01079625119917</ele><time>2012-04-26T03:40:24Z</time></trkpt><trkpt lat="32.75075647" lon="35.05085198"><ele>380.72354136276505</ele><time>2012-04-26T03:40:27Z</time></trkpt><trkpt lat="32.75072214" lon="35.05094542"><ele>381.6096876876873</ele><time>2012-04-26T03:40:30Z</time></trkpt><trkpt lat="32.75069079" lon="35.05103319"><ele>382.46616329433004</ele><time>2012-04-26T03:40:33Z</time></trkpt><trkpt lat="32.75065935" lon="35.05112695"><ele>383.38240772505446</ele><time>2012-04-26T03:40:36Z</time></trkpt><trkpt lat="32.75062743" lon="35.05122548"><ele>384.3670250009291</ele><time>2012-04-26T03:40:39Z</time></trkpt><trkpt lat="32.75059652" lon="35.05132305"><ele>385.10823233972764</ele><time>2012-04-26T03:40:42Z</time></trkpt><trkpt lat="32.75057105" lon="35.05142325"><ele>385.6806422290141</ele><time>2012-04-26T03:40:45Z</time></trkpt><trkpt lat="32.75054336" lon="35.05152252"><ele>386.34185743507436</ele><time>2012-04-26T03:40:48Z</time></trkpt><trkpt lat="32.75051052" lon="35.05161687"><ele>387.1651017976962</ele><time>2012-04-26T03:40:51Z</time></trkpt><trkpt lat="32.75047265" lon="35.05171323"><ele>388.15991725056756</ele><time>2012-04-26T03:40:54Z</time></trkpt><trkpt lat="32.75044104" lon="35.05180505"><ele>389.04219138457904</ele><time>2012-04-26T03:40:57Z</time></trkpt><trkpt lat="32.75041374" lon="35.05189179"><ele>389.86933311616326</ele><time>2012-04-26T03:41:00Z</time></trkpt><trkpt lat="32.75038579" lon="35.05199045"><ele>390.98759420765964</ele><time>2012-04-26T03:41:03Z</time></trkpt><trkpt lat="32.75036048" lon="35.05209633"><ele>392.0111124540283</ele><time>2012-04-26T03:41:06Z</time></trkpt><trkpt lat="32.75032649" lon="35.05220334"><ele>392.6189486049806</ele><time>2012-04-26T03:41:09Z</time></trkpt><trkpt lat="32.75028815" lon="35.05230551"><ele>393.40664309590613</ele><time>2012-04-26T03:41:12Z</time></trkpt><trkpt lat="32.75025865" lon="35.05240334"><ele>393.88536440171384</ele><time>2012-04-26T03:41:15Z</time></trkpt><trkpt lat="32.75023204" lon="35.05250501"><ele>394.22594402801957</ele><time>2012-04-26T03:41:18Z</time></trkpt><trkpt lat="32.75019792" lon="35.0526009"><ele>394.8689449830189</ele><time>2012-04-26T03:41:21Z</time></trkpt><trkpt lat="32.75016148" lon="35.05269179"><ele>395.61861515740213</ele><time>2012-04-26T03:41:24Z</time></trkpt><trkpt lat="32.75012262" lon="35.05278368"><ele>396.439910170589</ele><time>2012-04-26T03:41:27Z</time></trkpt><trkpt lat="32.75008525" lon="35.05287517"><ele>397.19978386790945</ele><time>2012-04-26T03:41:30Z</time></trkpt><trkpt lat="32.75004518" lon="35.0529696"><ele>397.51867800167327</ele><time>2012-04-26T03:41:33Z</time></trkpt><trkpt lat="32.75000138" lon="35.05305992"><ele>397.54651072864175</ele><time>2012-04-26T03:41:36Z</time></trkpt><trkpt lat="32.74995274" lon="35.05314907"><ele>397.6388233044016</ele><time>2012-04-26T03:41:39Z</time></trkpt><trkpt lat="32.74990129" lon="35.0532352"><ele>397.749429073711</ele><time>2012-04-26T03:41:42Z</time></trkpt><trkpt lat="32.74984436" lon="35.05332218"><ele>397.8815730276307</ele><time>2012-04-26T03:41:45Z</time></trkpt><trkpt lat="32.74978642" lon="35.0534149"><ele>397.7862174738288</ele><time>2012-04-26T03:41:48Z</time></trkpt><trkpt lat="32.74972581" lon="35.05350618"><ele>397.6394192821239</ele><time>2012-04-26T03:41:51Z</time></trkpt><trkpt lat="32.74965687" lon="35.0535925"><ele>397.65933883854376</ele><time>2012-04-26T03:41:54Z</time></trkpt><trkpt lat="32.74958403" lon="35.053679"><ele>397.60136772654215</ele><time>2012-04-26T03:41:57Z</time></trkpt><trkpt lat="32.74951474" lon="35.05377266"><ele>397.811569770683</ele><time>2012-04-26T03:42:00Z</time></trkpt><trkpt lat="32.74944407" lon="35.05386248"><ele>398.70274734936294</ele><time>2012-04-26T03:42:03Z</time></trkpt><trkpt lat="32.74937284" lon="35.05395623"><ele>399.53516954091856</ele><time>2012-04-26T03:42:06Z</time></trkpt><trkpt lat="32.74930697" lon="35.05405117"><ele>400.16583342171697</ele><time>2012-04-26T03:42:09Z</time></trkpt><trkpt lat="32.74923685" lon="35.05414916"><ele>400.86322070479065</ele><time>2012-04-26T03:42:12Z</time></trkpt><trkpt lat="32.74916833" lon="35.05424778"><ele>401.4825962812479</ele><time>2012-04-26T03:42:15Z</time></trkpt><trkpt lat="32.74910777" lon="35.05434039"><ele>401.93165431422386</ele><time>2012-04-26T03:42:18Z</time></trkpt><trkpt lat="32.74904273" lon="35.05443646"><ele>402.4474123062555</ele><time>2012-04-26T03:42:21Z</time></trkpt><trkpt lat="32.74896927" lon="35.05452362"><ele>403.3345735852399</ele><time>2012-04-26T03:42:24Z</time></trkpt><trkpt lat="32.74889205" lon="35.05459849"><ele>404.34807893685695</ele><time>2012-04-26T03:42:27Z</time></trkpt><trkpt lat="32.74881428" lon="35.05466908"><ele>404.7764248713687</ele><time>2012-04-26T03:42:30Z</time></trkpt><trkpt lat="32.74874352" lon="35.05474252"><ele>404.72640779085623</ele><time>2012-04-26T03:42:33Z</time></trkpt><trkpt lat="32.74866506" lon="35.05481436"><ele>404.16973888868364</ele><time>2012-04-26T03:42:36Z</time></trkpt><trkpt lat="32.74857985" lon="35.05488251"><ele>403.78969478820454</ele><time>2012-04-26T03:42:39Z</time></trkpt><trkpt lat="32.74850172" lon="35.05494964"><ele>403.26402260377444</ele><time>2012-04-26T03:42:42Z</time></trkpt><trkpt lat="32.74842403" lon="35.05501551"><ele>402.72196096556763</ele><time>2012-04-26T03:42:45Z</time></trkpt><trkpt lat="32.7483521" lon="35.05507319"><ele>402.27760765828674</ele><time>2012-04-26T03:42:48Z</time></trkpt><trkpt lat="32.74827936" lon="35.05512631"><ele>401.9461709528121</ele><time>2012-04-26T03:42:51Z</time></trkpt><trkpt lat="32.74820279" lon="35.05519287"><ele>401.24230750217737</ele><time>2012-04-26T03:42:54Z</time></trkpt><trkpt lat="32.74813059" lon="35.05524879"><ele>400.74540497852655</ele><time>2012-04-26T03:42:57Z</time></trkpt><trkpt lat="32.74806158" lon="35.05531377"><ele>399.88531205122683</ele><time>2012-04-26T03:43:00Z</time></trkpt><trkpt lat="32.74798937" lon="35.05537927"><ele>399.02085851330787</ele><time>2012-04-26T03:43:03Z</time></trkpt><trkpt lat="32.74791035" lon="35.05545317"><ele>398.2721679988591</ele><time>2012-04-26T03:43:06Z</time></trkpt><trkpt lat="32.74782196" lon="35.05552157"><ele>397.643271998734</ele><time>2012-04-26T03:43:09Z</time></trkpt><trkpt lat="32.74773668" lon="35.05558934"><ele>396.9981279988675</ele><time>2012-04-26T03:43:12Z</time></trkpt><trkpt lat="32.74763911" lon="35.05567184"><ele>396.15279999877475</ele><time>2012-04-26T03:43:15Z</time></trkpt><trkpt lat="32.74752408" lon="35.05574093"><ele>395.76474399888036</ele><time>2012-04-26T03:43:18Z</time></trkpt><trkpt lat="32.74739416" lon="35.05578961"><ele>395.9604879988246</ele><time>2012-04-26T03:43:21Z</time></trkpt><trkpt lat="32.74727019" lon="35.05583929"><ele>396.07751199871865</ele><time>2012-04-26T03:43:24Z</time></trkpt><trkpt lat="32.74716053" lon="35.055887"><ele>396.0997119987819</ele><time>2012-04-26T03:43:27Z</time></trkpt><trkpt lat="32.74705587" lon="35.05593355"><ele>395.9671439988978</ele><time>2012-04-26T03:43:30Z</time></trkpt><trkpt lat="32.74696126" lon="35.05598213"><ele>395.3719439989345</ele><time>2012-04-26T03:43:33Z</time></trkpt><trkpt lat="32.74686615" lon="35.05602274"><ele>394.95129599878203</ele><time>2012-04-26T03:43:36Z</time></trkpt><trkpt lat="32.74677049" lon="35.05605578"><ele>394.69679999881976</ele><time>2012-04-26T03:43:39Z</time></trkpt><trkpt lat="32.74666939" lon="35.05607808"><ele>394.70039999887894</ele><time>2012-04-26T03:43:42Z</time></trkpt><trkpt lat="32.74657087" lon="35.05609175"><ele>394.8780239988587</ele><time>2012-04-26T03:43:45Z</time></trkpt><trkpt lat="32.74648545" lon="35.05609623"><ele>395.19127199882195</ele><time>2012-04-26T03:43:48Z</time></trkpt><trkpt lat="32.74639361" lon="35.05609686"><ele>395.6184959989387</ele><time>2012-04-26T03:43:51Z</time></trkpt><trkpt lat="32.74629512" lon="35.05608172"><ele>396.4182719988266</ele><time>2012-04-26T03:43:54Z</time></trkpt><trkpt lat="32.74619645" lon="35.05606481"><ele>397.6784032561182</ele><time>2012-04-26T03:43:57Z</time></trkpt><trkpt lat="32.7461114" lon="35.05605747"><ele>398.9113161837469</ele><time>2012-04-26T03:44:00Z</time></trkpt><trkpt lat="32.74602638" lon="35.05604895"><ele>400.16498265185436</ele><time>2012-04-26T03:44:03Z</time></trkpt><trkpt lat="32.74593491" lon="35.05604362"><ele>401.42971456906304</ele><time>2012-04-26T03:44:06Z</time></trkpt><trkpt lat="32.74583917" lon="35.05604353"><ele>402.6384146768679</ele><time>2012-04-26T03:44:09Z</time></trkpt><trkpt lat="32.74575834" lon="35.0560689"><ele>403.14523787583715</ele><time>2012-04-26T03:44:12Z</time></trkpt><trkpt lat="32.74568179" lon="35.05611497"><ele>403.19605085734366</ele><time>2012-04-26T03:44:15Z</time></trkpt><trkpt lat="32.74562155" lon="35.05614817"><ele>403.31076221581685</ele><time>2012-04-26T03:44:18Z</time></trkpt><trkpt lat="32.74557131" lon="35.05617402"><ele>403.45136342404203</ele><time>2012-04-26T03:44:21Z</time></trkpt><trkpt lat="32.74552399" lon="35.05618754"><ele>403.80186983499306</ele><time>2012-04-26T03:44:24Z</time></trkpt><trkpt lat="32.74545653" lon="35.05619383"><ele>404.5587166742863</ele><time>2012-04-26T03:44:27Z</time></trkpt><trkpt lat="32.74538049" lon="35.056191"><ele>405.8116421250248</ele><time>2012-04-26T03:44:30Z</time></trkpt><trkpt lat="32.74531278" lon="35.05619993"><ele>406.8987168046607</ele><time>2012-04-26T03:44:33Z</time></trkpt><trkpt lat="32.74524001" lon="35.05620833"><ele>408.07528623017936</ele><time>2012-04-26T03:44:36Z</time></trkpt><trkpt lat="32.74517335" lon="35.05621013"><ele>409.27092941871695</ele><time>2012-04-26T03:44:39Z</time></trkpt><trkpt lat="32.74512754" lon="35.05621886"><ele>409.91885211960573</ele><time>2012-04-26T03:44:42Z</time></trkpt><trkpt lat="32.74509441" lon="35.05623052"><ele>410.25599317445807</ele><time>2012-04-26T03:44:45Z</time></trkpt><trkpt lat="32.74502368" lon="35.05624671"><ele>411.153684321124</ele><time>2012-04-26T03:44:48Z</time></trkpt><trkpt lat="32.74496405" lon="35.05625793"><ele>411.9758119985883</ele><time>2012-04-26T03:44:51Z</time></trkpt><trkpt lat="32.74492349" lon="35.05626859"><ele>412.4756359986069</ele><time>2012-04-26T03:44:54Z</time></trkpt><trkpt lat="32.74488733" lon="35.05627555"><ele>412.9761799986084</ele><time>2012-04-26T03:44:57Z</time></trkpt><trkpt lat="32.74483168" lon="35.05626755"><ele>414.1506799986348</ele><time>2012-04-26T03:45:00Z</time></trkpt><trkpt lat="32.74477092" lon="35.05626802"><ele>415.2342079986546</ele><time>2012-04-26T03:45:03Z</time></trkpt><trkpt lat="32.7446863" lon="35.05628577"><ele>416.3739679985949</ele><time>2012-04-26T03:45:06Z</time></trkpt><trkpt lat="32.74461362" lon="35.05631147"><ele>417.12708799862133</ele><time>2012-04-26T03:45:09Z</time></trkpt><trkpt lat="32.74453877" lon="35.05633563"><ele>418.116981179879</ele><time>2012-04-26T03:45:12Z</time></trkpt><trkpt lat="32.7444741" lon="35.05636723"><ele>418.7923937078695</ele><time>2012-04-26T03:45:15Z</time></trkpt><trkpt lat="32.74441498" lon="35.05638992"><ele>419.5108982591962</ele><time>2012-04-26T03:45:18Z</time></trkpt><trkpt lat="32.74435683" lon="35.05640484"><ele>420.36520177982834</ele><time>2012-04-26T03:45:21Z</time></trkpt><trkpt lat="32.7443065" lon="35.05641096"><ele>421.257578148871</ele><time>2012-04-26T03:45:24Z</time></trkpt><trkpt lat="32.74424268" lon="35.05643502"><ele>421.95362526910975</ele><time>2012-04-26T03:45:27Z</time></trkpt><trkpt lat="32.7441704" lon="35.05645886"><ele>422.78576548070964</ele><time>2012-04-26T03:45:30Z</time></trkpt><trkpt lat="32.74412016" lon="35.05646838"><ele>423.5324686072613</ele><time>2012-04-26T03:45:33Z</time></trkpt><trkpt lat="32.7440605" lon="35.05648525"><ele>424.2451648183565</ele><time>2012-04-26T03:45:36Z</time></trkpt><trkpt lat="32.74401403" lon="35.056485"><ele>425.17024576634475</ele><time>2012-04-26T03:45:39Z</time></trkpt><trkpt lat="32.74397191" lon="35.05648237"><ele>426.07994933656335</ele><time>2012-04-26T03:45:42Z</time></trkpt><trkpt lat="32.74388857" lon="35.05649695"><ele>427.2829134033148</ele><time>2012-04-26T03:45:45Z</time></trkpt><trkpt lat="32.74381056" lon="35.05651968"><ele>428.0932603959543</ele><time>2012-04-26T03:45:48Z</time></trkpt><trkpt lat="32.74376408" lon="35.05653601"><ele>428.46444218794426</ele><time>2012-04-26T03:45:51Z</time></trkpt><trkpt lat="32.74374086" lon="35.05651033"><ele>429.6167216392147</ele><time>2012-04-26T03:45:54Z</time></trkpt><trkpt lat="32.74368573" lon="35.05650623"><ele>430.0600542196872</ele><time>2012-04-26T03:45:57Z</time></trkpt><trkpt lat="32.74362228" lon="35.05651737"><ele>430.0543581637613</ele><time>2012-04-26T03:46:00Z</time></trkpt><trkpt lat="32.74357207" lon="35.05652194"><ele>430.18704774926505</ele><time>2012-04-26T03:46:03Z</time></trkpt><trkpt lat="32.74352232" lon="35.05653763"><ele>429.95256585689765</ele><time>2012-04-26T03:46:06Z</time></trkpt><trkpt lat="32.74347675" lon="35.05654698"><ele>429.9004923082073</ele><time>2012-04-26T03:46:09Z</time></trkpt><trkpt lat="32.74341943" lon="35.05657394"><ele>429.3335618206483</ele><time>2012-04-26T03:46:12Z</time></trkpt><trkpt lat="32.74334964" lon="35.05661118"><ele>428.4917010829975</ele><time>2012-04-26T03:46:15Z</time></trkpt><trkpt lat="32.74328293" lon="35.05662977"><ele>428.2424459881742</ele><time>2012-04-26T03:46:18Z</time></trkpt><trkpt lat="32.74321934" lon="35.05663846"><ele>428.3010141341396</ele><time>2012-04-26T03:46:21Z</time></trkpt><trkpt lat="32.74316377" lon="35.05662909"><ele>428.91484713834313</ele><time>2012-04-26T03:46:24Z</time></trkpt><trkpt lat="32.74311238" lon="35.05660102"><ele>430.1303749822767</ele><time>2012-04-26T03:46:27Z</time></trkpt><trkpt lat="32.74309018" lon="35.05654268"><ele>432.1980007892487</ele><time>2012-04-26T03:46:30Z</time></trkpt><trkpt lat="32.74309505" lon="35.05648255"><ele>434.17575558224706</ele><time>2012-04-26T03:46:33Z</time></trkpt><trkpt lat="32.74312644" lon="35.05643779"><ele>435.48834240005976</ele><time>2012-04-26T03:46:36Z</time></trkpt><trkpt lat="32.74318084" lon="35.05641889"><ele>435.80450337582477</ele><time>2012-04-26T03:46:39Z</time></trkpt><trkpt lat="32.74322214" lon="35.05640414"><ele>436.0558593484872</ele><time>2012-04-26T03:46:42Z</time></trkpt><trkpt lat="32.74326184" lon="35.05636202"><ele>437.220767494718</ele><time>2012-04-26T03:46:45Z</time></trkpt><trkpt lat="32.74330168" lon="35.05632973"><ele>438.0551958413462</ele><time>2012-04-26T03:46:48Z</time></trkpt><trkpt lat="32.74335715" lon="35.05630395"><ele>438.5786002677801</ele><time>2012-04-26T03:46:51Z</time></trkpt><trkpt lat="32.74341519" lon="35.05627947"><ele>439.039823733593</ele><time>2012-04-26T03:46:54Z</time></trkpt><trkpt lat="32.74346119" lon="35.05624507"><ele>439.8900717588702</ele><time>2012-04-26T03:46:57Z</time></trkpt><trkpt lat="32.74351199" lon="35.05619666"><ele>441.15632182840227</ele><time>2012-04-26T03:47:00Z</time></trkpt><trkpt lat="32.74356704" lon="35.05613182"><ele>442.99247209366064</ele><time>2012-04-26T03:47:03Z</time></trkpt><trkpt lat="32.7436165" lon="35.05608433"><ele>444.3433771930884</ele><time>2012-04-26T03:47:06Z</time></trkpt><trkpt lat="32.74368151" lon="35.05606095"><ele>444.8593638107418</ele><time>2012-04-26T03:47:09Z</time></trkpt><trkpt lat="32.74375636" lon="35.05603886"><ele>445.1949291799626</ele><time>2012-04-26T03:47:12Z</time></trkpt><trkpt lat="32.74382845" lon="35.05599096"><ele>445.1088790752555</ele><time>2012-04-26T03:47:15Z</time></trkpt><trkpt lat="32.74389325" lon="35.05593505"><ele>445.4342884542234</ele><time>2012-04-26T03:47:18Z</time></trkpt><trkpt lat="32.74395804" lon="35.05587115"><ele>445.98668810312523</ele><time>2012-04-26T03:47:21Z</time></trkpt><trkpt lat="32.74401173" lon="35.05580833"><ele>446.73682585321325</ele><time>2012-04-26T03:47:24Z</time></trkpt><trkpt lat="32.74405072" lon="35.05574467"><ele>447.8537620536813</ele><time>2012-04-26T03:47:27Z</time></trkpt><trkpt lat="32.74409624" lon="35.05568565"><ele>448.6196008648674</ele><time>2012-04-26T03:47:30Z</time></trkpt><trkpt lat="32.74413444" lon="35.05564276"><ele>449.02206328759866</ele><time>2012-04-26T03:47:33Z</time></trkpt><trkpt lat="32.74417585" lon="35.05560987"><ele>448.99697168192193</ele><time>2012-04-26T03:47:36Z</time></trkpt><trkpt lat="32.74422613" lon="35.05556582"><ele>449.07733032751224</ele><time>2012-04-26T03:47:39Z</time></trkpt><trkpt lat="32.74427783" lon="35.0555082"><ele>449.52482086484076</ele><time>2012-04-26T03:47:42Z</time></trkpt><trkpt lat="32.7443234" lon="35.05545604"><ele>449.93400961356963</ele><time>2012-04-26T03:47:45Z</time></trkpt><trkpt lat="32.74438552" lon="35.0553517"><ele>451.1562621652709</ele><time>2012-04-26T03:47:48Z</time></trkpt><trkpt lat="32.74442361" lon="35.05530161"><ele>451.41939678094803</ele><time>2012-04-26T03:47:51Z</time></trkpt><trkpt lat="32.74445922" lon="35.05524145"><ele>452.01993271498367</ele><time>2012-04-26T03:47:54Z</time></trkpt><trkpt lat="32.74451652" lon="35.05517828"><ele>452.1145205311517</ele><time>2012-04-26T03:47:57Z</time></trkpt><trkpt lat="32.74456433" lon="35.05512421"><ele>452.2373449800126</ele><time>2012-04-26T03:48:00Z</time></trkpt><trkpt lat="32.74460387" lon="35.05507404"><ele>452.4640204282242</ele><time>2012-04-26T03:48:03Z</time></trkpt><trkpt lat="32.74464197" lon="35.05500772"><ele>453.14198614615935</ele><time>2012-04-26T03:48:06Z</time></trkpt><trkpt lat="32.74469185" lon="35.05493814"><ele>453.5826004893732</ele><time>2012-04-26T03:48:09Z</time></trkpt><trkpt lat="32.74474615" lon="35.05486401"><ele>454.0305896697643</ele><time>2012-04-26T03:48:12Z</time></trkpt><trkpt lat="32.74479984" lon="35.05480004"><ele>454.2357974474828</ele><time>2012-04-26T03:48:15Z</time></trkpt><trkpt lat="32.74486095" lon="35.05473492"><ele>454.27529249964425</ele><time>2012-04-26T03:48:18Z</time></trkpt><trkpt lat="32.74492287" lon="35.05469069"><ele>453.7420818025735</ele><time>2012-04-26T03:48:21Z</time></trkpt><trkpt lat="32.74496685" lon="35.05464598"><ele>453.7264704997778</ele><time>2012-04-26T03:48:24Z</time></trkpt><trkpt lat="32.74499492" lon="35.05459501"><ele>454.3250234153896</ele><time>2012-04-26T03:48:27Z</time></trkpt><trkpt lat="32.74503218" lon="35.05453624"><ele>454.24655760284475</ele><time>2012-04-26T03:48:30Z</time></trkpt><trkpt lat="32.74507519" lon="35.05447968"><ele>453.86031751580407</ele><time>2012-04-26T03:48:33Z</time></trkpt><trkpt lat="32.74510573" lon="35.05441559"><ele>453.94929874135033</ele><time>2012-04-26T03:48:36Z</time></trkpt><trkpt lat="32.74511627" lon="35.05436278"><ele>454.42381387826384</ele><time>2012-04-26T03:48:39Z</time></trkpt><trkpt lat="32.74511518" lon="35.05430887"><ele>455.21708161195073</ele><time>2012-04-26T03:48:42Z</time></trkpt><trkpt lat="32.7451392" lon="35.05423152"><ele>455.7251376728445</ele><time>2012-04-26T03:48:45Z</time></trkpt><trkpt lat="32.74516788" lon="35.05415302"><ele>456.170810259362</ele><time>2012-04-26T03:48:48Z</time></trkpt><trkpt lat="32.74519447" lon="35.05408285"><ele>456.5799305052574</ele><time>2012-04-26T03:48:51Z</time></trkpt><trkpt lat="32.7452438" lon="35.05402734"><ele>456.28139414779554</ele><time>2012-04-26T03:48:54Z</time></trkpt><trkpt lat="32.74530671" lon="35.05399309"><ele>455.39014572166883</ele><time>2012-04-26T03:48:57Z</time></trkpt><trkpt lat="32.74538044" lon="35.05398143"><ele>453.92343721831577</ele><time>2012-04-26T03:49:00Z</time></trkpt><trkpt lat="32.74542881" lon="35.05398283"><ele>453.00402641366503</ele><time>2012-04-26T03:49:03Z</time></trkpt><trkpt lat="32.74545308" lon="35.05401287"><ele>452.3148595885767</ele><time>2012-04-26T03:49:06Z</time></trkpt><trkpt lat="32.74551666" lon="35.05401667"><ele>451.7759887990712</ele><time>2012-04-26T03:49:09Z</time></trkpt><trkpt lat="32.74559268" lon="35.05400611"><ele>451.4145696415997</ele><time>2012-04-26T03:49:12Z</time></trkpt><trkpt lat="32.74565915" lon="35.05399974"><ele>451.05939585633024</ele><time>2012-04-26T03:49:15Z</time></trkpt><trkpt lat="32.74572717" lon="35.05399576"><ele>450.65456609028524</ele><time>2012-04-26T03:49:18Z</time></trkpt><trkpt lat="32.74578703" lon="35.05399088"><ele>450.33523907456583</ele><time>2012-04-26T03:49:21Z</time></trkpt><trkpt lat="32.74583954" lon="35.05399049"><ele>449.97298996459057</ele><time>2012-04-26T03:49:24Z</time></trkpt><trkpt lat="32.74588336" lon="35.05399688"><ele>449.51319159682083</ele><time>2012-04-26T03:49:27Z</time></trkpt><trkpt lat="32.74594048" lon="35.05397907"><ele>449.53804114695527</ele><time>2012-04-26T03:49:30Z</time></trkpt><trkpt lat="32.74600463" lon="35.05394502"><ele>449.9558256252648</ele><time>2012-04-26T03:49:33Z</time></trkpt><trkpt lat="32.74607343" lon="35.05393096"><ele>449.8841143423167</ele><time>2012-04-26T03:49:36Z</time></trkpt><trkpt lat="32.74614425" lon="35.05393365"><ele>449.37124221876553</ele><time>2012-04-26T03:49:39Z</time></trkpt><trkpt lat="32.74622092" lon="35.05392678"><ele>449.0874509773239</ele><time>2012-04-26T03:49:42Z</time></trkpt><trkpt lat="32.74629005" lon="35.05390268"><ele>449.39773744254524</ele><time>2012-04-26T03:49:45Z</time></trkpt><trkpt lat="32.74637047" lon="35.05387387"><ele>449.79567828365134</ele><time>2012-04-26T03:49:48Z</time></trkpt><trkpt lat="32.74644235" lon="35.05385849"><ele>449.841587975251</ele><time>2012-04-26T03:49:51Z</time></trkpt><trkpt lat="32.74650992" lon="35.05386647"><ele>449.2605158012639</ele><time>2012-04-26T03:49:54Z</time></trkpt><trkpt lat="32.7465801" lon="35.05387513"><ele>448.6535751775496</ele><time>2012-04-26T03:49:57Z</time></trkpt><trkpt lat="32.74665458" lon="35.05387507"><ele>448.2619647254903</ele><time>2012-04-26T03:50:00Z</time></trkpt><trkpt lat="32.74673064" lon="35.05387855"><ele>447.7698089254368</ele><time>2012-04-26T03:50:03Z</time></trkpt><trkpt lat="32.74680412" lon="35.05389643"><ele>446.9254611983167</ele><time>2012-04-26T03:50:06Z</time></trkpt><trkpt lat="32.74687543" lon="35.05390378"><ele>446.3725448810721</ele><time>2012-04-26T03:50:09Z</time></trkpt><trkpt lat="32.74694805" lon="35.05389586"><ele>446.19740121930556</ele><time>2012-04-26T03:50:12Z</time></trkpt><trkpt lat="32.74701614" lon="35.05388616"><ele>446.08262150384894</ele><time>2012-04-26T03:50:15Z</time></trkpt><trkpt lat="32.74707323" lon="35.05386989"><ele>446.176282976214</ele><time>2012-04-26T03:50:18Z</time></trkpt><trkpt lat="32.74713347" lon="35.05384031"><ele>446.43097227777366</ele><time>2012-04-26T03:50:21Z</time></trkpt><trkpt lat="32.74719536" lon="35.05380217"><ele>446.83214394157255</ele><time>2012-04-26T03:50:24Z</time></trkpt><trkpt lat="32.74725497" lon="35.05376941"><ele>447.1068039391584</ele><time>2012-04-26T03:50:27Z</time></trkpt><trkpt lat="32.74731651" lon="35.05373081"><ele>447.04226742389454</ele><time>2012-04-26T03:50:30Z</time></trkpt><trkpt lat="32.74737696" lon="35.05368039"><ele>446.49457132820197</ele><time>2012-04-26T03:50:33Z</time></trkpt><trkpt lat="32.74742789" lon="35.05363705"><ele>445.9845138300068</ele><time>2012-04-26T03:50:36Z</time></trkpt><trkpt lat="32.74746057" lon="35.05357972"><ele>445.59238653423847</ele><time>2012-04-26T03:50:39Z</time></trkpt><trkpt lat="32.74748332" lon="35.05348917"><ele>445.2144724945455</ele><time>2012-04-26T03:50:42Z</time></trkpt><trkpt lat="32.74749625" lon="35.05339416"><ele>444.9044387510214</ele><time>2012-04-26T03:50:45Z</time></trkpt><trkpt lat="32.74747857" lon="35.05329964"><ele>444.96664824417934</ele><time>2012-04-26T03:50:48Z</time></trkpt><trkpt lat="32.74743327" lon="35.05322379"><ele>445.4673030513867</ele><time>2012-04-26T03:50:51Z</time></trkpt><trkpt lat="32.74737418" lon="35.05317294"><ele>446.250045346049</ele><time>2012-04-26T03:50:54Z</time></trkpt><trkpt lat="32.74730166" lon="35.0531287"><ele>447.2898607102954</ele><time>2012-04-26T03:50:57Z</time></trkpt><trkpt lat="32.7472297" lon="35.0530825"><ele>448.38770651890525</ele><time>2012-04-26T03:51:00Z</time></trkpt><trkpt lat="32.74715041" lon="35.05303573"><ele>449.66786262375325</ele><time>2012-04-26T03:51:03Z</time></trkpt><trkpt lat="32.74707354" lon="35.05301123"><ele>450.95682915930365</ele><time>2012-04-26T03:51:06Z</time></trkpt><trkpt lat="32.74700584" lon="35.05298967"><ele>452.30789834472466</ele><time>2012-04-26T03:51:09Z</time></trkpt><trkpt lat="32.74695107" lon="35.05297592"><ele>453.4205398891197</ele><time>2012-04-26T03:51:12Z</time></trkpt><trkpt lat="32.74688287" lon="35.05296902"><ele>454.78245171696864</ele><time>2012-04-26T03:51:15Z</time></trkpt><trkpt lat="32.7468209" lon="35.05295612"><ele>456.08003712886864</ele><time>2012-04-26T03:51:18Z</time></trkpt><trkpt lat="32.74677176" lon="35.05294928"><ele>457.102234229406</ele><time>2012-04-26T03:51:21Z</time></trkpt><trkpt lat="32.74671361" lon="35.05294455"><ele>458.29729442326396</ele><time>2012-04-26T03:51:24Z</time></trkpt><trkpt lat="32.74664242" lon="35.05294754"><ele>459.68531261531484</ele><time>2012-04-26T03:51:27Z</time></trkpt><trkpt lat="32.74657822" lon="35.0529574"><ele>460.85101686638995</ele><time>2012-04-26T03:51:30Z</time></trkpt><trkpt lat="32.74651061" lon="35.05297586"><ele>461.9556757516689</ele><time>2012-04-26T03:51:33Z</time></trkpt><trkpt lat="32.74644476" lon="35.05300523"><ele>462.83708771668836</ele><time>2012-04-26T03:51:36Z</time></trkpt><trkpt lat="32.74638603" lon="35.05302984"><ele>463.58970105484974</ele><time>2012-04-26T03:51:39Z</time></trkpt><trkpt lat="32.74632774" lon="35.05303796"><ele>464.539315058305</ele><time>2012-04-26T03:51:42Z</time></trkpt><trkpt lat="32.74627927" lon="35.0530664"><ele>464.963104962332</ele><time>2012-04-26T03:51:45Z</time></trkpt><trkpt lat="32.7462459" lon="35.05312742"><ele>464.4814554233291</ele><time>2012-04-26T03:51:48Z</time></trkpt><trkpt lat="32.74620804" lon="35.05313273"><ele>464.5957858683978</ele><time>2012-04-26T03:51:51Z</time></trkpt><trkpt lat="32.74614143" lon="35.05311069"><ele>465.3311604724573</ele><time>2012-04-26T03:51:54Z</time></trkpt><trkpt lat="32.74607058" lon="35.05310907"><ele>465.74472350126973</ele><time>2012-04-26T03:51:57Z</time></trkpt><trkpt lat="32.74600616" lon="35.05311154"><ele>466.0523164074812</ele><time>2012-04-26T03:52:00Z</time></trkpt><trkpt lat="32.74594049" lon="35.05309793"><ele>466.65025989350903</ele><time>2012-04-26T03:52:03Z</time></trkpt><trkpt lat="32.74586974" lon="35.05307389"><ele>467.46802505384153</ele><time>2012-04-26T03:52:06Z</time></trkpt><trkpt lat="32.74580414" lon="35.05303456"><ele>468.5431679044923</ele><time>2012-04-26T03:52:09Z</time></trkpt><trkpt lat="32.74575437" lon="35.05300335"><ele>469.39376696049277</ele><time>2012-04-26T03:52:12Z</time></trkpt><trkpt lat="32.74571059" lon="35.05297014"><ele>470.25503713257143</ele><time>2012-04-26T03:52:15Z</time></trkpt><trkpt lat="32.74565618" lon="35.05294002"><ele>471.1306450906362</ele><time>2012-04-26T03:52:18Z</time></trkpt><trkpt lat="32.7455905" lon="35.05290188"><ele>471.9924879989977</ele><time>2012-04-26T03:52:21Z</time></trkpt><trkpt lat="32.74553077" lon="35.05284722"><ele>472.48205199898615</ele><time>2012-04-26T03:52:24Z</time></trkpt><trkpt lat="32.74544992" lon="35.05279805"><ele>473.0851599989982</ele><time>2012-04-26T03:52:27Z</time></trkpt><trkpt lat="32.74536988" lon="35.0527443"><ele>473.7040926991599</ele><time>2012-04-26T03:52:30Z</time></trkpt><trkpt lat="32.74533004" lon="35.05271366"><ele>474.0096338437369</ele><time>2012-04-26T03:52:33Z</time></trkpt><trkpt lat="32.74529876" lon="35.05268203"><ele>474.25270429009356</ele><time>2012-04-26T03:52:36Z</time></trkpt><trkpt lat="32.74521732" lon="35.05263167"><ele>474.7920443384679</ele><time>2012-04-26T03:52:39Z</time></trkpt><trkpt lat="32.74513318" lon="35.05259329"><ele>475.28917167274284</ele><time>2012-04-26T03:52:42Z</time></trkpt><trkpt lat="32.74508377" lon="35.05255369"><ele>475.5719977579461</ele><time>2012-04-26T03:52:45Z</time></trkpt><trkpt lat="32.74505711" lon="35.05252117"><ele>475.718908051346</ele><time>2012-04-26T03:52:48Z</time></trkpt><trkpt lat="32.74502121" lon="35.05251343"><ele>475.89655126133584</ele><time>2012-04-26T03:52:51Z</time></trkpt><trkpt lat="32.74495635" lon="35.05251003"><ele>476.2120417817658</ele><time>2012-04-26T03:52:54Z</time></trkpt><trkpt lat="32.74489417" lon="35.05251421"><ele>476.5166461422211</ele><time>2012-04-26T03:52:57Z</time></trkpt><trkpt lat="32.74484397" lon="35.05251109"><ele>476.758910945834</ele><time>2012-04-26T03:53:00Z</time></trkpt><trkpt lat="32.74479708" lon="35.05252824"><ele>477.00702345329256</ele><time>2012-04-26T03:53:03Z</time></trkpt><trkpt lat="32.74471458" lon="35.05256813"><ele>477.4820230271691</ele><time>2012-04-26T03:53:06Z</time></trkpt><trkpt lat="32.74464411" lon="35.05258923"><ele>477.89118693174464</ele><time>2012-04-26T03:53:09Z</time></trkpt><trkpt lat="32.74457635" lon="35.05259921"><ele>478.29756227780786</ele><time>2012-04-26T03:53:12Z</time></trkpt><trkpt lat="32.7445075" lon="35.05262155"><ele>478.9495862990606</ele><time>2012-04-26T03:53:15Z</time></trkpt><trkpt lat="32.74444841" lon="35.05263582"><ele>479.5103120664353</ele><time>2012-04-26T03:53:18Z</time></trkpt><trkpt lat="32.74438942" lon="35.05264702"><ele>480.0706377946078</ele><time>2012-04-26T03:53:21Z</time></trkpt><trkpt lat="32.74434247" lon="35.05266189"><ele>480.5480222273198</ele><time>2012-04-26T03:53:24Z</time></trkpt><trkpt lat="32.74428143" lon="35.05265547"><ele>481.06591975993206</ele><time>2012-04-26T03:53:27Z</time></trkpt><trkpt lat="32.74423137" lon="35.05264295"><ele>481.4506487402625</ele><time>2012-04-26T03:53:30Z</time></trkpt><trkpt lat="32.74419423" lon="35.05262897"><ele>481.70584912878667</ele><time>2012-04-26T03:53:34Z</time></trkpt><trkpt lat="32.74414822" lon="35.0526138"><ele>482.0235184599142</ele><time>2012-04-26T03:53:37Z</time></trkpt><trkpt lat="32.74408634" lon="35.05262203"><ele>482.6060862936496</ele><time>2012-04-26T03:53:40Z</time></trkpt><trkpt lat="32.7440178" lon="35.05263088"><ele>483.25819441830873</ele><time>2012-04-26T03:53:43Z</time></trkpt><trkpt lat="32.74395178" lon="35.05261691"><ele>483.73831128051364</ele><time>2012-04-26T03:53:46Z</time></trkpt><trkpt lat="32.74389955" lon="35.05259869"><ele>484.0562405547379</ele><time>2012-04-26T03:53:49Z</time></trkpt><trkpt lat="32.7438534" lon="35.05258078"><ele>484.3118929047411</ele><time>2012-04-26T03:53:52Z</time></trkpt><trkpt lat="32.74381652" lon="35.0525591"><ele>484.44927840874703</ele><time>2012-04-26T03:53:55Z</time></trkpt><trkpt lat="32.74378768" lon="35.05254086"><ele>484.53823484461896</ele><time>2012-04-26T03:53:58Z</time></trkpt><trkpt lat="32.74375594" lon="35.05254647"><ele>484.84202857021916</ele><time>2012-04-26T03:54:01Z</time></trkpt><trkpt lat="32.74373664" lon="35.05257829"><ele>485.43766008121565</ele><time>2012-04-26T03:54:04Z</time></trkpt><trkpt lat="32.74376483" lon="35.05257004"><ele>484.9651834080727</ele><time>2012-04-26T03:54:09Z</time></trkpt><trkpt lat="32.74373721" lon="35.05255245"><ele>485.21389196464594</ele><time>2012-04-26T03:54:13Z</time></trkpt><trkpt lat="32.74371955" lon="35.05258798"><ele>485.8725867814607</ele><time>2012-04-26T03:54:17Z</time></trkpt><trkpt lat="32.74371282" lon="35.05264332"><ele>486.4448783794046</ele><time>2012-04-26T03:54:20Z</time></trkpt><trkpt lat="32.7436989" lon="35.0526758"><ele>486.96884325981574</ele><time>2012-04-26T03:54:23Z</time></trkpt><trkpt lat="32.74368663" lon="35.05271399"><ele>487.489530945596</ele><time>2012-04-26T03:54:26Z</time></trkpt><trkpt lat="32.74370813" lon="35.05273479"><ele>487.24603238733226</ele><time>2012-04-26T03:54:42Z</time></trkpt><trkpt lat="32.74373698" lon="35.05273477"><ele>486.7126937854319</ele><time>2012-04-26T03:54:46Z</time></trkpt><trkpt lat="32.74376101" lon="35.05275334"><ele>486.5220952306673</ele><time>2012-04-26T03:54:55Z</time></trkpt><trkpt lat="32.74378881" lon="35.05276386"><ele>486.3399750716123</ele><time>2012-04-26T03:55:09Z</time></trkpt><trkpt lat="32.74381602" lon="35.05276572"><ele>486.0907835914398</ele><time>2012-04-26T03:55:18Z</time></trkpt><trkpt lat="32.74378732" lon="35.05276503"><ele>486.36394137800363</ele><time>2012-04-26T03:55:48Z</time></trkpt><trkpt lat="32.7437637" lon="35.05274769"><ele>486.4493038574787</ele><time>2012-04-26T03:55:52Z</time></trkpt><trkpt lat="32.74373728" lon="35.05274083"><ele>486.75683241462644</ele><time>2012-04-26T03:56:04Z</time></trkpt><trkpt lat="32.74371767" lon="35.05277607"><ele>487.39533656424595</ele><time>2012-04-26T03:56:10Z</time></trkpt><trkpt lat="32.74369391" lon="35.05281447"><ele>488.10735022181206</ele><time>2012-04-26T03:56:13Z</time></trkpt><trkpt lat="32.74366883" lon="35.05283419"><ele>488.6794909545945</ele><time>2012-04-26T03:56:27Z</time></trkpt><trkpt lat="32.74368291" lon="35.05279952"><ele>488.18706441773196</ele><time>2012-04-26T03:57:22Z</time></trkpt><trkpt lat="32.74369164" lon="35.05273889"><ele>487.5814327318123</ele><time>2012-04-26T03:57:25Z</time></trkpt><trkpt lat="32.74371314" lon="35.05265778"><ele>486.5515221895239</ele><time>2012-04-26T03:57:28Z</time></trkpt><trkpt lat="32.74372659" lon="35.0526192"><ele>485.9767809224653</ele><time>2012-04-26T03:57:31Z</time></trkpt><trkpt lat="32.74374487" lon="35.05259278"><ele>485.38569877035036</ele><time>2012-04-26T03:57:40Z</time></trkpt><trkpt lat="32.74372114" lon="35.05257634"><ele>485.7470497481802</ele><time>2012-04-26T03:57:51Z</time></trkpt><trkpt lat="32.74370355" lon="35.05254373"><ele>485.86634686427715</ele><time>2012-04-26T03:58:20Z</time></trkpt><trkpt lat="32.74366676" lon="35.05252271"><ele>486.508748373286</ele><time>2012-04-26T03:58:23Z</time></trkpt><trkpt lat="32.74361215" lon="35.05251001"><ele>487.6224967235104</ele><time>2012-04-26T03:58:26Z</time></trkpt><trkpt lat="32.74356215" lon="35.05250509"><ele>488.6978804798423</ele><time>2012-04-26T03:58:29Z</time></trkpt><trkpt lat="32.74351762" lon="35.05251076"><ele>489.70961352348456</ele><time>2012-04-26T03:58:32Z</time></trkpt><trkpt lat="32.7434704" lon="35.05252962"><ele>490.8247450471836</ele><time>2012-04-26T03:58:35Z</time></trkpt><trkpt lat="32.74340691" lon="35.05253799"><ele>492.22925561153727</ele><time>2012-04-26T03:58:38Z</time></trkpt><trkpt lat="32.7433405" lon="35.05254453"><ele>493.6761090443622</ele><time>2012-04-26T03:58:41Z</time></trkpt><trkpt lat="32.74328714" lon="35.05254235"><ele>494.82073440216493</ele><time>2012-04-26T03:58:44Z</time></trkpt><trkpt lat="32.74323544" lon="35.05254065"><ele>495.9333688730282</ele><time>2012-04-26T03:58:47Z</time></trkpt><trkpt lat="32.74319771" lon="35.05254064"><ele>496.746684159728</ele><time>2012-04-26T03:58:50Z</time></trkpt><trkpt lat="32.74316917" lon="35.05254147"><ele>497.36123560033536</ele><time>2012-04-26T03:58:53Z</time></trkpt><trkpt lat="32.74312784" lon="35.05253574"><ele>498.2599497840868</ele><time>2012-04-26T03:58:57Z</time></trkpt><trkpt lat="32.7430736" lon="35.05253686"><ele>499.430779471318</ele><time>2012-04-26T03:59:00Z</time></trkpt><trkpt lat="32.74298291" lon="35.05254468"><ele>501.36181647245445</ele><time>2012-04-26T03:59:03Z</time></trkpt><trkpt lat="32.74294726" lon="35.05256675"><ele>502.0327749418785</ele><time>2012-04-26T03:59:06Z</time></trkpt><trkpt lat="32.74290913" lon="35.05257717"><ele>502.7340930622331</ele><time>2012-04-26T03:59:09Z</time></trkpt><trkpt lat="32.7428731" lon="35.05254294"><ele>503.38513130186806</ele><time>2012-04-26T03:59:12Z</time></trkpt><trkpt lat="32.74283645" lon="35.05252984"><ele>503.9363092673105</ele><time>2012-04-26T03:59:15Z</time></trkpt><trkpt lat="32.74276952" lon="35.05252868"><ele>504.8411342364642</ele><time>2012-04-26T03:59:18Z</time></trkpt><trkpt lat="32.74270394" lon="35.05253363"><ele>505.7083785398411</ele><time>2012-04-26T03:59:21Z</time></trkpt><trkpt lat="32.74266083" lon="35.05251366"><ele>506.3416704562575</ele><time>2012-04-26T03:59:24Z</time></trkpt><trkpt lat="32.74262445" lon="35.05250198"><ele>506.85275500778283</ele><time>2012-04-26T03:59:27Z</time></trkpt><trkpt lat="32.74258612" lon="35.05249331"><ele>507.37622187265396</ele><time>2012-04-26T03:59:30Z</time></trkpt><trkpt lat="32.74253712" lon="35.05247568"><ele>508.046999831414</ele><time>2012-04-26T03:59:33Z</time></trkpt><trkpt lat="32.7424998" lon="35.05246149"><ele>508.5487854536208</ele><time>2012-04-26T03:59:36Z</time></trkpt><trkpt lat="32.74246159" lon="35.05245322"><ele>509.04762347583187</ele><time>2012-04-26T03:59:39Z</time></trkpt><trkpt lat="32.74241544" lon="35.0524305"><ele>509.6488154100571</ele><time>2012-04-26T03:59:42Z</time></trkpt><trkpt lat="32.74236826" lon="35.05240248"><ele>510.2449914582312</ele><time>2012-04-26T03:59:45Z</time></trkpt><trkpt lat="32.74228929" lon="35.05237738"><ele>511.20528207075586</ele><time>2012-04-26T03:59:48Z</time></trkpt><trkpt lat="32.74220295" lon="35.05234501"><ele>512.2092643040584</ele><time>2012-04-26T03:59:51Z</time></trkpt><trkpt lat="32.7421572" lon="35.05231292"><ele>512.695363951561</ele><time>2012-04-26T03:59:54Z</time></trkpt><trkpt lat="32.74210946" lon="35.05226789"><ele>513.1504592105211</ele><time>2012-04-26T03:59:57Z</time></trkpt><trkpt lat="32.74208112" lon="35.05222911"><ele>513.3556406184607</ele><time>2012-04-26T04:00:00Z</time></trkpt><trkpt lat="32.74209612" lon="35.05219775"><ele>513.1392076117626</ele><time>2012-04-26T04:00:05Z</time></trkpt><trkpt lat="32.74210765" lon="35.05216586"><ele>512.9472854763957</ele><time>2012-04-26T04:00:09Z</time></trkpt><trkpt lat="32.74213711" lon="35.05213025"><ele>512.5745450893425</ele><time>2012-04-26T04:00:12Z</time></trkpt><trkpt lat="32.74216823" lon="35.05209093"><ele>512.1976517892916</ele><time>2012-04-26T04:00:15Z</time></trkpt><trkpt lat="32.74222192" lon="35.05203076"><ele>510.96497093297825</ele><time>2012-04-26T04:00:18Z</time></trkpt><trkpt lat="32.74226012" lon="35.05196532"><ele>509.7536709227482</ele><time>2012-04-26T04:00:21Z</time></trkpt><trkpt lat="32.74232211" lon="35.05190268"><ele>508.41691376457766</ele><time>2012-04-26T04:00:24Z</time></trkpt><trkpt lat="32.74237515" lon="35.05185527"><ele>507.3936273075526</ele><time>2012-04-26T04:00:27Z</time></trkpt><trkpt lat="32.74242417" lon="35.05178491"><ele>506.1630100213831</ele><time>2012-04-26T04:00:30Z</time></trkpt><trkpt lat="32.74249226" lon="35.05171989"><ele>504.91079602913516</ele><time>2012-04-26T04:00:33Z</time></trkpt><trkpt lat="32.74254552" lon="35.05164139"><ele>503.66969827503897</ele><time>2012-04-26T04:00:36Z</time></trkpt><trkpt lat="32.74256457" lon="35.05156297"><ele>502.689904994319</ele><time>2012-04-26T04:00:39Z</time></trkpt><trkpt lat="32.74259217" lon="35.05150504"><ele>501.90639333425895</ele><time>2012-04-26T04:00:42Z</time></trkpt><trkpt lat="32.74256221" lon="35.05143526"><ele>501.30502782206383</ele><time>2012-04-26T04:00:45Z</time></trkpt><trkpt lat="32.74250415" lon="35.05139068"><ele>501.0846084807897</ele><time>2012-04-26T04:00:48Z</time></trkpt><trkpt lat="32.74245401" lon="35.05136722"><ele>501.04068682342194</ele><time>2012-04-26T04:00:51Z</time></trkpt><trkpt lat="32.74239566" lon="35.05134253"><ele>500.9999789766843</ele><time>2012-04-26T04:00:54Z</time></trkpt><trkpt lat="32.74234563" lon="35.05132009"><ele>500.9326605109736</ele><time>2012-04-26T04:00:57Z</time></trkpt><trkpt lat="32.74231994" lon="35.0512965"><ele>500.73860008725103</ele><time>2012-04-26T04:01:00Z</time></trkpt><trkpt lat="32.742283" lon="35.05128698"><ele>500.76054955127427</ele><time>2012-04-26T04:01:03Z</time></trkpt><trkpt lat="32.74223836" lon="35.05126894"><ele>500.6934993227907</ele><time>2012-04-26T04:01:06Z</time></trkpt><trkpt lat="32.74220401" lon="35.05125735"><ele>500.6650177900801</ele><time>2012-04-26T04:01:09Z</time></trkpt><trkpt lat="32.74214724" lon="35.05125248"><ele>500.8045068818785</ele><time>2012-04-26T04:01:12Z</time></trkpt><trkpt lat="32.74209789" lon="35.05125577"><ele>501.03007925711245</ele><time>2012-04-26T04:01:15Z</time></trkpt><trkpt lat="32.74203324" lon="35.05126237"><ele>501.2391323019154</ele><time>2012-04-26T04:01:18Z</time></trkpt><trkpt lat="32.74195024" lon="35.05126587"><ele>501.3912815546883</ele><time>2012-04-26T04:01:21Z</time></trkpt><trkpt lat="32.74185511" lon="35.05125214"><ele>501.3053872923977</ele><time>2012-04-26T04:01:24Z</time></trkpt><trkpt lat="32.74178805" lon="35.05124815"><ele>501.3228930777724</ele><time>2012-04-26T04:01:27Z</time></trkpt><trkpt lat="32.74171749" lon="35.0512388"><ele>501.25773456960786</ele><time>2012-04-26T04:01:30Z</time></trkpt><trkpt lat="32.74166597" lon="35.05121956"><ele>501.02621629861284</ele><time>2012-04-26T04:01:33Z</time></trkpt><trkpt lat="32.74161715" lon="35.0512305"><ele>501.26634342337695</ele><time>2012-04-26T04:01:36Z</time></trkpt><trkpt lat="32.74152368" lon="35.05126242"><ele>501.86044128729066</ele><time>2012-04-26T04:01:39Z</time></trkpt><trkpt lat="32.74141957" lon="35.05130952"><ele>502.7104943580842</ele><time>2012-04-26T04:01:42Z</time></trkpt><trkpt lat="32.74133301" lon="35.05136093"><ele>503.6176360483799</ele><time>2012-04-26T04:01:45Z</time></trkpt><trkpt lat="32.74126247" lon="35.05140279"><ele>504.36581637983323</ele><time>2012-04-26T04:01:48Z</time></trkpt><trkpt lat="32.74120229" lon="35.05145751"><ele>505.3518862592236</ele><time>2012-04-26T04:01:51Z</time></trkpt><trkpt lat="32.74115616" lon="35.05152797"><ele>506.52390809971</ele><time>2012-04-26T04:01:54Z</time></trkpt><trkpt lat="32.74111632" lon="35.05159981"><ele>507.6689314187029</ele><time>2012-04-26T04:01:57Z</time></trkpt><trkpt lat="32.74109114" lon="35.05167078"><ele>508.7510361611519</ele><time>2012-04-26T04:02:00Z</time></trkpt><trkpt lat="32.74107161" lon="35.05172334"><ele>509.5399386531925</ele><time>2012-04-26T04:02:03Z</time></trkpt><trkpt lat="32.74105373" lon="35.0517643"><ele>510.148228032006</ele><time>2012-04-26T04:02:06Z</time></trkpt><trkpt lat="32.74103263" lon="35.0518113"><ele>510.8360356607336</ele><time>2012-04-26T04:02:09Z</time></trkpt><trkpt lat="32.74100308" lon="35.05185774"><ele>511.50529219316417</ele><time>2012-04-26T04:02:12Z</time></trkpt><trkpt lat="32.74096606" lon="35.05189198"><ele>511.987117304429</ele><time>2012-04-26T04:02:15Z</time></trkpt><trkpt lat="32.74092166" lon="35.05191876"><ele>512.3498954069382</ele><time>2012-04-26T04:02:18Z</time></trkpt><trkpt lat="32.74087572" lon="35.05194306"><ele>512.6650086577474</ele><time>2012-04-26T04:02:21Z</time></trkpt><trkpt lat="32.74084111" lon="35.05195779"><ele>512.846536461506</ele><time>2012-04-26T04:02:24Z</time></trkpt><trkpt lat="32.74082347" lon="35.05199284"><ele>513.2987931789328</ele><time>2012-04-26T04:02:31Z</time></trkpt><trkpt lat="32.74080315" lon="35.05207181"><ele>514.3136753999776</ele><time>2012-04-26T04:02:34Z</time></trkpt><trkpt lat="32.74080995" lon="35.05211635"><ele>514.4652695758791</ele><time>2012-04-26T04:02:37Z</time></trkpt><trkpt lat="32.74080761" lon="35.05215692"><ele>514.452777391847</ele><time>2012-04-26T04:02:41Z</time></trkpt><trkpt lat="32.74082796" lon="35.05217932"><ele>514.4890957604923</ele><time>2012-04-26T04:02:44Z</time></trkpt><trkpt lat="32.74083247" lon="35.05213649"><ele>514.4985674928794</ele><time>2012-04-26T04:02:49Z</time></trkpt><trkpt lat="32.74086329" lon="35.05211453"><ele>514.5440224950559</ele><time>2012-04-26T04:02:52Z</time></trkpt><trkpt lat="32.74086112" lon="35.05214955"><ele>514.5492410845295</ele><time>2012-04-26T04:02:55Z</time></trkpt><trkpt lat="32.74084075" lon="35.05220212"><ele>514.5165118486872</ele><time>2012-04-26T04:02:58Z</time></trkpt><trkpt lat="32.74081132" lon="35.05224615"><ele>514.4426170506114</ele><time>2012-04-26T04:03:01Z</time></trkpt><trkpt lat="32.74078232" lon="35.05228409"><ele>514.350299454329</ele><time>2012-04-26T04:03:04Z</time></trkpt><trkpt lat="32.74080743" lon="35.0522549"><ele>514.4305185555661</ele><time>2012-04-26T04:03:10Z</time></trkpt><trkpt lat="32.74081729" lon="35.052136"><ele>514.4734476406879</ele><time>2012-04-26T04:03:13Z</time></trkpt><trkpt lat="32.74079318" lon="35.0521215"><ele>514.4385750358741</ele><time>2012-04-26T04:03:45Z</time></trkpt><trkpt lat="32.74077899" lon="35.05209114"><ele>514.4311225629787</ele><time>2012-04-26T04:04:26Z</time></trkpt><trkpt lat="32.7407044" lon="35.05206952"><ele>514.1732025542364</ele><time>2012-04-26T04:04:29Z</time></trkpt><trkpt lat="32.74061161" lon="35.05206383"><ele>514.0013962212141</ele><time>2012-04-26T04:04:32Z</time></trkpt><trkpt lat="32.74053033" lon="35.0520606"><ele>513.8759924677429</ele><time>2012-04-26T04:04:35Z</time></trkpt><trkpt lat="32.74045041" lon="35.05205998"><ele>513.7837370080872</ele><time>2012-04-26T04:04:38Z</time></trkpt><trkpt lat="32.74034228" lon="35.05205133"><ele>513.698929229742</ele><time>2012-04-26T04:04:41Z</time></trkpt><trkpt lat="32.74020422" lon="35.05206018"><ele>513.8420248428869</ele><time>2012-04-26T04:04:44Z</time></trkpt><trkpt lat="32.74004852" lon="35.0520466"><ele>513.8564353181583</ele><time>2012-04-26T04:04:47Z</time></trkpt><trkpt lat="32.73993639" lon="35.05199526"><ele>513.8406558924897</ele><time>2012-04-26T04:04:50Z</time></trkpt><trkpt lat="32.73981278" lon="35.05192596"><ele>514.0794355109537</ele><time>2012-04-26T04:04:53Z</time></trkpt><trkpt lat="32.73953368" lon="35.05180279"><ele>515.2474990717484</ele><time>2012-04-26T04:04:56Z</time></trkpt><trkpt lat="32.73938971" lon="35.05175381"><ele>515.2088929039252</ele><time>2012-04-26T04:04:59Z</time></trkpt><trkpt lat="32.73929122" lon="35.05169988"><ele>515.300801036163</ele><time>2012-04-26T04:05:02Z</time></trkpt><trkpt lat="32.73918881" lon="35.05165376"><ele>515.3591424518472</ele><time>2012-04-26T04:05:05Z</time></trkpt><trkpt lat="32.73910798" lon="35.0516091"><ele>515.4600888889114</ele><time>2012-04-26T04:05:08Z</time></trkpt><trkpt lat="32.73903853" lon="35.05156599"><ele>515.5815845353596</ele><time>2012-04-26T04:05:11Z</time></trkpt><trkpt lat="32.73896697" lon="35.05152788"><ele>515.6799039369603</ele><time>2012-04-26T04:05:14Z</time></trkpt><trkpt lat="32.73890045" lon="35.0514808"><ele>515.8457423573866</ele><time>2012-04-26T04:05:17Z</time></trkpt><trkpt lat="32.73881752" lon="35.05143815"><ele>515.970417597681</ele><time>2012-04-26T04:05:20Z</time></trkpt><trkpt lat="32.73873018" lon="35.05139596"><ele>515.9994101507317</ele><time>2012-04-26T04:05:23Z</time></trkpt><trkpt lat="32.73863596" lon="35.05136861"><ele>515.5251824944988</ele><time>2012-04-26T04:05:26Z</time></trkpt><trkpt lat="32.73852571" lon="35.05133975"><ele>514.8673363951327</ele><time>2012-04-26T04:05:29Z</time></trkpt><trkpt lat="32.7384285" lon="35.05128556"><ele>514.2506685751678</ele><time>2012-04-26T04:05:32Z</time></trkpt><trkpt lat="32.73830594" lon="35.05124433"><ele>513.1900843718691</ele><time>2012-04-26T04:05:35Z</time></trkpt><trkpt lat="32.73822936" lon="35.05122784"><ele>512.297591184926</ele><time>2012-04-26T04:05:38Z</time></trkpt><trkpt lat="32.73814273" lon="35.05121311"><ele>511.3189739212706</ele><time>2012-04-26T04:05:41Z</time></trkpt><trkpt lat="32.73806903" lon="35.05120238"><ele>510.4958278621907</ele><time>2012-04-26T04:05:44Z</time></trkpt><trkpt lat="32.73800886" lon="35.05116368"><ele>509.3008819352015</ele><time>2012-04-26T04:05:47Z</time></trkpt><trkpt lat="32.73797398" lon="35.05109575"><ele>507.79404506279195</ele><time>2012-04-26T04:05:50Z</time></trkpt><trkpt lat="32.73795578" lon="35.05103043"><ele>506.46286019470244</ele><time>2012-04-26T04:05:53Z</time></trkpt><trkpt lat="32.73792271" lon="35.05098415"><ele>505.28165873083236</ele><time>2012-04-26T04:05:56Z</time></trkpt><trkpt lat="32.73791351" lon="35.05094241"><ele>504.452829086038</ele><time>2012-04-26T04:05:59Z</time></trkpt><trkpt lat="32.73792367" lon="35.05089564"><ele>503.705363547722</ele><time>2012-04-26T04:06:02Z</time></trkpt><trkpt lat="32.73794724" lon="35.05086783"><ele>503.4955328444647</ele><time>2012-04-26T04:06:05Z</time></trkpt><trkpt lat="32.73799608" lon="35.05082313"><ele>503.32511562916824</ele><time>2012-04-26T04:06:08Z</time></trkpt><trkpt lat="32.73803947" lon="35.05075648"><ele>502.75909548227503</ele><time>2012-04-26T04:06:11Z</time></trkpt><trkpt lat="32.73802671" lon="35.05070931"><ele>501.7916972450519</ele><time>2012-04-26T04:06:14Z</time></trkpt><trkpt lat="32.73801862" lon="35.05066657"><ele>500.9542529428933</ele><time>2012-04-26T04:06:33Z</time></trkpt><trkpt lat="32.73803312" lon="35.05054452"><ele>499.1076954154673</ele><time>2012-04-26T04:06:36Z</time></trkpt><trkpt lat="32.73806055" lon="35.05042431"><ele>497.54373453698736</ele><time>2012-04-26T04:06:39Z</time></trkpt><trkpt lat="32.73814538" lon="35.05031284"><ele>497.06153173615854</ele><time>2012-04-26T04:06:42Z</time></trkpt><trkpt lat="32.73825271" lon="35.05018394"><ele>496.2221320890283</ele><time>2012-04-26T04:06:45Z</time></trkpt><trkpt lat="32.73824672" lon="35.05011521"><ele>494.8463636811832</ele><time>2012-04-26T04:06:48Z</time></trkpt><trkpt lat="32.73818433" lon="35.05011165"><ele>494.05975408056946</ele><time>2012-04-26T04:06:51Z</time></trkpt><trkpt lat="32.73813416" lon="35.0501166"><ele>493.5652720073381</ele><time>2012-04-26T04:06:54Z</time></trkpt><trkpt lat="32.73813573" lon="35.05008206"><ele>492.996831105309</ele><time>2012-04-26T04:06:57Z</time></trkpt><trkpt lat="32.73819256" lon="35.04998522"><ele>491.8830172837515</ele><time>2012-04-26T04:07:00Z</time></trkpt><trkpt lat="32.73826529" lon="35.04987273"><ele>490.4001186400923</ele><time>2012-04-26T04:07:03Z</time></trkpt><trkpt lat="32.73823256" lon="35.04986781"><ele>490.06609080100225</ele><time>2012-04-26T04:07:06Z</time></trkpt><trkpt lat="32.73817363" lon="35.04990702"><ele>490.3266504508505</ele><time>2012-04-26T04:07:09Z</time></trkpt><trkpt lat="32.73814256" lon="35.04988585"><ele>489.7162186888579</ele><time>2012-04-26T04:07:12Z</time></trkpt><trkpt lat="32.73817178" lon="35.04981777"><ele>488.7403168482514</ele><time>2012-04-26T04:07:15Z</time></trkpt><trkpt lat="32.73826619" lon="35.04972435"><ele>487.55198327339536</ele><time>2012-04-26T04:07:18Z</time></trkpt><trkpt lat="32.7383951" lon="35.04965994"><ele>486.7927804398104</ele><time>2012-04-26T04:07:21Z</time></trkpt><trkpt lat="32.73849972" lon="35.04964682"><ele>486.8769904256685</ele><time>2012-04-26T04:07:24Z</time></trkpt><trkpt lat="32.73859375" lon="35.04963707"><ele>486.96304299966084</ele><time>2012-04-26T04:07:27Z</time></trkpt><trkpt lat="32.73868483" lon="35.04958463"><ele>485.8779197744598</ele><time>2012-04-26T04:07:30Z</time></trkpt><trkpt lat="32.73879998" lon="35.04950152"><ele>485.37865375812953</ele><time>2012-04-26T04:07:33Z</time></trkpt><trkpt lat="32.73892493" lon="35.04942594"><ele>485.6275361973864</ele><time>2012-04-26T04:07:36Z</time></trkpt><trkpt lat="32.73902687" lon="35.04938972"><ele>486.1174453378034</ele><time>2012-04-26T04:07:39Z</time></trkpt><trkpt lat="32.73911821" lon="35.04936201"><ele>486.55872352100727</ele><time>2012-04-26T04:07:42Z</time></trkpt><trkpt lat="32.73920733" lon="35.0492892"><ele>485.86633860176613</ele><time>2012-04-26T04:07:45Z</time></trkpt><trkpt lat="32.73925695" lon="35.04916065"><ele>483.31203563671943</ele><time>2012-04-26T04:07:48Z</time></trkpt><trkpt lat="32.739272" lon="35.0490391"><ele>480.5267775676174</ele><time>2012-04-26T04:07:51Z</time></trkpt><trkpt lat="32.73929656" lon="35.04898907"><ele>479.4551150108437</ele><time>2012-04-26T04:07:54Z</time></trkpt><trkpt lat="32.73936067" lon="35.04896801"><ele>479.2425735202088</ele><time>2012-04-26T04:07:57Z</time></trkpt><trkpt lat="32.73941441" lon="35.04892464"><ele>478.3596317880919</ele><time>2012-04-26T04:08:00Z</time></trkpt><trkpt lat="32.73946573" lon="35.04887467"><ele>477.21713213564726</ele><time>2012-04-26T04:08:03Z</time></trkpt><trkpt lat="32.73949049" lon="35.04885925"><ele>476.8743207543978</ele><time>2012-04-26T04:08:06Z</time></trkpt><trkpt lat="32.73951315" lon="35.04883605"><ele>476.298357870366</ele><time>2012-04-26T04:08:09Z</time></trkpt><trkpt lat="32.7395807" lon="35.04877166"><ele>474.6197445176867</ele><time>2012-04-26T04:08:12Z</time></trkpt><trkpt lat="32.7396625" lon="35.04866613"><ele>472.9915366598092</ele><time>2012-04-26T04:08:15Z</time></trkpt><trkpt lat="32.73972749" lon="35.04857864"><ele>471.4354937104232</ele><time>2012-04-26T04:08:18Z</time></trkpt><trkpt lat="32.73979226" lon="35.04854496"><ele>471.2949785795372</ele><time>2012-04-26T04:08:21Z</time></trkpt><trkpt lat="32.73989544" lon="35.04852684"><ele>472.0481251715186</ele><time>2012-04-26T04:08:24Z</time></trkpt><trkpt lat="32.74001273" lon="35.04852165"><ele>473.34987691595694</ele><time>2012-04-26T04:08:27Z</time></trkpt><trkpt lat="32.74013294" lon="35.04847376"><ele>473.0985229702621</ele><time>2012-04-26T04:08:30Z</time></trkpt><trkpt lat="32.74025621" lon="35.04839097"><ele>471.3035039315161</ele><time>2012-04-26T04:08:33Z</time></trkpt><trkpt lat="32.74035313" lon="35.0483034"><ele>468.70657289822077</ele><time>2012-04-26T04:08:36Z</time></trkpt><trkpt lat="32.74045252" lon="35.04824774"><ele>467.5769544865545</ele><time>2012-04-26T04:08:39Z</time></trkpt><trkpt lat="32.74053631" lon="35.04820151"><ele>467.2532682052344</ele><time>2012-04-26T04:08:42Z</time></trkpt><trkpt lat="32.74059922" lon="35.04815459"><ele>466.56066485306735</ele><time>2012-04-26T04:08:45Z</time></trkpt><trkpt lat="32.74068101" lon="35.04808169"><ele>465.26389485232653</ele><time>2012-04-26T04:08:48Z</time></trkpt><trkpt lat="32.74077577" lon="35.04800386"><ele>464.14822136024713</ele><time>2012-04-26T04:08:51Z</time></trkpt><trkpt lat="32.74085766" lon="35.04794972"><ele>463.7877567710894</ele><time>2012-04-26T04:08:54Z</time></trkpt><trkpt lat="32.74095463" lon="35.04788874"><ele>463.58750314580453</ele><time>2012-04-26T04:08:57Z</time></trkpt><trkpt lat="32.74107416" lon="35.04783622"><ele>464.1029608145557</ele><time>2012-04-26T04:09:00Z</time></trkpt><trkpt lat="32.74117396" lon="35.04779971"><ele>464.700962268693</ele><time>2012-04-26T04:09:03Z</time></trkpt><trkpt lat="32.7412508" lon="35.04778028"><ele>465.4456697650077</ele><time>2012-04-26T04:09:06Z</time></trkpt><trkpt lat="32.74131696" lon="35.04778631"><ele>466.5401813945871</ele><time>2012-04-26T04:09:09Z</time></trkpt><trkpt lat="32.74140648" lon="35.0478149"><ele>468.8675935896781</ele><time>2012-04-26T04:09:12Z</time></trkpt><trkpt lat="32.74149942" lon="35.04783969"><ele>471.09640138187433</ele><time>2012-04-26T04:09:15Z</time></trkpt><trkpt lat="32.7415748" lon="35.04784518"><ele>472.3038336564241</ele><time>2012-04-26T04:09:18Z</time></trkpt><trkpt lat="32.74163476" lon="35.04786305"><ele>473.83185889960293</ele><time>2012-04-26T04:09:21Z</time></trkpt><trkpt lat="32.74167734" lon="35.04787676"><ele>474.9635813010266</ele><time>2012-04-26T04:09:24Z</time></trkpt><trkpt lat="32.74171611" lon="35.04789548"><ele>476.25979508644656</ele><time>2012-04-26T04:09:27Z</time></trkpt><trkpt lat="32.74177972" lon="35.04791789"><ele>478.0292770712402</ele><time>2012-04-26T04:09:30Z</time></trkpt><trkpt lat="32.74185375" lon="35.04793454"><ele>479.4982575437197</ele><time>2012-04-26T04:09:33Z</time></trkpt><trkpt lat="32.74190894" lon="35.04795569"><ele>480.8338507351253</ele><time>2012-04-26T04:09:36Z</time></trkpt><trkpt lat="32.74194761" lon="35.04803944"><ele>483.7409660998179</ele><time>2012-04-26T04:09:39Z</time></trkpt><trkpt lat="32.74193893" lon="35.04810242"><ele>485.45242218015767</ele><time>2012-04-26T04:09:42Z</time></trkpt><trkpt lat="32.74195003" lon="35.0481395"><ele>486.64724224123006</ele><time>2012-04-26T04:09:45Z</time></trkpt><trkpt lat="32.74199315" lon="35.04817227"><ele>488.0633940274298</ele><time>2012-04-26T04:09:48Z</time></trkpt><trkpt lat="32.74204123" lon="35.04820452"><ele>489.49370121269294</ele><time>2012-04-26T04:09:51Z</time></trkpt><trkpt lat="32.74207515" lon="35.04824035"><ele>490.8485257060717</ele><time>2012-04-26T04:09:54Z</time></trkpt><trkpt lat="32.74209967" lon="35.04828488"><ele>491.88458596884215</ele><time>2012-04-26T04:09:57Z</time></trkpt><trkpt lat="32.74209927" lon="35.0483393"><ele>493.3759030096204</ele><time>2012-04-26T04:10:00Z</time></trkpt><trkpt lat="32.74208656" lon="35.0484064"><ele>495.45380704180275</ele><time>2012-04-26T04:10:03Z</time></trkpt><trkpt lat="32.74205386" lon="35.04844999"><ele>496.46648657319423</ele><time>2012-04-26T04:10:06Z</time></trkpt><trkpt lat="32.74201756" lon="35.04847005"><ele>496.71964956570935</ele><time>2012-04-26T04:10:09Z</time></trkpt><trkpt lat="32.74198342" lon="35.04848642"><ele>496.8981762484292</ele><time>2012-04-26T04:10:12Z</time></trkpt><trkpt lat="32.74195179" lon="35.0485202"><ele>497.6070843945138</ele><time>2012-04-26T04:10:15Z</time></trkpt><trkpt lat="32.74192248" lon="35.04856084"><ele>498.55117457681587</ele><time>2012-04-26T04:10:18Z</time></trkpt><trkpt lat="32.74187871" lon="35.04859465"><ele>499.2099496506605</ele><time>2012-04-26T04:10:21Z</time></trkpt><trkpt lat="32.74182037" lon="35.04860232"><ele>499.01072256709944</ele><time>2012-04-26T04:10:24Z</time></trkpt><trkpt lat="32.74177494" lon="35.04861148"><ele>498.95739891083997</ele><time>2012-04-26T04:10:27Z</time></trkpt><trkpt lat="32.74174395" lon="35.0486311"><ele>499.3334128589173</ele><time>2012-04-26T04:10:30Z</time></trkpt><trkpt lat="32.74171142" lon="35.04864423"><ele>499.5093939586832</ele><time>2012-04-26T04:12:14Z</time></trkpt><trkpt lat="32.74167885" lon="35.04871194"><ele>501.38963434741015</ele><time>2012-04-26T04:12:17Z</time></trkpt><trkpt lat="32.74161926" lon="35.04881165"><ele>502.1593014642621</ele><time>2012-04-26T04:12:20Z</time></trkpt><trkpt lat="32.74149748" lon="35.04894761"><ele>501.75504733232276</ele><time>2012-04-26T04:12:23Z</time></trkpt><trkpt lat="32.74142197" lon="35.04903018"><ele>501.8109225770362</ele><time>2012-04-26T04:12:26Z</time></trkpt><trkpt lat="32.74142398" lon="35.04913346"><ele>502.09574697773985</ele><time>2012-04-26T04:12:29Z</time></trkpt><trkpt lat="32.74142143" lon="35.04919807"><ele>502.27906737642957</ele><time>2012-04-26T04:12:32Z</time></trkpt><trkpt lat="32.74142036" lon="35.04929526"><ele>502.55480995888905</ele><time>2012-04-26T04:12:35Z</time></trkpt><trkpt lat="32.74143917" lon="35.04939227"><ele>502.7141933973957</ele><time>2012-04-26T04:12:38Z</time></trkpt><trkpt lat="32.7413227" lon="35.04954312"><ele>504.1155280937941</ele><time>2012-04-26T04:12:41Z</time></trkpt><trkpt lat="32.74121521" lon="35.04959561"><ele>504.7888483773353</ele><time>2012-04-26T04:12:44Z</time></trkpt><trkpt lat="32.7410838" lon="35.04972812"><ele>503.1314500392253</ele><time>2012-04-26T04:12:47Z</time></trkpt><trkpt lat="32.74098886" lon="35.04984607"><ele>502.0888229970051</ele><time>2012-04-26T04:12:50Z</time></trkpt><trkpt lat="32.74085536" lon="35.04996331"><ele>501.6459729760347</ele><time>2012-04-26T04:12:53Z</time></trkpt><trkpt lat="32.74076309" lon="35.05004568"><ele>501.64801060217167</ele><time>2012-04-26T04:12:56Z</time></trkpt><trkpt lat="32.74066461" lon="35.05009135"><ele>502.12095450480206</ele><time>2012-04-26T04:12:59Z</time></trkpt><trkpt lat="32.74054581" lon="35.05016265"><ele>502.8621707794179</ele><time>2012-04-26T04:13:02Z</time></trkpt><trkpt lat="32.7404615" lon="35.05026161"><ele>503.5283254997162</ele><time>2012-04-26T04:13:05Z</time></trkpt><trkpt lat="32.74036601" lon="35.05036301"><ele>504.5452557150352</ele><time>2012-04-26T04:13:08Z</time></trkpt><trkpt lat="32.74027316" lon="35.05046505"><ele>505.81013518838733</ele><time>2012-04-26T04:13:11Z</time></trkpt><trkpt lat="32.74026168" lon="35.05058798"><ele>506.18011753927016</ele><time>2012-04-26T04:13:14Z</time></trkpt><trkpt lat="32.74033261" lon="35.05068688"><ele>505.43105716153</ele><time>2012-04-26T04:13:17Z</time></trkpt><trkpt lat="32.74050255" lon="35.05072578"><ele>503.5431053122609</ele><time>2012-04-26T04:13:20Z</time></trkpt><trkpt lat="32.74049837" lon="35.05059618"><ele>503.3058939694412</ele><time>2012-04-26T04:13:23Z</time></trkpt><trkpt lat="32.74053583" lon="35.05048867"><ele>502.6122914100597</ele><time>2012-04-26T04:13:26Z</time></trkpt><trkpt lat="32.74057271" lon="35.0504163"><ele>501.94121668939886</ele><time>2012-04-26T04:13:29Z</time></trkpt><trkpt lat="32.74060713" lon="35.05036011"><ele>501.6720236621619</ele><time>2012-04-26T04:13:32Z</time></trkpt><trkpt lat="32.74063968" lon="35.05036471"><ele>501.2564478672805</ele><time>2012-04-26T04:13:36Z</time></trkpt><trkpt lat="32.74067232" lon="35.05039851"><ele>500.705586516327</ele><time>2012-04-26T04:13:39Z</time></trkpt><trkpt lat="32.74070218" lon="35.05039392"><ele>500.3434485548892</ele><time>2012-04-26T04:13:42Z</time></trkpt><trkpt lat="32.7407229" lon="35.05037309"><ele>500.1883151687353</ele><time>2012-04-26T04:13:51Z</time></trkpt><trkpt lat="32.74072095" lon="35.05034082"><ele>500.38226298575495</ele><time>2012-04-26T04:14:02Z</time></trkpt><trkpt lat="32.74070855" lon="35.05031185"><ele>500.67580843244696</ele><time>2012-04-26T04:14:19Z</time></trkpt><trkpt lat="32.74073762" lon="35.05032818"><ele>500.2541695648212</ele><time>2012-04-26T04:14:25Z</time></trkpt><trkpt lat="32.7407507" lon="35.05038594"><ele>499.76811726860376</ele><time>2012-04-26T04:14:28Z</time></trkpt><trkpt lat="32.74077173" lon="35.05042137"><ele>499.33804618259495</ele><time>2012-04-26T04:14:31Z</time></trkpt><trkpt lat="32.74078542" lon="35.05044946"><ele>499.3111153382798</ele><time>2012-04-26T04:14:35Z</time></trkpt><trkpt lat="32.7408134" lon="35.05044374"><ele>498.9193430953335</ele><time>2012-04-26T04:15:07Z</time></trkpt><trkpt lat="32.74083968" lon="35.05043173"><ele>498.50770533354915</ele><time>2012-04-26T04:15:16Z</time></trkpt><trkpt lat="32.74086837" lon="35.05042127"><ele>498.0669940074746</ele><time>2012-04-26T04:15:19Z</time></trkpt><trkpt lat="32.74089591" lon="35.05043197"><ele>497.7768399149476</ele><time>2012-04-26T04:15:26Z</time></trkpt><trkpt lat="32.74089867" lon="35.05047139"><ele>498.0070850700145</ele><time>2012-04-26T04:15:37Z</time></trkpt><trkpt lat="32.74091995" lon="35.05050061"><ele>497.9440806717172</ele><time>2012-04-26T04:15:42Z</time></trkpt><trkpt lat="32.74093043" lon="35.05053677"><ele>498.0732860149565</ele><time>2012-04-26T04:15:47Z</time></trkpt><trkpt lat="32.74095905" lon="35.05050787"><ele>497.51984577375566</ele><time>2012-04-26T04:16:11Z</time></trkpt><trkpt lat="32.74100055" lon="35.05046136"><ele>496.646994375996</ele><time>2012-04-26T04:16:14Z</time></trkpt><trkpt lat="32.74109807" lon="35.05041696"><ele>495.00813059723004</ele><time>2012-04-26T04:16:17Z</time></trkpt><trkpt lat="32.74115707" lon="35.05037405"><ele>494.77192085980784</ele><time>2012-04-26T04:16:20Z</time></trkpt><trkpt lat="32.74124423" lon="35.05031787"><ele>494.4889854177679</ele><time>2012-04-26T04:16:23Z</time></trkpt><trkpt lat="32.74131714" lon="35.05027949"><ele>494.263494458311</ele><time>2012-04-26T04:16:26Z</time></trkpt><trkpt lat="32.74140319" lon="35.05027603"><ele>493.401739547314</ele><time>2012-04-26T04:16:29Z</time></trkpt><trkpt lat="32.74148786" lon="35.05029001"><ele>492.2983502375618</ele><time>2012-04-26T04:16:32Z</time></trkpt><trkpt lat="32.74156735" lon="35.05029582"><ele>491.3680369918232</ele><time>2012-04-26T04:16:35Z</time></trkpt><trkpt lat="32.7416486" lon="35.05028242"><ele>490.7053274374161</ele><time>2012-04-26T04:16:38Z</time></trkpt><trkpt lat="32.74172315" lon="35.05026477"><ele>490.1807846660231</ele><time>2012-04-26T04:16:41Z</time></trkpt><trkpt lat="32.74178487" lon="35.05025465"><ele>489.68123130922737</ele><time>2012-04-26T04:16:44Z</time></trkpt><trkpt lat="32.7418778" lon="35.05024822"><ele>488.797673175682</ele><time>2012-04-26T04:16:47Z</time></trkpt><trkpt lat="32.74199167" lon="35.05021052"><ele>488.17864162822633</ele><time>2012-04-26T04:16:50Z</time></trkpt><trkpt lat="32.74206968" lon="35.05015751"><ele>488.18520477133103</ele><time>2012-04-26T04:16:53Z</time></trkpt><trkpt lat="32.74215313" lon="35.05011743"><ele>487.01430096650944</ele><time>2012-04-26T04:16:56Z</time></trkpt><trkpt lat="32.74225282" lon="35.05009491"><ele>484.915576967101</ele><time>2012-04-26T04:16:59Z</time></trkpt><trkpt lat="32.74234975" lon="35.05010669"><ele>482.4571248241596</ele><time>2012-04-26T04:17:02Z</time></trkpt><trkpt lat="32.74245188" lon="35.0501063"><ele>480.0147148044626</ele><time>2012-04-26T04:17:05Z</time></trkpt><trkpt lat="32.74252925" lon="35.05011864"><ele>478.09591386756387</ele><time>2012-04-26T04:17:08Z</time></trkpt><trkpt lat="32.74256992" lon="35.05015017"><ele>476.9950093813453</ele><time>2012-04-26T04:17:11Z</time></trkpt><trkpt lat="32.74260131" lon="35.05020378"><ele>476.0783956882874</ele><time>2012-04-26T04:17:14Z</time></trkpt><trkpt lat="32.74267579" lon="35.05020434"><ele>474.4607221937324</ele><time>2012-04-26T04:17:17Z</time></trkpt><trkpt lat="32.742767" lon="35.05018793"><ele>472.4797052212046</ele><time>2012-04-26T04:17:20Z</time></trkpt><trkpt lat="32.74286091" lon="35.05016146"><ele>470.34581505784655</ele><time>2012-04-26T04:17:23Z</time></trkpt><trkpt lat="32.74294549" lon="35.05016078"><ele>468.4804737841249</ele><time>2012-04-26T04:17:26Z</time></trkpt><trkpt lat="32.74300496" lon="35.05019458"><ele>467.427799153639</ele><time>2012-04-26T04:17:29Z</time></trkpt><trkpt lat="32.74306228" lon="35.05024139"><ele>466.58289998609104</ele><time>2012-04-26T04:17:32Z</time></trkpt><trkpt lat="32.74315138" lon="35.05029708"><ele>465.34209732228203</ele><time>2012-04-26T04:17:35Z</time></trkpt><trkpt lat="32.74322854" lon="35.05036495"><ele>464.6234343668284</ele><time>2012-04-26T04:17:38Z</time></trkpt><trkpt lat="32.74327619" lon="35.0504479"><ele>465.2791767850066</ele><time>2012-04-26T04:17:41Z</time></trkpt><trkpt lat="32.74334464" lon="35.05053136"><ele>466.47047808969114</ele><time>2012-04-26T04:17:44Z</time></trkpt><trkpt lat="32.74340117" lon="35.05057917"><ele>466.7680989431821</ele><time>2012-04-26T04:17:47Z</time></trkpt><trkpt lat="32.74340359" lon="35.05062389"><ele>467.9137129818205</ele><time>2012-04-26T04:17:51Z</time></trkpt><trkpt lat="32.74342728" lon="35.05066769"><ele>468.623083601191</ele><time>2012-04-26T04:17:54Z</time></trkpt><trkpt lat="32.74346793" lon="35.05071651"><ele>469.0948140493712</ele><time>2012-04-26T04:17:57Z</time></trkpt><trkpt lat="32.74349273" lon="35.05075009"><ele>469.45058542123206</ele><time>2012-04-26T04:18:00Z</time></trkpt><trkpt lat="32.74349087" lon="35.05080464"><ele>470.870363629367</ele><time>2012-04-26T04:18:03Z</time></trkpt><trkpt lat="32.74345682" lon="35.05090334"><ele>474.1403855845064</ele><time>2012-04-26T04:18:06Z</time></trkpt><trkpt lat="32.74345643" lon="35.05097718"><ele>476.05629854854385</ele><time>2012-04-26T04:18:09Z</time></trkpt><trkpt lat="32.7434662" lon="35.05104775"><ele>477.6377408792629</ele><time>2012-04-26T04:18:12Z</time></trkpt><trkpt lat="32.74346884" lon="35.05114561"><ele>480.0825477886432</ele><time>2012-04-26T04:18:15Z</time></trkpt><trkpt lat="32.74346663" lon="35.0512276"><ele>482.2457681718878</ele><time>2012-04-26T04:18:18Z</time></trkpt><trkpt lat="32.74350156" lon="35.05133417"><ele>482.4930801193626</ele><time>2012-04-26T04:18:21Z</time></trkpt><trkpt lat="32.74353252" lon="35.0514598"><ele>482.57871131655355</ele><time>2012-04-26T04:18:24Z</time></trkpt><trkpt lat="32.74355332" lon="35.05155943"><ele>482.743900515959</ele><time>2012-04-26T04:18:27Z</time></trkpt><trkpt lat="32.7435716" lon="35.05161"><ele>482.6083225587223</ele><time>2012-04-26T04:18:30Z</time></trkpt><trkpt lat="32.74356855" lon="35.05164197"><ele>482.93262105619937</ele><time>2012-04-26T04:18:52Z</time></trkpt><trkpt lat="32.74355075" lon="35.05168035"><ele>483.7212960208894</ele><time>2012-04-26T04:18:55Z</time></trkpt><trkpt lat="32.74352864" lon="35.05173852"><ele>484.7825998523678</ele><time>2012-04-26T04:18:58Z</time></trkpt><trkpt lat="32.74350742" lon="35.05178569"><ele>485.7393006583215</ele><time>2012-04-26T04:19:01Z</time></trkpt><trkpt lat="32.74349269" lon="35.05182253"><ele>486.4361094787302</ele><time>2012-04-26T04:19:04Z</time></trkpt><trkpt lat="32.74347231" lon="35.05184526"><ele>487.1881447579189</ele><time>2012-04-26T04:19:08Z</time></trkpt><trkpt lat="32.74344327" lon="35.05186329"><ele>488.15232079486054</ele><time>2012-04-26T04:19:11Z</time></trkpt><trkpt lat="32.7434013" lon="35.05189147"><ele>489.5648040469244</ele><time>2012-04-26T04:19:14Z</time></trkpt><trkpt lat="32.74336443" lon="35.05191544"><ele>490.8023661279913</ele><time>2012-04-26T04:19:17Z</time></trkpt><trkpt lat="32.74334369" lon="35.05195573"><ele>491.7083250238197</ele><time>2012-04-26T04:19:20Z</time></trkpt><trkpt lat="32.74333025" lon="35.05200635"><ele>492.4879881928186</ele><time>2012-04-26T04:19:23Z</time></trkpt><trkpt lat="32.74330299" lon="35.05202851"><ele>493.4438705262531</ele><time>2012-04-26T04:19:26Z</time></trkpt><trkpt lat="32.74327109" lon="35.05203106"><ele>494.3801907190067</ele><time>2012-04-26T04:19:29Z</time></trkpt><trkpt lat="32.74328233" lon="35.05199988"><ele>493.81183078542625</ele><time>2012-04-26T04:19:35Z</time></trkpt><trkpt lat="32.74330947" lon="35.05200134"><ele>493.044898445483</ele><time>2012-04-26T04:19:38Z</time></trkpt><trkpt lat="32.7433171" lon="35.0520524"><ele>493.22551690125647</ele><time>2012-04-26T04:19:41Z</time></trkpt><trkpt lat="32.74330956" lon="35.05208327"><ele>493.68417583065747</ele><time>2012-04-26T04:19:44Z</time></trkpt><trkpt lat="32.74333656" lon="35.05210372"><ele>492.9448099693025</ele><time>2012-04-26T04:21:20Z</time></trkpt><trkpt lat="32.74339333" lon="35.05212338"><ele>491.382238236158</ele><time>2012-04-26T04:21:23Z</time></trkpt><trkpt lat="32.7434631" lon="35.05214344"><ele>489.4944614925334</ele><time>2012-04-26T04:21:26Z</time></trkpt><trkpt lat="32.74354545" lon="35.05215377"><ele>487.2544881273511</ele><time>2012-04-26T04:21:29Z</time></trkpt><trkpt lat="32.74362411" lon="35.05214264"><ele>485.00554471717015</ele><time>2012-04-26T04:21:32Z</time></trkpt><trkpt lat="32.74369312" lon="35.05211923"><ele>482.9073338487361</ele><time>2012-04-26T04:21:35Z</time></trkpt><trkpt lat="32.74373897" lon="35.05208501"><ele>481.33145505959743</ele><time>2012-04-26T04:21:38Z</time></trkpt><trkpt lat="32.74379892" lon="35.05203534"><ele>480.4027275953571</ele><time>2012-04-26T04:21:41Z</time></trkpt><trkpt lat="32.74384995" lon="35.0519791"><ele>479.6947495231781</ele><time>2012-04-26T04:21:44Z</time></trkpt><trkpt lat="32.74386713" lon="35.05192982"><ele>479.203016678702</ele><time>2012-04-26T04:21:47Z</time></trkpt><trkpt lat="32.74389255" lon="35.0518519"><ele>478.4119060832155</ele><time>2012-04-26T04:21:50Z</time></trkpt><trkpt lat="32.74392247" lon="35.05178316"><ele>477.63814555660645</ele><time>2012-04-26T04:21:53Z</time></trkpt><trkpt lat="32.74394827" lon="35.05175011"><ele>477.173405029044</ele><time>2012-04-26T04:21:56Z</time></trkpt><trkpt lat="32.74398784" lon="35.0517447"><ele>476.8403160247692</ele><time>2012-04-26T04:22:01Z</time></trkpt><trkpt lat="32.74403821" lon="35.05169121"><ele>475.97960416472296</ele><time>2012-04-26T04:22:05Z</time></trkpt><trkpt lat="32.74410591" lon="35.05163485"><ele>474.9132901363674</ele><time>2012-04-26T04:22:08Z</time></trkpt><trkpt lat="32.74420644" lon="35.051559"><ele>473.3107357111755</ele><time>2012-04-26T04:22:11Z</time></trkpt><trkpt lat="32.74429294" lon="35.05148238"><ele>471.71779645906327</ele><time>2012-04-26T04:22:14Z</time></trkpt><trkpt lat="32.74437632" lon="35.05141357"><ele>470.15106756849104</ele><time>2012-04-26T04:22:17Z</time></trkpt><trkpt lat="32.74447915" lon="35.05134753"><ele>468.3394167956593</ele><time>2012-04-26T04:22:20Z</time></trkpt><trkpt lat="32.7446415" lon="35.05125872"><ele>466.1136432249876</ele><time>2012-04-26T04:22:23Z</time></trkpt><trkpt lat="32.74470644" lon="35.0512102"><ele>465.29228391372294</ele><time>2012-04-26T04:22:26Z</time></trkpt><trkpt lat="32.74474763" lon="35.05114909"><ele>464.2535201143496</ele><time>2012-04-26T04:22:29Z</time></trkpt><trkpt lat="32.74479245" lon="35.05110268"><ele>463.52635341515963</ele><time>2012-04-26T04:22:32Z</time></trkpt><trkpt lat="32.74482531" lon="35.05104103"><ele>462.57029475317194</ele><time>2012-04-26T04:22:35Z</time></trkpt><trkpt lat="32.74486477" lon="35.050942"><ele>461.0849823226913</ele><time>2012-04-26T04:22:38Z</time></trkpt><trkpt lat="32.74493804" lon="35.05083365"><ele>459.70737802961764</ele><time>2012-04-26T04:22:41Z</time></trkpt><trkpt lat="32.74497152" lon="35.05069551"><ele>457.83342159718774</ele><time>2012-04-26T04:22:44Z</time></trkpt><trkpt lat="32.74499826" lon="35.05050586"><ele>455.2694678621374</ele><time>2012-04-26T04:22:47Z</time></trkpt><trkpt lat="32.74499869" lon="35.05034537"><ele>452.6606335295798</ele><time>2012-04-26T04:22:50Z</time></trkpt><trkpt lat="32.74502697" lon="35.05019004"><ele>450.08766327224475</ele><time>2012-04-26T04:22:53Z</time></trkpt><trkpt lat="32.74511793" lon="35.0501425"><ele>450.2654218196688</ele><time>2012-04-26T04:22:56Z</time></trkpt><trkpt lat="32.7451974" lon="35.05004059"><ele>449.43452424454256</ele><time>2012-04-26T04:22:59Z</time></trkpt><trkpt lat="32.7452589" lon="35.04988893"><ele>447.653281365367</ele><time>2012-04-26T04:23:02Z</time></trkpt><trkpt lat="32.74534805" lon="35.04974986"><ele>446.60966683403797</ele><time>2012-04-26T04:23:05Z</time></trkpt><trkpt lat="32.74541748" lon="35.04959228"><ele>445.1336910426337</ele><time>2012-04-26T04:23:08Z</time></trkpt><trkpt lat="32.74549379" lon="35.04951095"><ele>442.36007199952087</ele><time>2012-04-26T04:23:11Z</time></trkpt><trkpt lat="32.74551373" lon="35.04953585"><ele>442.9336239995006</ele><time>2012-04-26T04:23:14Z</time></trkpt><trkpt lat="32.74550768" lon="35.04950318"><ele>442.03628799958966</ele><time>2012-04-26T04:23:19Z</time></trkpt><trkpt lat="32.7455422" lon="35.04950582"><ele>441.8637759995384</ele><time>2012-04-26T04:23:34Z</time></trkpt><trkpt lat="32.74561579" lon="35.04952234"><ele>441.8097039996176</ele><time>2012-04-26T04:23:37Z</time></trkpt><trkpt lat="32.74565909" lon="35.0496159"><ele>443.7398546300474</ele><time>2012-04-26T04:23:40Z</time></trkpt><trkpt lat="32.74566365" lon="35.04971456"><ele>445.1755128965822</ele><time>2012-04-26T04:23:43Z</time></trkpt><trkpt lat="32.74564289" lon="35.04985029"><ele>447.3617875376092</ele><time>2012-04-26T04:23:46Z</time></trkpt><trkpt lat="32.74561411" lon="35.05004514"><ele>450.5199917341789</ele><time>2012-04-26T04:23:49Z</time></trkpt><trkpt lat="32.74562206" lon="35.05022197"><ele>453.10612546368094</ele><time>2012-04-26T04:23:52Z</time></trkpt><trkpt lat="32.74562851" lon="35.0503486"><ele>454.94599207155403</ele><time>2012-04-26T04:23:55Z</time></trkpt><trkpt lat="32.74567922" lon="35.05041171"><ele>455.40591200059436</ele><time>2012-04-26T04:23:58Z</time></trkpt><trkpt lat="32.74573671" lon="35.05036011"><ele>454.09742968150715</ele><time>2012-04-26T04:24:01Z</time></trkpt><trkpt lat="32.74578962" lon="35.05035717"><ele>453.55540570211593</ele><time>2012-04-26T04:24:04Z</time></trkpt><trkpt lat="32.74581698" lon="35.05026333"><ele>451.94172221026804</ele><time>2012-04-26T04:24:07Z</time></trkpt><trkpt lat="32.74586724" lon="35.05016893"><ele>450.1312797820056</ele><time>2012-04-26T04:24:10Z</time></trkpt><trkpt lat="32.74605498" lon="35.04998427"><ele>445.9216971252971</ele><time>2012-04-26T04:24:13Z</time></trkpt><trkpt lat="32.746195" lon="35.04991988"><ele>443.89172499123737</ele><time>2012-04-26T04:24:16Z</time></trkpt><trkpt lat="32.74632831" lon="35.04987841"><ele>441.69678480018723</ele><time>2012-04-26T04:24:19Z</time></trkpt><trkpt lat="32.74646964" lon="35.04980513"><ele>438.288862454521</ele><time>2012-04-26T04:24:22Z</time></trkpt><trkpt lat="32.74661549" lon="35.04974313"><ele>434.66254256555084</ele><time>2012-04-26T04:24:25Z</time></trkpt><trkpt lat="32.74672011" lon="35.0497258"><ele>432.4476440798583</ele><time>2012-04-26T04:24:28Z</time></trkpt><trkpt lat="32.74681078" lon="35.04974076"><ele>431.1636282268856</ele><time>2012-04-26T04:24:31Z</time></trkpt><trkpt lat="32.74687421" lon="35.04975495"><ele>430.38257322584667</ele><time>2012-04-26T04:24:34Z</time></trkpt><trkpt lat="32.74693181" lon="35.04975969"><ele>429.49676124756616</ele><time>2012-04-26T04:24:37Z</time></trkpt><trkpt lat="32.7469668" lon="35.04969142"><ele>427.1428183109908</ele><time>2012-04-26T04:24:40Z</time></trkpt><trkpt lat="32.74706514" lon="35.04970557"><ele>425.7064471383611</ele><time>2012-04-26T04:24:43Z</time></trkpt><trkpt lat="32.74716077" lon="35.04974496"><ele>425.73552679510743</ele><time>2012-04-26T04:24:46Z</time></trkpt><trkpt lat="32.74722068" lon="35.04976972"><ele>425.86260740537335</ele><time>2012-04-26T04:24:49Z</time></trkpt><trkpt lat="32.74726426" lon="35.0498243"><ele>426.97656410535365</ele><time>2012-04-26T04:24:52Z</time></trkpt><trkpt lat="32.74733479" lon="35.04988751"><ele>428.09143364046946</ele><time>2012-04-26T04:24:55Z</time></trkpt><trkpt lat="32.74742146" lon="35.04995941"><ele>429.3168126311144</ele><time>2012-04-26T04:24:58Z</time></trkpt><trkpt lat="32.74749176" lon="35.05004297"><ele>431.03540413466686</ele><time>2012-04-26T04:25:01Z</time></trkpt><trkpt lat="32.7475642" lon="35.05012798"><ele>432.79306749461585</ele><time>2012-04-26T04:25:04Z</time></trkpt><trkpt lat="32.7476495" lon="35.05023512"><ele>435.08550063328283</ele><time>2012-04-26T04:25:07Z</time></trkpt><trkpt lat="32.74771395" lon="35.05035556"><ele>437.9607857688903</ele><time>2012-04-26T04:25:10Z</time></trkpt><trkpt lat="32.7477784" lon="35.05044007"><ele>439.41407018295797</ele><time>2012-04-26T04:25:13Z</time></trkpt><trkpt lat="32.74791632" lon="35.05058453"><ele>439.61490278350595</ele><time>2012-04-26T04:25:16Z</time></trkpt><trkpt lat="32.7479837" lon="35.05061154"><ele>438.3884620634444</ele><time>2012-04-26T04:25:19Z</time></trkpt><trkpt lat="32.74806718" lon="35.05066381"><ele>437.1688621310703</ele><time>2012-04-26T04:25:22Z</time></trkpt><trkpt lat="32.74812425" lon="35.05072517"><ele>436.74492797964837</ele><time>2012-04-26T04:25:25Z</time></trkpt><trkpt lat="32.74817599" lon="35.05078596"><ele>436.5272074295278</ele><time>2012-04-26T04:25:28Z</time></trkpt><trkpt lat="32.74820256" lon="35.05088403"><ele>437.39865440927844</ele><time>2012-04-26T04:25:31Z</time></trkpt><trkpt lat="32.74818913" lon="35.0509981"><ele>439.22504514278353</ele><time>2012-04-26T04:25:34Z</time></trkpt><trkpt lat="32.74815822" lon="35.05105331"><ele>440.4605597771361</ele><time>2012-04-26T04:25:37Z</time></trkpt><trkpt lat="32.7481308" lon="35.05105926"><ele>440.95233033401894</ele><time>2012-04-26T04:25:42Z</time></trkpt><trkpt lat="32.74809662" lon="35.05105358"><ele>441.39504048893957</ele><time>2012-04-26T04:26:05Z</time></trkpt><trkpt lat="32.7480724" lon="35.05106824"><ele>441.9379355230889</ele><time>2012-04-26T04:26:08Z</time></trkpt><trkpt lat="32.74804304" lon="35.0510532"><ele>442.20029489073494</ele><time>2012-04-26T04:26:13Z</time></trkpt><trkpt lat="32.74802825" lon="35.05102185"><ele>442.0675094372256</ele><time>2012-04-26T04:26:17Z</time></trkpt><trkpt lat="32.74801154" lon="35.05098876"><ele>441.961026199158</ele><time>2012-04-26T04:26:22Z</time></trkpt><trkpt lat="32.7479946" lon="35.05096299"><ele>441.95520048659563</ele><time>2012-04-26T04:26:26Z</time></trkpt><trkpt lat="32.7479735" lon="35.05094117"><ele>442.07521087998276</ele><time>2012-04-26T04:27:51Z</time></trkpt><trkpt lat="32.74796777" lon="35.05090924"><ele>441.8396266847863</ele><time>2012-04-26T04:28:04Z</time></trkpt><trkpt lat="32.74799213" lon="35.05092558"><ele>441.59221605588766</ele><time>2012-04-26T04:28:37Z</time></trkpt><trkpt lat="32.74796598" lon="35.05090067"><ele>441.7818022317424</ele><time>2012-04-26T04:29:17Z</time></trkpt><trkpt lat="32.74792756" lon="35.05085438"><ele>442.00306360985286</ele><time>2012-04-26T04:29:20Z</time></trkpt><trkpt lat="32.74786766" lon="35.05079517"><ele>442.20555297226275</ele><time>2012-04-26T04:29:23Z</time></trkpt><trkpt lat="32.74777996" lon="35.05074992"><ele>442.7411887075849</ele><time>2012-04-26T04:29:26Z</time></trkpt><trkpt lat="32.74770355" lon="35.05077076"><ele>443.84147796855797</ele><time>2012-04-26T04:29:29Z</time></trkpt><trkpt lat="32.74764471" lon="35.05082709"><ele>445.18887400390986</ele><time>2012-04-26T04:29:32Z</time></trkpt><trkpt lat="32.74758825" lon="35.05086812"><ele>446.3736598616281</ele><time>2012-04-26T04:29:35Z</time></trkpt><trkpt lat="32.74753207" lon="35.05089992"><ele>447.47565384606025</ele><time>2012-04-26T04:29:38Z</time></trkpt><trkpt lat="32.74747958" lon="35.05091604"><ele>448.35135983713667</ele><time>2012-04-26T04:29:41Z</time></trkpt><trkpt lat="32.74741651" lon="35.05092148"><ele>449.2290009145019</ele><time>2012-04-26T04:29:44Z</time></trkpt><trkpt lat="32.74735084" lon="35.050928"><ele>450.16152094634714</ele><time>2012-04-26T04:29:47Z</time></trkpt><trkpt lat="32.74729078" lon="35.05093324"><ele>451.0100053641827</ele><time>2012-04-26T04:29:50Z</time></trkpt><trkpt lat="32.74723432" lon="35.05091432"><ele>451.44308688407216</ele><time>2012-04-26T04:29:53Z</time></trkpt><trkpt lat="32.7471894" lon="35.05088412"><ele>451.53387428525366</ele><time>2012-04-26T04:29:56Z</time></trkpt><trkpt lat="32.74715114" lon="35.0508571"><ele>451.5716763071118</ele><time>2012-04-26T04:29:59Z</time></trkpt><trkpt lat="32.7471088" lon="35.05084592"><ele>451.9030865298214</ele><time>2012-04-26T04:30:02Z</time></trkpt><trkpt lat="32.74704708" lon="35.05084689"><ele>452.3778928302168</ele><time>2012-04-26T04:30:05Z</time></trkpt><trkpt lat="32.74697265" lon="35.05083397"><ele>452.47526157595416</ele><time>2012-04-26T04:30:08Z</time></trkpt><trkpt lat="32.74692364" lon="35.05079112"><ele>451.99064993115803</ele><time>2012-04-26T04:30:11Z</time></trkpt><trkpt lat="32.74689771" lon="35.0507338"><ele>451.18727306279476</ele><time>2012-04-26T04:30:14Z</time></trkpt><trkpt lat="32.7468855" lon="35.05067734"><ele>450.3435301417845</ele><time>2012-04-26T04:30:17Z</time></trkpt><trkpt lat="32.7468542" lon="35.05066713"><ele>450.3346613660953</ele><time>2012-04-26T04:30:20Z</time></trkpt><trkpt lat="32.74680117" lon="35.05062017"><ele>449.86377650665275</ele><time>2012-04-26T04:30:23Z</time></trkpt><trkpt lat="32.74677328" lon="35.05059373"><ele>449.5978199880129</ele><time>2012-04-26T04:30:26Z</time></trkpt><trkpt lat="32.74672586" lon="35.05058206"><ele>449.6680335887305</ele><time>2012-04-26T04:30:29Z</time></trkpt><trkpt lat="32.74665319" lon="35.05054956"><ele>449.56652305577956</ele><time>2012-04-26T04:30:32Z</time></trkpt><trkpt lat="32.74656973" lon="35.0505723"><ele>450.3509459886185</ele><time>2012-04-26T04:30:36Z</time></trkpt><trkpt lat="32.74653056" lon="35.05061341"><ele>451.15210869678475</ele><time>2012-04-26T04:30:42Z</time></trkpt><trkpt lat="32.74649077" lon="35.05061641"><ele>451.3997503136047</ele><time>2012-04-26T04:30:45Z</time></trkpt><trkpt lat="32.74634263" lon="35.05056779"><ele>451.4995217542128</ele><time>2012-04-26T04:30:48Z</time></trkpt><trkpt lat="32.74646631" lon="35.05065792"><ele>452.11212539617605</ele><time>2012-04-26T04:30:51Z</time></trkpt><trkpt lat="32.74638069" lon="35.05061919"><ele>452.00350878485534</ele><time>2012-04-26T04:30:54Z</time></trkpt><trkpt lat="32.74628084" lon="35.05059165"><ele>452.14805281886936</ele><time>2012-04-26T04:30:57Z</time></trkpt><trkpt lat="32.74605353" lon="35.05061365"><ele>454.31910231632907</ele><time>2012-04-26T04:31:00Z</time></trkpt><trkpt lat="32.74602091" lon="35.05064388"><ele>454.9736140523359</ele><time>2012-04-26T04:31:03Z</time></trkpt><trkpt lat="32.74592974" lon="35.05072395"><ele>456.70550237856384</ele><time>2012-04-26T04:31:06Z</time></trkpt><trkpt lat="32.74591027" lon="35.05080349"><ele>457.79976107794636</ele><time>2012-04-26T04:31:09Z</time></trkpt><trkpt lat="32.74586205" lon="35.05081007"><ele>458.25792204312427</ele><time>2012-04-26T04:31:12Z</time></trkpt><trkpt lat="32.74582893" lon="35.05076929"><ele>458.05547025709507</ele><time>2012-04-26T04:31:15Z</time></trkpt><trkpt lat="32.74581155" lon="35.05073354"><ele>457.7916569511061</ele><time>2012-04-26T04:31:18Z</time></trkpt><trkpt lat="32.74584842" lon="35.05077425"><ele>457.9549232784572</ele><time>2012-04-26T04:31:21Z</time></trkpt><trkpt lat="32.74586257" lon="35.05080201"><ele>458.1609117870365</ele><time>2012-04-26T04:31:25Z</time></trkpt><trkpt lat="32.74585899" lon="35.05083846"><ele>458.608890222562</ele><time>2012-04-26T04:31:33Z</time></trkpt><trkpt lat="32.74585335" lon="35.05087076"><ele>459.0237703580027</ele><time>2012-04-26T04:31:38Z</time></trkpt><trkpt lat="32.74583928" lon="35.05089907"><ele>459.4547027479188</ele><time>2012-04-26T04:31:41Z</time></trkpt><trkpt lat="32.74581708" lon="35.05095099"><ele>460.2098008069338</ele><time>2012-04-26T04:31:44Z</time></trkpt><trkpt lat="32.74580377" lon="35.05098266"><ele>460.6638469530777</ele><time>2012-04-26T04:31:50Z</time></trkpt><trkpt lat="32.74577538" lon="35.05101507"><ele>461.22833469814765</ele><time>2012-04-26T04:31:53Z</time></trkpt><trkpt lat="32.74573233" lon="35.05101117"><ele>461.487567743995</ele><time>2012-04-26T04:31:58Z</time></trkpt><trkpt lat="32.74568472" lon="35.05102317"><ele>461.95144503680723</ele><time>2012-04-26T04:32:01Z</time></trkpt><trkpt lat="32.74561977" lon="35.05103994"><ele>462.58049601088743</ele><time>2012-04-26T04:32:04Z</time></trkpt><trkpt lat="32.74555005" lon="35.05104"><ele>463.0626946392365</ele><time>2012-04-26T04:32:07Z</time></trkpt><trkpt lat="32.74549429" lon="35.05103981"><ele>463.4459523979507</ele><time>2012-04-26T04:32:10Z</time></trkpt><trkpt lat="32.74543433" lon="35.05102451"><ele>463.71210984943195</ele><time>2012-04-26T04:32:13Z</time></trkpt><trkpt lat="32.74537969" lon="35.05098369"><ele>463.3299836091429</ele><time>2012-04-26T04:32:16Z</time></trkpt><trkpt lat="32.74532826" lon="35.05095639"><ele>462.8823184217151</ele><time>2012-04-26T04:32:19Z</time></trkpt><trkpt lat="32.74526078" lon="35.0509445"><ele>462.5185787002309</ele><time>2012-04-26T04:32:22Z</time></trkpt><trkpt lat="32.74518974" lon="35.05092119"><ele>461.98385047569474</ele><time>2012-04-26T04:32:25Z</time></trkpt><trkpt lat="32.74513405" lon="35.0508982"><ele>461.4773492602337</ele><time>2012-04-26T04:32:28Z</time></trkpt><trkpt lat="32.74507642" lon="35.05088326"><ele>461.04180663906385</ele><time>2012-04-26T04:32:31Z</time></trkpt><trkpt lat="32.74502583" lon="35.05088214"><ele>460.8122770096569</ele><time>2012-04-26T04:32:34Z</time></trkpt><trkpt lat="32.7449816" lon="35.05089682"><ele>460.83934514123894</ele><time>2012-04-26T04:32:37Z</time></trkpt><trkpt lat="32.74494004" lon="35.05094443"><ele>461.388722822176</ele><time>2012-04-26T04:32:40Z</time></trkpt><trkpt lat="32.74490981" lon="35.05100215"><ele>462.17344662544673</ele><time>2012-04-26T04:32:43Z</time></trkpt><trkpt lat="32.74488464" lon="35.05103918"><ele>462.684023350729</ele><time>2012-04-26T04:32:46Z</time></trkpt><trkpt lat="32.74485162" lon="35.05108188"><ele>463.2916981621357</ele><time>2012-04-26T04:32:49Z</time></trkpt><trkpt lat="32.74481415" lon="35.05112359"><ele>463.90905320081595</ele><time>2012-04-26T04:32:52Z</time></trkpt><trkpt lat="32.74477237" lon="35.05116588"><ele>464.5680843253542</ele><time>2012-04-26T04:32:55Z</time></trkpt><trkpt lat="32.74474192" lon="35.05120707"><ele>465.25417360633344</ele><time>2012-04-26T04:32:58Z</time></trkpt><trkpt lat="32.74476319" lon="35.05124138"><ele>465.85235619812977</ele><time>2012-04-26T04:33:01Z</time></trkpt><trkpt lat="32.7447364" lon="35.05126843"><ele>466.23515146562835</ele><time>2012-04-26T04:33:07Z</time></trkpt><trkpt lat="32.74468717" lon="35.0513028"><ele>466.68117018053</ele><time>2012-04-26T04:33:10Z</time></trkpt><trkpt lat="32.74463041" lon="35.05134439"><ele>467.2331505276341</ele><time>2012-04-26T04:33:13Z</time></trkpt><trkpt lat="32.74460006" lon="35.05138974"><ele>467.83783633227915</ele><time>2012-04-26T04:33:16Z</time></trkpt><trkpt lat="32.74457354" lon="35.05147293"><ele>469.0327247591368</ele><time>2012-04-26T04:33:19Z</time></trkpt><trkpt lat="32.74455007" lon="35.05153072"><ele>469.9975166821295</ele><time>2012-04-26T04:33:22Z</time></trkpt><trkpt lat="32.74454253" lon="35.05158956"><ele>470.82311070418723</ele><time>2012-04-26T04:33:25Z</time></trkpt><trkpt lat="32.74452358" lon="35.05162943"><ele>471.49057210691416</ele><time>2012-04-26T04:33:28Z</time></trkpt><trkpt lat="32.74450766" lon="35.05170035"><ele>472.51651970244535</ele><time>2012-04-26T04:33:31Z</time></trkpt><trkpt lat="32.74448547" lon="35.05176243"><ele>473.4599336223283</ele><time>2012-04-26T04:33:34Z</time></trkpt><trkpt lat="32.74445919" lon="35.051831"><ele>474.4906316072555</ele><time>2012-04-26T04:33:37Z</time></trkpt><trkpt lat="32.74443582" lon="35.05188468"><ele>475.2968289099916</ele><time>2012-04-26T04:33:40Z</time></trkpt><trkpt lat="32.74441929" lon="35.05192039"><ele>475.8290103255566</ele><time>2012-04-26T04:33:43Z</time></trkpt><trkpt lat="32.74439668" lon="35.05195532"><ele>476.3781976299485</ele><time>2012-04-26T04:33:46Z</time></trkpt><trkpt lat="32.7443692" lon="35.05198062"><ele>476.8303833080785</ele><time>2012-04-26T04:33:49Z</time></trkpt><trkpt lat="32.7443387" lon="35.05199679"><ele>477.1843019648245</ele><time>2012-04-26T04:33:56Z</time></trkpt><trkpt lat="32.74429279" lon="35.05204623"><ele>477.98246090750644</ele><time>2012-04-26T04:33:59Z</time></trkpt><trkpt lat="32.74411339" lon="35.05226654"><ele>480.3153206107923</ele><time>2012-04-26T04:34:02Z</time></trkpt><trkpt lat="32.74395142" lon="35.05239811"><ele>482.220811322482</ele><time>2012-04-26T04:34:05Z</time></trkpt><trkpt lat="32.74383238" lon="35.05252534"><ele>484.0552619329204</ele><time>2012-04-26T04:34:08Z</time></trkpt><trkpt lat="32.74381091" lon="35.05254691"><ele>484.3983735247948</ele><time>2012-04-26T04:34:38Z</time></trkpt><trkpt lat="32.74378324" lon="35.05255543"><ele>484.69307404810115</ele><time>2012-04-26T04:36:05Z</time></trkpt><trkpt lat="32.74380851" lon="35.05253794"><ele>484.34633493946416</ele><time>2012-04-26T04:36:13Z</time></trkpt><trkpt lat="32.74377696" lon="35.05256061"><ele>484.78707087084763</ele><time>2012-04-26T04:37:19Z</time></trkpt><trkpt lat="32.74374654" lon="35.05260992"><ele>485.49411567955855</ele><time>2012-04-26T04:37:22Z</time></trkpt><trkpt lat="32.74371812" lon="35.05265327"><ele>486.4178058370409</ele><time>2012-04-26T04:37:25Z</time></trkpt><trkpt lat="32.74369862" lon="35.05270865"><ele>487.22348427681777</ele><time>2012-04-26T04:37:28Z</time></trkpt><trkpt lat="32.74368834" lon="35.05280902"><ele>488.16280189551134</ele><time>2012-04-26T04:37:31Z</time></trkpt><trkpt lat="32.74368713" lon="35.05288442"><ele>488.7420131902901</ele><time>2012-04-26T04:37:34Z</time></trkpt><trkpt lat="32.74369698" lon="35.05292402"><ele>488.89714258082574</ele><time>2012-04-26T04:37:38Z</time></trkpt><trkpt lat="32.74369863" lon="35.05297803"><ele>489.3859207815006</ele><time>2012-04-26T04:37:41Z</time></trkpt><trkpt lat="32.74369767" lon="35.0530197"><ele>489.7977039015707</ele><time>2012-04-26T04:37:44Z</time></trkpt><trkpt lat="32.74368906" lon="35.05308495"><ele>490.55141653070746</ele><time>2012-04-26T04:37:47Z</time></trkpt><trkpt lat="32.74367503" lon="35.0531719"><ele>491.5922178251828</ele><time>2012-04-26T04:37:50Z</time></trkpt><trkpt lat="32.74366359" lon="35.05325419"><ele>492.54622183569916</ele><time>2012-04-26T04:37:53Z</time></trkpt><trkpt lat="32.7436346" lon="35.05334101"><ele>493.8034203212024</ele><time>2012-04-26T04:37:56Z</time></trkpt><trkpt lat="32.7436146" lon="35.05342562"><ele>494.8989583138488</ele><time>2012-04-26T04:37:59Z</time></trkpt><trkpt lat="32.74359878" lon="35.05350647"><ele>495.892710312528</ele><time>2012-04-26T04:38:02Z</time></trkpt><trkpt lat="32.74358928" lon="35.05357297"><ele>496.6558512556474</ele><time>2012-04-26T04:38:05Z</time></trkpt><trkpt lat="32.74356494" lon="35.05364682"><ele>497.7018320657378</ele><time>2012-04-26T04:38:08Z</time></trkpt><trkpt lat="32.74353123" lon="35.05370842"><ele>498.76421889646303</ele><time>2012-04-26T04:38:11Z</time></trkpt><trkpt lat="32.74350683" lon="35.05376978"><ele>499.26327618044894</ele><time>2012-04-26T04:38:14Z</time></trkpt><trkpt lat="32.74346594" lon="35.05384503"><ele>498.9060742429987</ele><time>2012-04-26T04:38:17Z</time></trkpt><trkpt lat="32.74344965" lon="35.05388725"><ele>498.5919117806619</ele><time>2012-04-26T04:38:26Z</time></trkpt><trkpt lat="32.7434026" lon="35.05393144"><ele>498.6253708582109</ele><time>2012-04-26T04:38:29Z</time></trkpt><trkpt lat="32.74332046" lon="35.05398589"><ele>498.8994841574789</ele><time>2012-04-26T04:38:32Z</time></trkpt><trkpt lat="32.74325646" lon="35.05400131"><ele>499.4441621017954</ele><time>2012-04-26T04:38:35Z</time></trkpt><trkpt lat="32.74319006" lon="35.05402528"><ele>499.86671394404823</ele><time>2012-04-26T04:38:38Z</time></trkpt><trkpt lat="32.74314153" lon="35.05403686"><ele>500.24869130039144</ele><time>2012-04-26T04:38:41Z</time></trkpt><trkpt lat="32.7430985" lon="35.05403968"><ele>500.6983086770325</ele><time>2012-04-26T04:38:44Z</time></trkpt><trkpt lat="32.74306024" lon="35.05404026"><ele>501.1279338436899</ele><time>2012-04-26T04:38:47Z</time></trkpt><trkpt lat="32.74298232" lon="35.05406488"><ele>501.59513504840385</ele><time>2012-04-26T04:38:50Z</time></trkpt><trkpt lat="32.74287652" lon="35.05409038"><ele>502.19749778867805</ele><time>2012-04-26T04:38:53Z</time></trkpt><trkpt lat="32.74277713" lon="35.05408672"><ele>503.07221525935097</ele><time>2012-04-26T04:38:56Z</time></trkpt><trkpt lat="32.7426869" lon="35.05407238"><ele>504.10104850808057</ele><time>2012-04-26T04:38:59Z</time></trkpt><trkpt lat="32.74261396" lon="35.05405978"><ele>504.9761811303805</ele><time>2012-04-26T04:39:02Z</time></trkpt><trkpt lat="32.74255285" lon="35.05404563"><ele>505.8054250028474</ele><time>2012-04-26T04:39:05Z</time></trkpt><trkpt lat="32.74249046" lon="35.05402335"><ele>506.85205861493563</ele><time>2012-04-26T04:39:08Z</time></trkpt><trkpt lat="32.74243761" lon="35.05397939"><ele>508.353717881551</ele><time>2012-04-26T04:39:11Z</time></trkpt><trkpt lat="32.7424075" lon="35.05391434"><ele>510.18792729464974</ele><time>2012-04-26T04:39:14Z</time></trkpt><trkpt lat="32.74241385" lon="35.05385196"><ele>511.6079220004619</ele><time>2012-04-26T04:39:17Z</time></trkpt><trkpt lat="32.74245491" lon="35.0537913"><ele>512.5779872587498</ele><time>2012-04-26T04:39:20Z</time></trkpt><trkpt lat="32.74251011" lon="35.05374036"><ele>512.8202786270906</ele><time>2012-04-26T04:39:23Z</time></trkpt><trkpt lat="32.74255946" lon="35.05371421"><ele>512.0594822961775</ele><time>2012-04-26T04:39:26Z</time></trkpt><trkpt lat="32.74260721" lon="35.05373112"><ele>511.588541040113</ele><time>2012-04-26T04:39:29Z</time></trkpt><trkpt lat="32.74265777" lon="35.05374286"><ele>511.0574314868457</ele><time>2012-04-26T04:39:32Z</time></trkpt><trkpt lat="32.74271203" lon="35.05374669"><ele>510.43173751980385</ele><time>2012-04-26T04:39:35Z</time></trkpt><trkpt lat="32.74275515" lon="35.05375099"><ele>509.9185379333923</ele><time>2012-04-26T04:39:38Z</time></trkpt><trkpt lat="32.74280767" lon="35.0537319"><ele>509.16728355552635</ele><time>2012-04-26T04:39:41Z</time></trkpt><trkpt lat="32.74285449" lon="35.05370487"><ele>508.38319074887653</ele><time>2012-04-26T04:39:44Z</time></trkpt><trkpt lat="32.74289362" lon="35.05367617"><ele>507.6661888429704</ele><time>2012-04-26T04:39:47Z</time></trkpt><trkpt lat="32.74291985" lon="35.05363089"><ele>506.9530899987428</ele><time>2012-04-26T04:39:50Z</time></trkpt><trkpt lat="32.74292856" lon="35.05356849"><ele>506.30094338609626</ele><time>2012-04-26T04:39:53Z</time></trkpt><trkpt lat="32.74290691" lon="35.05350389"><ele>506.06358698720084</ele><time>2012-04-26T04:39:56Z</time></trkpt><trkpt lat="32.74285664" lon="35.05345187"><ele>506.31910751978603</ele><time>2012-04-26T04:39:59Z</time></trkpt><trkpt lat="32.74279656" lon="35.05340446"><ele>506.7777935467414</ele><time>2012-04-26T04:40:02Z</time></trkpt><trkpt lat="32.74273371" lon="35.05334942"><ele>507.25275138057646</ele><time>2012-04-26T04:40:05Z</time></trkpt><trkpt lat="32.74267447" lon="35.05331059"><ele>507.82831614990965</ele><time>2012-04-26T04:40:08Z</time></trkpt><trkpt lat="32.74262035" lon="35.05326842"><ele>508.3324810376858</ele><time>2012-04-26T04:40:11Z</time></trkpt><trkpt lat="32.7425749" lon="35.05323372"><ele>508.78078441625945</ele><time>2012-04-26T04:40:14Z</time></trkpt><trkpt lat="32.74253331" lon="35.05321499"><ele>509.2875699843439</ele><time>2012-04-26T04:40:17Z</time></trkpt><trkpt lat="32.74248906" lon="35.05318978"><ele>509.8052619261665</ele><time>2012-04-26T04:40:20Z</time></trkpt><trkpt lat="32.74244965" lon="35.05316361"><ele>510.25592248123394</ele><time>2012-04-26T04:40:23Z</time></trkpt><trkpt lat="32.74240426" lon="35.05314421"><ele>510.84821040623757</ele><time>2012-04-26T04:40:26Z</time></trkpt><trkpt lat="32.74235862" lon="35.05312574"><ele>511.4593653808708</ele><time>2012-04-26T04:40:29Z</time></trkpt><trkpt lat="32.74231297" lon="35.05310584"><ele>512.0733489289865</ele><time>2012-04-26T04:40:32Z</time></trkpt><trkpt lat="32.7422698" lon="35.05307818"><ele>512.6222810715337</ele><time>2012-04-26T04:40:35Z</time></trkpt><trkpt lat="32.74223356" lon="35.05306921"><ele>513.1573445994503</ele><time>2012-04-26T04:40:38Z</time></trkpt><trkpt lat="32.74219475" lon="35.05306326"><ele>513.7500137364831</ele><time>2012-04-26T04:40:41Z</time></trkpt><trkpt lat="32.74212465" lon="35.05306261"><ele>514.8660081771307</ele><time>2012-04-26T04:40:44Z</time></trkpt><trkpt lat="32.74205642" lon="35.0530605"><ele>515.5477965239148</ele><time>2012-04-26T04:40:47Z</time></trkpt><trkpt lat="32.74201025" lon="35.05305466"><ele>515.5856069782939</ele><time>2012-04-26T04:40:50Z</time></trkpt><trkpt lat="32.74195546" lon="35.05304246"><ele>515.6352406091189</ele><time>2012-04-26T04:40:53Z</time></trkpt><trkpt lat="32.74189913" lon="35.05303391"><ele>515.7120185296739</ele><time>2012-04-26T04:40:56Z</time></trkpt><trkpt lat="32.74185445" lon="35.05303956"><ele>515.7803400847968</ele><time>2012-04-26T04:40:59Z</time></trkpt><trkpt lat="32.74181922" lon="35.05302035"><ele>515.8508698735873</ele><time>2012-04-26T04:41:03Z</time></trkpt><trkpt lat="32.74178189" lon="35.05300379"><ele>515.9450197133749</ele><time>2012-04-26T04:41:06Z</time></trkpt><trkpt lat="32.74173827" lon="35.05299509"><ele>516.0569376284828</ele><time>2012-04-26T04:41:09Z</time></trkpt><trkpt lat="32.74167743" lon="35.05299855"><ele>516.1817015128842</ele><time>2012-04-26T04:41:12Z</time></trkpt><trkpt lat="32.74160477" lon="35.05300488"><ele>516.3109092758494</ele><time>2012-04-26T04:41:15Z</time></trkpt><trkpt lat="32.74154615" lon="35.05299341"><ele>516.4977638584476</ele><time>2012-04-26T04:41:18Z</time></trkpt><trkpt lat="32.74150126" lon="35.05294684"><ele>516.9005977568628</ele><time>2012-04-26T04:41:21Z</time></trkpt><trkpt lat="32.74146333" lon="35.05289368"><ele>517.1563213927227</ele><time>2012-04-26T04:41:24Z</time></trkpt><trkpt lat="32.74143256" lon="35.0528652"><ele>517.1710338857963</ele><time>2012-04-26T04:41:27Z</time></trkpt><trkpt lat="32.74141371" lon="35.05283727"><ele>517.1435331598115</ele><time>2012-04-26T04:41:30Z</time></trkpt><trkpt lat="32.74139634" lon="35.05278989"><ele>517.0434955953302</ele><time>2012-04-26T04:41:33Z</time></trkpt><trkpt lat="32.74137539" lon="35.05275095"><ele>516.9819380655439</ele><time>2012-04-26T04:41:36Z</time></trkpt><trkpt lat="32.74136206" lon="35.05269333"><ele>516.8286110329597</ele><time>2012-04-26T04:41:39Z</time></trkpt><trkpt lat="32.74133403" lon="35.05264755"><ele>516.7612359769448</ele><time>2012-04-26T04:41:42Z</time></trkpt><trkpt lat="32.74129918" lon="35.05258058"><ele>516.6368413879459</ele><time>2012-04-26T04:41:45Z</time></trkpt><trkpt lat="32.74125802" lon="35.05250221"><ele>516.483870476253</ele><time>2012-04-26T04:41:48Z</time></trkpt><trkpt lat="32.74123064" lon="35.05245635"><ele>516.2572333521363</ele><time>2012-04-26T04:41:51Z</time></trkpt><trkpt lat="32.74120081" lon="35.0524333"><ele>516.0521156058992</ele><time>2012-04-26T04:41:54Z</time></trkpt><trkpt lat="32.74118527" lon="35.05237747"><ele>515.8167150092058</ele><time>2012-04-26T04:41:57Z</time></trkpt><trkpt lat="32.74114199" lon="35.05229122"><ele>515.4247788313558</ele><time>2012-04-26T04:42:00Z</time></trkpt><trkpt lat="32.74110398" lon="35.05221056"><ele>515.1222812079641</ele><time>2012-04-26T04:42:03Z</time></trkpt><trkpt lat="32.74105862" lon="35.05213656"><ele>514.8739484709275</ele><time>2012-04-26T04:42:06Z</time></trkpt><trkpt lat="32.74100726" lon="35.05207145"><ele>514.5399470668679</ele><time>2012-04-26T04:42:09Z</time></trkpt><trkpt lat="32.7409503" lon="35.05201707"><ele>513.7210405362722</ele><time>2012-04-26T04:42:12Z</time></trkpt><trkpt lat="32.74090072" lon="35.05199389"><ele>513.3654948199196</ele><time>2012-04-26T04:42:15Z</time></trkpt><trkpt lat="32.7408623" lon="35.05200121"><ele>513.437029885414</ele><time>2012-04-26T04:42:18Z</time></trkpt><trkpt lat="32.74089268" lon="35.05201514"><ele>513.6477530085093</ele><time>2012-04-26T04:42:22Z</time></trkpt><trkpt lat="32.74092121" lon="35.05200483"><ele>513.5294719985235</ele><time>2012-04-26T04:42:25Z</time></trkpt><trkpt lat="32.74090901" lon="35.05196469"><ele>512.9730036550542</ele><time>2012-04-26T04:42:28Z</time></trkpt><trkpt lat="32.74087071" lon="35.05195283"><ele>512.7941119888635</ele><time>2012-04-26T04:42:31Z</time></trkpt><trkpt lat="32.740834" lon="35.05197442"><ele>513.0627257721302</ele><time>2012-04-26T04:42:34Z</time></trkpt><trkpt lat="32.74083298" lon="35.05201561"><ele>513.6057658298279</ele><time>2012-04-26T04:42:38Z</time></trkpt><trkpt lat="32.74085591" lon="35.05203342"><ele>513.8617451896124</ele><time>2012-04-26T04:42:41Z</time></trkpt><trkpt lat="32.74082794" lon="35.05202346"><ele>513.7050600003643</ele><time>2012-04-26T04:43:10Z</time></trkpt><trkpt lat="32.74084565" lon="35.05204838"><ele>514.0509162700761</ele><time>2012-04-26T04:43:30Z</time></trkpt><trkpt lat="32.7408864" lon="35.05205015"><ele>514.1155170489275</ele><time>2012-04-26T04:43:33Z</time></trkpt><trkpt lat="32.74093766" lon="35.05201999"><ele>513.7509956220944</ele><time>2012-04-26T04:43:36Z</time></trkpt><trkpt lat="32.74102697" lon="35.05195748"><ele>512.9307298363801</ele><time>2012-04-26T04:43:39Z</time></trkpt><trkpt lat="32.74117258" lon="35.05189759"><ele>512.0923302328714</ele><time>2012-04-26T04:43:42Z</time></trkpt><trkpt lat="32.74131491" lon="35.05193743"><ele>512.581761642296</ele><time>2012-04-26T04:43:45Z</time></trkpt><trkpt lat="32.74141607" lon="35.05204107"><ele>513.95223088669</ele><time>2012-04-26T04:43:48Z</time></trkpt><trkpt lat="32.74151632" lon="35.05217997"><ele>514.6716637601007</ele><time>2012-04-26T04:43:51Z</time></trkpt><trkpt lat="32.74172301" lon="35.05247827"><ele>515.0175430495925</ele><time>2012-04-26T04:43:54Z</time></trkpt><trkpt lat="32.74185993" lon="35.0526761"><ele>515.1495015099597</ele><time>2012-04-26T04:43:57Z</time></trkpt><trkpt lat="32.7419256" lon="35.05271501"><ele>515.0380605104225</ele><time>2012-04-26T04:44:00Z</time></trkpt><trkpt lat="32.74203806" lon="35.05272723"><ele>514.695985940803</ele><time>2012-04-26T04:44:03Z</time></trkpt><trkpt lat="32.74216723" lon="35.05278667"><ele>513.3727743186626</ele><time>2012-04-26T04:44:06Z</time></trkpt><trkpt lat="32.7422952" lon="35.05288179"><ele>511.4207787137104</ele><time>2012-04-26T04:44:09Z</time></trkpt><trkpt lat="32.7424211" lon="35.05287366"><ele>509.34781052616245</ele><time>2012-04-26T04:44:12Z</time></trkpt><trkpt lat="32.74253464" lon="35.05294412"><ele>507.58824566368264</ele><time>2012-04-26T04:44:15Z</time></trkpt><trkpt lat="32.74267827" lon="35.05295746"><ele>505.29171202959884</ele><time>2012-04-26T04:44:18Z</time></trkpt><trkpt lat="32.74280905" lon="35.0530202"><ele>503.6134625846193</ele><time>2012-04-26T04:44:21Z</time></trkpt><trkpt lat="32.74288365" lon="35.05310499"><ele>503.10078142073735</ele><time>2012-04-26T04:44:24Z</time></trkpt><trkpt lat="32.74296029" lon="35.0531981"><ele>502.70119496562626</ele><time>2012-04-26T04:44:27Z</time></trkpt><trkpt lat="32.74305503" lon="35.05322705"><ele>501.51059376755364</ele><time>2012-04-26T04:44:30Z</time></trkpt><trkpt lat="32.74313365" lon="35.05320284"><ele>500.1083325740948</ele><time>2012-04-26T04:44:33Z</time></trkpt><trkpt lat="32.74316931" lon="35.05314743"><ele>499.08112917662845</ele><time>2012-04-26T04:44:36Z</time></trkpt><trkpt lat="32.74319567" lon="35.05309709"><ele>498.2355917435022</ele><time>2012-04-26T04:44:39Z</time></trkpt><trkpt lat="32.7432312" lon="35.05305746"><ele>497.3397132419501</ele><time>2012-04-26T04:44:42Z</time></trkpt><trkpt lat="32.74328418" lon="35.05298328"><ele>495.8615970539571</ele><time>2012-04-26T04:44:45Z</time></trkpt><trkpt lat="32.74335888" lon="35.05288101"><ele>494.0228612006519</ele><time>2012-04-26T04:44:48Z</time></trkpt><trkpt lat="32.74342193" lon="35.05279717"><ele>492.73509981845456</ele><time>2012-04-26T04:44:51Z</time></trkpt><trkpt lat="32.74348699" lon="35.0527652"><ele>491.46165800722844</ele><time>2012-04-26T04:44:54Z</time></trkpt><trkpt lat="32.74358774" lon="35.05276848"><ele>489.66735713245635</ele><time>2012-04-26T04:44:57Z</time></trkpt><trkpt lat="32.74373123" lon="35.05278139"><ele>487.19670802461343</ele><time>2012-04-26T04:45:00Z</time></trkpt><trkpt lat="32.74383911" lon="35.05280715"><ele>486.18793701627516</ele><time>2012-04-26T04:45:03Z</time></trkpt><trkpt lat="32.7440347" lon="35.05288292"><ele>484.7109432662847</ele><time>2012-04-26T04:45:06Z</time></trkpt><trkpt lat="32.744087" lon="35.05287409"><ele>484.10606402308446</ele><time>2012-04-26T04:45:09Z</time></trkpt><trkpt lat="32.7442092" lon="35.05285893"><ele>482.7465432758497</ele><time>2012-04-26T04:45:12Z</time></trkpt><trkpt lat="32.74433959" lon="35.05282612"><ele>481.25621094525025</ele><time>2012-04-26T04:45:15Z</time></trkpt><trkpt lat="32.74447698" lon="35.05276082"><ele>479.6552453491054</ele><time>2012-04-26T04:45:18Z</time></trkpt><trkpt lat="32.74458459" lon="35.05275376"><ele>478.60115518267946</ele><time>2012-04-26T04:45:21Z</time></trkpt><trkpt lat="32.74470903" lon="35.05273203"><ele>477.78553530906413</ele><time>2012-04-26T04:45:24Z</time></trkpt><trkpt lat="32.74477702" lon="35.05275382"><ele>477.39630147258396</ele><time>2012-04-26T04:45:27Z</time></trkpt><trkpt lat="32.74478282" lon="35.05281444"><ele>477.43581485525385</ele><time>2012-04-26T04:45:30Z</time></trkpt><trkpt lat="32.74471491" lon="35.05289251"><ele>478.01297989223684</ele><time>2012-04-26T04:45:33Z</time></trkpt><trkpt lat="32.74460065" lon="35.05300055"><ele>478.34901113604474</ele><time>2012-04-26T04:45:36Z</time></trkpt><trkpt lat="32.74457687" lon="35.05309805"><ele>478.00345022120246</ele><time>2012-04-26T04:45:39Z</time></trkpt><trkpt lat="32.74466373" lon="35.05313692"><ele>476.81913507907666</ele><time>2012-04-26T04:45:42Z</time></trkpt><trkpt lat="32.74498994" lon="35.05317431"><ele>472.86718156685225</ele><time>2012-04-26T04:45:45Z</time></trkpt><trkpt lat="32.74514428" lon="35.05318489"><ele>470.96857368018937</ele><time>2012-04-26T04:45:48Z</time></trkpt><trkpt lat="32.7452246" lon="35.05319546"><ele>469.8782309932197</ele><time>2012-04-26T04:45:51Z</time></trkpt><trkpt lat="32.74537167" lon="35.05327351"><ele>466.72692308532754</ele><time>2012-04-26T04:45:54Z</time></trkpt><trkpt lat="32.74549868" lon="35.05346553"><ele>462.09938464005893</ele><time>2012-04-26T04:45:57Z</time></trkpt><trkpt lat="32.74562549" lon="35.05357451"><ele>459.51210234740546</ele><time>2012-04-26T04:46:00Z</time></trkpt><trkpt lat="32.74568543" lon="35.05359332"><ele>458.9194316623806</ele><time>2012-04-26T04:46:03Z</time></trkpt><trkpt lat="32.74561815" lon="35.05360764"><ele>458.92536447688485</ele><time>2012-04-26T04:46:06Z</time></trkpt><trkpt lat="32.74551555" lon="35.05360887"><ele>459.31352443296345</ele><time>2012-04-26T04:46:09Z</time></trkpt><trkpt lat="32.74534384" lon="35.05357841"><ele>461.58225016738044</ele><time>2012-04-26T04:46:12Z</time></trkpt><trkpt lat="32.74518075" lon="35.05357637"><ele>464.4975545789725</ele><time>2012-04-26T04:46:15Z</time></trkpt><trkpt lat="32.745063" lon="35.05364684"><ele>465.6175614258373</ele><time>2012-04-26T04:46:18Z</time></trkpt><trkpt lat="32.74500384" lon="35.0537323"><ele>465.64576061171533</ele><time>2012-04-26T04:46:21Z</time></trkpt><trkpt lat="32.74502334" lon="35.05377627"><ele>464.67180245341257</ele><time>2012-04-26T04:46:24Z</time></trkpt><trkpt lat="32.74505019" lon="35.05381181"><ele>463.6334286113252</ele><time>2012-04-26T04:46:27Z</time></trkpt><trkpt lat="32.74507555" lon="35.05384322"><ele>462.6674264571519</ele><time>2012-04-26T04:46:31Z</time></trkpt><trkpt lat="32.74506103" lon="35.05387065"><ele>462.5987893500805</ele><time>2012-04-26T04:46:37Z</time></trkpt><trkpt lat="32.74505059" lon="35.05390309"><ele>462.3802607270846</ele><time>2012-04-26T04:46:40Z</time></trkpt><trkpt lat="32.74503172" lon="35.05393281"><ele>462.3897189437697</ele><time>2012-04-26T04:46:45Z</time></trkpt><trkpt lat="32.74499354" lon="35.05394385"><ele>463.08378361994386</ele><time>2012-04-26T04:46:51Z</time></trkpt><trkpt lat="32.74495421" lon="35.05396281"><ele>463.70921708245913</ele><time>2012-04-26T04:46:54Z</time></trkpt><trkpt lat="32.74492635" lon="35.05395843"><ele>464.3838155110736</ele><time>2012-04-26T04:47:10Z</time></trkpt><trkpt lat="32.74493172" lon="35.05399266"><ele>463.8329546449714</ele><time>2012-04-26T04:47:15Z</time></trkpt><trkpt lat="32.74490333" lon="35.05404105"><ele>463.87330134082777</ele><time>2012-04-26T04:47:18Z</time></trkpt><trkpt lat="32.74487573" lon="35.05405167"><ele>464.3769649056584</ele><time>2012-04-26T04:47:25Z</time></trkpt><trkpt lat="32.74484313" lon="35.05405125"><ele>465.13194923461367</ele><time>2012-04-26T04:47:33Z</time></trkpt><trkpt lat="32.74482629" lon="35.05407941"><ele>465.1898684465388</ele><time>2012-04-26T04:49:14Z</time></trkpt><trkpt lat="32.74484886" lon="35.05410222"><ele>464.39389834480426</ele><time>2012-04-26T04:49:22Z</time></trkpt><trkpt lat="32.74483905" lon="35.05413836"><ele>464.1970845213693</ele><time>2012-04-26T04:49:25Z</time></trkpt><trkpt lat="32.74480206" lon="35.05420005"><ele>464.36699222874347</ele><time>2012-04-26T04:49:28Z</time></trkpt><trkpt lat="32.74474148" lon="35.05427458"><ele>465.0210606011934</ele><time>2012-04-26T04:49:31Z</time></trkpt><trkpt lat="32.74466825" lon="35.05436018"><ele>465.9622951362397</ele><time>2012-04-26T04:49:34Z</time></trkpt><trkpt lat="32.74457878" lon="35.05442598"><ele>467.63079999866613</ele><time>2012-04-26T04:49:37Z</time></trkpt><trkpt lat="32.74450546" lon="35.05446998"><ele>469.1440479986</ele><time>2012-04-26T04:49:40Z</time></trkpt><trkpt lat="32.74444706" lon="35.05454227"><ele>469.9918239986226</ele><time>2012-04-26T04:49:43Z</time></trkpt><trkpt lat="32.74437817" lon="35.05458547"><ele>471.36053524497896</ele><time>2012-04-26T04:49:46Z</time></trkpt><trkpt lat="32.74430154" lon="35.05460392"><ele>472.9042097053459</ele><time>2012-04-26T04:49:49Z</time></trkpt><trkpt lat="32.74426067" lon="35.05463361"><ele>473.2143683072596</ele><time>2012-04-26T04:49:52Z</time></trkpt><trkpt lat="32.74422707" lon="35.054672"><ele>473.11003970081345</ele><time>2012-04-26T04:49:55Z</time></trkpt><trkpt lat="32.74416052" lon="35.05473547"><ele>473.2384925904518</ele><time>2012-04-26T04:49:58Z</time></trkpt><trkpt lat="32.7440968" lon="35.05480718"><ele>473.0917567638197</ele><time>2012-04-26T04:50:01Z</time></trkpt><trkpt lat="32.74405409" lon="35.05484641"><ele>473.22729346195945</ele><time>2012-04-26T04:50:04Z</time></trkpt><trkpt lat="32.74401862" lon="35.05488517"><ele>473.1853937122451</ele><time>2012-04-26T04:50:07Z</time></trkpt><trkpt lat="32.74397243" lon="35.05493531"><ele>473.1452981536683</ele><time>2012-04-26T04:50:10Z</time></trkpt><trkpt lat="32.74390335" lon="35.0549867"><ele>473.69764695762336</ele><time>2012-04-26T04:50:13Z</time></trkpt><trkpt lat="32.74383457" lon="35.05503557"><ele>474.31591425533867</ele><time>2012-04-26T04:50:16Z</time></trkpt><trkpt lat="32.7438203" lon="35.05509942"><ele>473.0864515128824</ele><time>2012-04-26T04:50:19Z</time></trkpt><trkpt lat="32.74379463" lon="35.05516377"><ele>472.1574609590957</ele><time>2012-04-26T04:50:22Z</time></trkpt><trkpt lat="32.74373675" lon="35.05520331"><ele>472.3732839150934</ele><time>2012-04-26T04:50:25Z</time></trkpt><trkpt lat="32.74359192" lon="35.05526802"><ele>470.6033644946422</ele><time>2012-04-26T04:50:28Z</time></trkpt><trkpt lat="32.74345744" lon="35.05532643"><ele>468.83792836186433</ele><time>2012-04-26T04:50:31Z</time></trkpt><trkpt lat="32.74332858" lon="35.05540663"><ele>466.2841508915665</ele><time>2012-04-26T04:50:34Z</time></trkpt><trkpt lat="32.7432493" lon="35.05546738"><ele>464.2894490319303</ele><time>2012-04-26T04:50:37Z</time></trkpt><trkpt lat="32.74318252" lon="35.05550554"><ele>463.0536290979183</ele><time>2012-04-26T04:50:40Z</time></trkpt><trkpt lat="32.74319662" lon="35.05546812"><ele>464.1683223143816</ele><time>2012-04-26T04:50:53Z</time></trkpt><trkpt lat="32.74320956" lon="35.05541104"><ele>465.8753880260333</ele><time>2012-04-26T04:50:56Z</time></trkpt><trkpt lat="32.74322597" lon="35.05535682"><ele>467.5665874019503</ele><time>2012-04-26T04:50:59Z</time></trkpt><trkpt lat="32.74326321" lon="35.05533449"><ele>468.305784016765</ele><time>2012-04-26T04:51:02Z</time></trkpt><trkpt lat="32.7432928" lon="35.05530465"><ele>469.2417773204285</ele><time>2012-04-26T04:51:05Z</time></trkpt><trkpt lat="32.74331774" lon="35.05523671"><ele>471.28158773147265</ele><time>2012-04-26T04:51:08Z</time></trkpt><trkpt lat="32.74333608" lon="35.0551684"><ele>473.29875838848386</ele><time>2012-04-26T04:51:11Z</time></trkpt><trkpt lat="32.7433681" lon="35.05512948"><ele>474.4260840058058</ele><time>2012-04-26T04:51:14Z</time></trkpt><trkpt lat="32.74340594" lon="35.05509767"><ele>475.3192922494272</ele><time>2012-04-26T04:51:17Z</time></trkpt><trkpt lat="32.7434413" lon="35.05506011"><ele>476.35384395215874</ele><time>2012-04-26T04:51:20Z</time></trkpt><trkpt lat="32.7434867" lon="35.05502302"><ele>477.3327394454223</ele><time>2012-04-26T04:51:23Z</time></trkpt><trkpt lat="32.74353802" lon="35.0549846"><ele>478.3025500781308</ele><time>2012-04-26T04:51:26Z</time></trkpt><trkpt lat="32.74359518" lon="35.05495068"><ele>479.0985080805666</ele><time>2012-04-26T04:51:29Z</time></trkpt><trkpt lat="32.74365358" lon="35.05491909"><ele>479.7911255281244</ele><time>2012-04-26T04:51:32Z</time></trkpt><trkpt lat="32.74368966" lon="35.05486939"><ele>480.9794245532853</ele><time>2012-04-26T04:51:35Z</time></trkpt><trkpt lat="32.74371773" lon="35.05481122"><ele>482.37674865920513</ele><time>2012-04-26T04:51:38Z</time></trkpt><trkpt lat="32.74372436" lon="35.05473897"><ele>484.19157151535273</ele><time>2012-04-26T04:51:41Z</time></trkpt><trkpt lat="32.7437414" lon="35.05467938"><ele>485.62289790517156</ele><time>2012-04-26T04:51:44Z</time></trkpt><trkpt lat="32.74376165" lon="35.05462886"><ele>486.54440424286975</ele><time>2012-04-26T04:51:47Z</time></trkpt><trkpt lat="32.7437863" lon="35.05457197"><ele>487.1507679986799</ele><time>2012-04-26T04:51:50Z</time></trkpt><trkpt lat="32.74382093" lon="35.05449826"><ele>486.94415199858645</ele><time>2012-04-26T04:51:53Z</time></trkpt><trkpt lat="32.74385152" lon="35.0544238"><ele>486.85139199855126</ele><time>2012-04-26T04:51:56Z</time></trkpt><trkpt lat="32.7438624" lon="35.05435956"><ele>487.1808639986121</ele><time>2012-04-26T04:51:59Z</time></trkpt><trkpt lat="32.74386813" lon="35.05427967"><ele>487.7965359984957</ele><time>2012-04-26T04:52:02Z</time></trkpt><trkpt lat="32.74389184" lon="35.05421032"><ele>487.83635199844764</ele><time>2012-04-26T04:52:05Z</time></trkpt><trkpt lat="32.7439068" lon="35.05412314"><ele>488.27833599860895</ele><time>2012-04-26T04:52:08Z</time></trkpt><trkpt lat="32.74391966" lon="35.05405347"><ele>488.60766399848734</ele><time>2012-04-26T04:52:11Z</time></trkpt><trkpt lat="32.74395468" lon="35.05401266"><ele>488.0749119985409</ele><time>2012-04-26T04:52:14Z</time></trkpt><trkpt lat="32.74399478" lon="35.05398955"><ele>487.2381279985582</ele><time>2012-04-26T04:52:17Z</time></trkpt><trkpt lat="32.74402749" lon="35.05395068"><ele>486.74773599855257</ele><time>2012-04-26T04:52:20Z</time></trkpt><trkpt lat="32.74405219" lon="35.05389402"><ele>486.63959199860875</ele><time>2012-04-26T04:52:23Z</time></trkpt><trkpt lat="32.74407671" lon="35.05382845"><ele>486.62173599854685</ele><time>2012-04-26T04:52:26Z</time></trkpt><trkpt lat="32.74409474" lon="35.05376626"><ele>486.7427679984996</ele><time>2012-04-26T04:52:29Z</time></trkpt><trkpt lat="32.74410611" lon="35.05371815"><ele>486.505260176344</ele><time>2012-04-26T04:52:32Z</time></trkpt><trkpt lat="32.74410362" lon="35.05365373"><ele>486.37752491016454</ele><time>2012-04-26T04:52:35Z</time></trkpt><trkpt lat="32.74409756" lon="35.05358167"><ele>486.3036573830376</ele><time>2012-04-26T04:52:38Z</time></trkpt><trkpt lat="32.74410506" lon="35.0535241"><ele>485.95927076961664</ele><time>2012-04-26T04:52:41Z</time></trkpt><trkpt lat="32.74410899" lon="35.05347276"><ele>485.7242939746649</ele><time>2012-04-26T04:52:44Z</time></trkpt><trkpt lat="32.74410539" lon="35.05343467"><ele>485.6883952080676</ele><time>2012-04-26T04:52:47Z</time></trkpt><trkpt lat="32.7441006" lon="35.0533901"><ele>485.6512271955884</ele><time>2012-04-26T04:52:50Z</time></trkpt><trkpt lat="32.74408399" lon="35.05332367"><ele>485.75543598830563</ele><time>2012-04-26T04:52:53Z</time></trkpt><trkpt lat="32.7440586" lon="35.05325299"><ele>485.9528867927882</ele><time>2012-04-26T04:52:56Z</time></trkpt><trkpt lat="32.7440523" lon="35.0531976"><ele>485.84230253333055</ele><time>2012-04-26T04:52:59Z</time></trkpt><trkpt lat="32.7440583" lon="35.05314726"><ele>485.5532151692199</ele><time>2012-04-26T04:53:02Z</time></trkpt><trkpt lat="32.74407469" lon="35.0531077"><ele>485.16612980362237</ele><time>2012-04-26T04:53:05Z</time></trkpt><trkpt lat="32.7440708" lon="35.05303004"><ele>484.9428945039168</ele><time>2012-04-26T04:53:08Z</time></trkpt><trkpt lat="32.74404878" lon="35.05294369"><ele>484.8814541287114</ele><time>2012-04-26T04:53:11Z</time></trkpt><trkpt lat="32.74403004" lon="35.05286192"><ele>484.6260810461231</ele><time>2012-04-26T04:53:14Z</time></trkpt><trkpt lat="32.74402755" lon="35.05280932"><ele>484.315265283911</ele><time>2012-04-26T04:53:17Z</time></trkpt><trkpt lat="32.74400037" lon="35.05275814"><ele>484.25015031412755</ele><time>2012-04-26T04:53:20Z</time></trkpt><trkpt lat="32.74398018" lon="35.05270826"><ele>484.108831534152</ele><time>2012-04-26T04:53:23Z</time></trkpt><trkpt lat="32.74395615" lon="35.05267184"><ele>484.0804273239041</ele><time>2012-04-26T04:53:26Z</time></trkpt><trkpt lat="32.74393556" lon="35.05265103"><ele>484.11950308618174</ele><time>2012-04-26T04:53:29Z</time></trkpt><trkpt lat="32.74389892" lon="35.05263289"><ele>484.3122121517551</ele><time>2012-04-26T04:53:32Z</time></trkpt><trkpt lat="32.74385981" lon="35.05261535"><ele>484.5212225979884</ele><time>2012-04-26T04:53:35Z</time></trkpt><trkpt lat="32.7438233" lon="35.05259479"><ele>484.6744696287215</ele><time>2012-04-26T04:53:38Z</time></trkpt><trkpt lat="32.74378012" lon="35.05257592"><ele>484.88632768431387</ele><time>2012-04-26T04:53:41Z</time></trkpt><trkpt lat="32.7437441" lon="35.05256737"><ele>485.1905918682013</ele><time>2012-04-26T04:53:44Z</time></trkpt><trkpt lat="32.74369495" lon="35.05255953"><ele>486.170252315233</ele><time>2012-04-26T04:53:47Z</time></trkpt><trkpt lat="32.7436526" lon="35.05256097"><ele>487.0803625074687</ele><time>2012-04-26T04:53:50Z</time></trkpt><trkpt lat="32.7436109" lon="35.05256496"><ele>487.9905547726483</ele><time>2012-04-26T04:53:53Z</time></trkpt><trkpt lat="32.74356217" lon="35.05255678"><ele>488.97784459855205</ele><time>2012-04-26T04:53:56Z</time></trkpt><trkpt lat="32.74351851" lon="35.05254943"><ele>489.873039995752</ele><time>2012-04-26T04:53:59Z</time></trkpt><trkpt lat="32.74347785" lon="35.05255125"><ele>490.75129862890515</ele><time>2012-04-26T04:54:02Z</time></trkpt><trkpt lat="32.74344639" lon="35.0525424"><ele>491.3923926650307</ele><time>2012-04-26T04:54:05Z</time></trkpt><trkpt lat="32.74339454" lon="35.05255071"><ele>492.53165403354535</ele><time>2012-04-26T04:54:08Z</time></trkpt><trkpt lat="32.74334165" lon="35.05255641"><ele>493.6743392266226</ele><time>2012-04-26T04:54:11Z</time></trkpt><trkpt lat="32.7432801" lon="35.05254419"><ele>494.9740602837555</ele><time>2012-04-26T04:54:14Z</time></trkpt><trkpt lat="32.7432268" lon="35.05253491"><ele>496.11896779264464</ele><time>2012-04-26T04:54:17Z</time></trkpt><trkpt lat="32.74316617" lon="35.05252749"><ele>497.4377181293752</ele><time>2012-04-26T04:54:20Z</time></trkpt><trkpt lat="32.74311127" lon="35.05254207"><ele>498.6075514805102</ele><time>2012-04-26T04:54:23Z</time></trkpt><trkpt lat="32.74304001" lon="35.05254091"><ele>500.1453382548329</ele><time>2012-04-26T04:54:26Z</time></trkpt><trkpt lat="32.74298956" lon="35.05255981"><ele>501.1637384429726</ele><time>2012-04-26T04:54:29Z</time></trkpt><trkpt lat="32.74293737" lon="35.05258578"><ele>502.1567727605101</ele><time>2012-04-26T04:54:32Z</time></trkpt><trkpt lat="32.74289169" lon="35.05260397"><ele>502.85307255843</ele><time>2012-04-26T04:54:35Z</time></trkpt><trkpt lat="32.74284487" lon="35.05260825"><ele>503.4952659852138</ele><time>2012-04-26T04:54:38Z</time></trkpt><trkpt lat="32.74278401" lon="35.05261305"><ele>504.33800066327404</ele><time>2012-04-26T04:54:41Z</time></trkpt><trkpt lat="32.74273853" lon="35.05262246"><ele>504.95207428281435</ele><time>2012-04-26T04:54:44Z</time></trkpt><trkpt lat="32.74268757" lon="35.05263328"><ele>505.64814579105024</ele><time>2012-04-26T04:54:47Z</time></trkpt><trkpt lat="32.74262966" lon="35.05263766"><ele>506.46908067685473</ele><time>2012-04-26T04:54:50Z</time></trkpt><trkpt lat="32.74257442" lon="35.05263387"><ele>507.27093508822014</ele><time>2012-04-26T04:54:53Z</time></trkpt><trkpt lat="32.74252287" lon="35.05262244"><ele>508.02699424662194</ele><time>2012-04-26T04:54:56Z</time></trkpt><trkpt lat="32.74249015" lon="35.05259839"><ele>508.52032538138434</ele><time>2012-04-26T04:55:00Z</time></trkpt><trkpt lat="32.74245905" lon="35.05258948"><ele>508.9648227386837</ele><time>2012-04-26T04:55:03Z</time></trkpt><trkpt lat="32.74241293" lon="35.0525574"><ele>509.6236251463826</ele><time>2012-04-26T04:55:06Z</time></trkpt><trkpt lat="32.74237921" lon="35.05253508"><ele>510.0889423848852</ele><time>2012-04-26T04:55:09Z</time></trkpt><trkpt lat="32.74233479" lon="35.05250423"><ele>510.6817339617838</ele><time>2012-04-26T04:55:12Z</time></trkpt><trkpt lat="32.74229281" lon="35.05248387"><ele>511.2253893374611</ele><time>2012-04-26T04:55:15Z</time></trkpt><trkpt lat="32.74226116" lon="35.05247511"><ele>511.6311935524631</ele><time>2012-04-26T04:55:18Z</time></trkpt><trkpt lat="32.74223592" lon="35.0524622"><ele>511.9449695835625</ele><time>2012-04-26T04:55:22Z</time></trkpt><trkpt lat="32.74220342" lon="35.05243974"><ele>512.3327546895637</ele><time>2012-04-26T04:55:25Z</time></trkpt><trkpt lat="32.74216834" lon="35.0524014"><ele>512.7136895182957</ele><time>2012-04-26T04:55:28Z</time></trkpt><trkpt lat="32.7421588" lon="35.05235945"><ele>512.7581630965439</ele><time>2012-04-26T04:55:31Z</time></trkpt><trkpt lat="32.74216367" lon="35.0523065"><ele>512.6094660517779</ele><time>2012-04-26T04:55:34Z</time></trkpt><trkpt lat="32.74215637" lon="35.05225995"><ele>512.6112763828232</ele><time>2012-04-26T04:55:37Z</time></trkpt><trkpt lat="32.74218051" lon="35.05222973"><ele>512.2955404207034</ele><time>2012-04-26T04:55:40Z</time></trkpt><trkpt lat="32.74222357" lon="35.05220427"><ele>511.79744371563936</ele><time>2012-04-26T04:55:43Z</time></trkpt><trkpt lat="32.74225156" lon="35.05217427"><ele>511.47109751817686</ele><time>2012-04-26T04:55:46Z</time></trkpt><trkpt lat="32.74228687" lon="35.05215791"><ele>511.0938846946377</ele><time>2012-04-26T04:55:49Z</time></trkpt><trkpt lat="32.74228243" lon="35.05212225"><ele>511.11512773570894</ele><time>2012-04-26T04:55:52Z</time></trkpt><trkpt lat="32.74230018" lon="35.05209009"><ele>510.9218290109665</ele><time>2012-04-26T04:55:55Z</time></trkpt><trkpt lat="32.74233582" lon="35.05204916"><ele>510.1461558385626</ele><time>2012-04-26T04:55:58Z</time></trkpt><trkpt lat="32.74236713" lon="35.05199426"><ele>509.17490274784467</ele><time>2012-04-26T04:56:01Z</time></trkpt><trkpt lat="32.74241141" lon="35.05194132"><ele>508.1409290784859</ele><time>2012-04-26T04:56:04Z</time></trkpt><trkpt lat="32.74246282" lon="35.05189818"><ele>507.19661519248035</ele><time>2012-04-26T04:56:07Z</time></trkpt><trkpt lat="32.74251539" lon="35.05184913"><ele>506.20828960213566</ele><time>2012-04-26T04:56:10Z</time></trkpt><trkpt lat="32.74257242" lon="35.05179259"><ele>505.1418945509798</ele><time>2012-04-26T04:56:13Z</time></trkpt><trkpt lat="32.74259773" lon="35.05172432"><ele>504.2216618852407</ele><time>2012-04-26T04:56:16Z</time></trkpt><trkpt lat="32.74260823" lon="35.05164085"><ele>503.2614897915583</ele><time>2012-04-26T04:56:19Z</time></trkpt><trkpt lat="32.74262204" lon="35.05157229"><ele>502.45156964370136</ele><time>2012-04-26T04:56:22Z</time></trkpt><trkpt lat="32.74262278" lon="35.05152169"><ele>501.9150796921858</ele><time>2012-04-26T04:56:25Z</time></trkpt><trkpt lat="32.74259567" lon="35.05148074"><ele>501.6270847494733</ele><time>2012-04-26T04:56:28Z</time></trkpt><trkpt lat="32.74256058" lon="35.05143467"><ele>501.3066013772736</ele><time>2012-04-26T04:56:31Z</time></trkpt><trkpt lat="32.74251445" lon="35.05140042"><ele>501.147118302423</ele><time>2012-04-26T04:56:34Z</time></trkpt><trkpt lat="32.74249178" lon="35.05137224"><ele>500.93036265137704</ele><time>2012-04-26T04:56:37Z</time></trkpt><trkpt lat="32.74245433" lon="35.0513612"><ele>500.96865722806274</ele><time>2012-04-26T04:56:40Z</time></trkpt><trkpt lat="32.74242099" lon="35.05135337"><ele>501.0216582979007</ele><time>2012-04-26T04:56:43Z</time></trkpt><trkpt lat="32.74237313" lon="35.05132639"><ele>500.89735751422415</ele><time>2012-04-26T04:56:46Z</time></trkpt><trkpt lat="32.74231363" lon="35.05130961"><ele>500.93047451227324</ele><time>2012-04-26T04:56:49Z</time></trkpt><trkpt lat="32.74224829" lon="35.0513029"><ele>501.10508730411823</ele><time>2012-04-26T04:56:52Z</time></trkpt><trkpt lat="32.74220698" lon="35.05128374"><ele>501.01069076187673</ele><time>2012-04-26T04:56:55Z</time></trkpt><trkpt lat="32.74218041" lon="35.05126897"><ele>500.910432879867</ele><time>2012-04-26T04:56:58Z</time></trkpt><trkpt lat="32.74214089" lon="35.05125722"><ele>500.8937719734775</ele><time>2012-04-26T04:57:01Z</time></trkpt><trkpt lat="32.74208874" lon="35.05125752"><ele>501.08853126074024</ele><time>2012-04-26T04:57:04Z</time></trkpt><trkpt lat="32.74205019" lon="35.05126394"><ele>501.24117330532596</ele><time>2012-04-26T04:57:07Z</time></trkpt><trkpt lat="32.74201478" lon="35.05127579"><ele>501.4561859055842</ele><time>2012-04-26T04:57:12Z</time></trkpt><trkpt lat="32.74196178" lon="35.0512841"><ele>501.6428727541706</ele><time>2012-04-26T04:57:15Z</time></trkpt><trkpt lat="32.74192432" lon="35.05128882"><ele>501.7587129719282</ele><time>2012-04-26T04:57:18Z</time></trkpt><trkpt lat="32.74188269" lon="35.05129408"><ele>501.888259875026</ele><time>2012-04-26T04:57:21Z</time></trkpt><trkpt lat="32.74182337" lon="35.0512841"><ele>501.81576123881104</ele><time>2012-04-26T04:57:24Z</time></trkpt><trkpt lat="32.74174384" lon="35.05127504"><ele>501.7802093141625</ele><time>2012-04-26T04:57:27Z</time></trkpt><trkpt lat="32.74168104" lon="35.05126102"><ele>501.647823911763</ele><time>2012-04-26T04:57:30Z</time></trkpt><trkpt lat="32.7416153" lon="35.05126102"><ele>501.7277551266809</ele><time>2012-04-26T04:57:33Z</time></trkpt><trkpt lat="32.74157954" lon="35.05128103"><ele>502.07389509759787</ele><time>2012-04-26T04:57:36Z</time></trkpt><trkpt lat="32.74151773" lon="35.05130309"><ele>502.48646014790364</ele><time>2012-04-26T04:57:39Z</time></trkpt><trkpt lat="32.74143199" lon="35.05133233"><ele>503.0443841385125</ele><time>2012-04-26T04:57:42Z</time></trkpt><trkpt lat="32.74134241" lon="35.05136146"><ele>503.613051972602</ele><time>2012-04-26T04:57:45Z</time></trkpt><trkpt lat="32.74127452" lon="35.05139212"><ele>504.18262991273934</ele><time>2012-04-26T04:57:48Z</time></trkpt><trkpt lat="32.7412224" lon="35.05141552"><ele>504.6551582918007</ele><time>2012-04-26T04:57:51Z</time></trkpt><trkpt lat="32.74116855" lon="35.05142416"><ele>504.92840848706254</ele><time>2012-04-26T04:57:54Z</time></trkpt><trkpt lat="32.74112504" lon="35.0514584"><ele>505.55089601470263</ele><time>2012-04-26T04:57:57Z</time></trkpt><trkpt lat="32.74109556" lon="35.05150732"><ele>506.3412707147027</ele><time>2012-04-26T04:58:00Z</time></trkpt><trkpt lat="32.74107374" lon="35.05156701"><ele>507.258045187544</ele><time>2012-04-26T04:58:03Z</time></trkpt><trkpt lat="32.74104837" lon="35.05159656"><ele>507.7297130967944</ele><time>2012-04-26T04:58:06Z</time></trkpt><trkpt lat="32.74103305" lon="35.0516301"><ele>508.2355948760825</ele><time>2012-04-26T04:58:10Z</time></trkpt><trkpt lat="32.74101662" lon="35.05166731"><ele>508.7892271863795</ele><time>2012-04-26T04:58:13Z</time></trkpt><trkpt lat="32.74098889" lon="35.05173651"><ele>509.7978440729606</ele><time>2012-04-26T04:58:16Z</time></trkpt><trkpt lat="32.74096598" lon="35.05178548"><ele>510.49993870882366</ele><time>2012-04-26T04:58:19Z</time></trkpt><trkpt lat="32.74094137" lon="35.05182121"><ele>511.00649895567625</ele><time>2012-04-26T04:58:23Z</time></trkpt><trkpt lat="32.74091347" lon="35.0518731"><ele>511.7240429836686</ele><time>2012-04-26T04:58:26Z</time></trkpt><trkpt lat="32.74089485" lon="35.05191786"><ele>512.3309388403292</ele><time>2012-04-26T04:58:29Z</time></trkpt><trkpt lat="32.74086787" lon="35.05193338"><ele>512.5322296027981</ele><time>2012-04-26T04:58:33Z</time></trkpt><trkpt lat="32.7408387" lon="35.05194645"><ele>512.6953486617563</ele><time>2012-04-26T04:58:36Z</time></trkpt><trkpt lat="32.74080448" lon="35.05194382"><ele>512.6469864456313</ele><time>2012-04-26T04:58:39Z</time></trkpt><trkpt lat="32.74077554" lon="35.05194663"><ele>512.6716711173107</ele><time>2012-04-26T04:58:42Z</time></trkpt><trkpt lat="32.74076218" lon="35.0519775"><ele>513.0609910713088</ele><time>2012-04-26T04:58:46Z</time></trkpt><trkpt lat="32.74074988" lon="35.05201834"><ele>513.5731857226668</ele><time>2012-04-26T04:58:49Z</time></trkpt><trkpt lat="32.74075328" lon="35.05205022"><ele>513.9821087957118</ele><time>2012-04-26T04:58:56Z</time></trkpt><trkpt lat="32.74078439" lon="35.05204562"><ele>513.9540839009082</ele><time>2012-04-26T04:58:59Z</time></trkpt><trkpt lat="32.74076205" lon="35.05206685"><ele>514.2036479241578</ele><time>2012-04-26T04:59:39Z</time></trkpt><trkpt lat="32.74077214" lon="35.0520362"><ele>513.821021255042</ele><time>2012-04-26T04:59:54Z</time></trkpt><trkpt lat="32.74079628" lon="35.05197133"><ele>513.0009965571504</ele><time>2012-04-26T04:59:57Z</time></trkpt><trkpt lat="32.74084011" lon="35.05184322"><ele>511.32926351153526</ele><time>2012-04-26T05:00:00Z</time></trkpt><trkpt lat="32.74079674" lon="35.05161364"><ele>508.35513683282386</ele><time>2012-04-26T05:00:03Z</time></trkpt><trkpt lat="32.74075028" lon="35.0514152"><ele>505.9006024338512</ele><time>2012-04-26T05:00:06Z</time></trkpt><trkpt lat="32.74068383" lon="35.05127033"><ele>504.2890610393361</ele><time>2012-04-26T05:00:09Z</time></trkpt><trkpt lat="32.74067031" lon="35.05114601"><ele>503.65824021400107</ele><time>2012-04-26T05:00:12Z</time></trkpt><trkpt lat="32.74066357" lon="35.05103947"><ele>503.2596959620709</ele><time>2012-04-26T05:00:15Z</time></trkpt><trkpt lat="32.74063913" lon="35.05095934"><ele>503.1054430618553</ele><time>2012-04-26T05:00:18Z</time></trkpt><trkpt lat="32.74059382" lon="35.05087677"><ele>503.1526818263704</ele><time>2012-04-26T05:00:21Z</time></trkpt><trkpt lat="32.74053477" lon="35.05065522"><ele>503.0518638321305</ele><time>2012-04-26T05:00:24Z</time></trkpt><trkpt lat="32.74051635" lon="35.05062556"><ele>503.17473507610976</ele><time>2012-04-26T05:00:27Z</time></trkpt><trkpt lat="32.74049011" lon="35.05063458"><ele>503.47641332272826</ele><time>2012-04-26T05:00:38Z</time></trkpt><trkpt lat="32.74052672" lon="35.05060607"><ele>503.0147082724172</ele><time>2012-04-26T05:01:15Z</time></trkpt><trkpt lat="32.74056214" lon="35.05048384"><ele>502.2729326177069</ele><time>2012-04-26T05:01:18Z</time></trkpt><trkpt lat="32.7406342" lon="35.05038234"><ele>501.2575931149969</ele><time>2012-04-26T05:01:21Z</time></trkpt><trkpt lat="32.7407113" lon="35.05027145"><ele>500.8501763860699</ele><time>2012-04-26T05:01:24Z</time></trkpt><trkpt lat="32.74080471" lon="35.05023442"><ele>500.0998627563421</ele><time>2012-04-26T05:01:27Z</time></trkpt><trkpt lat="32.74090947" lon="35.05021781"><ele>499.1883881019433</ele><time>2012-04-26T05:01:30Z</time></trkpt><trkpt lat="32.74099778" lon="35.05017358"><ele>498.77029240533216</ele><time>2012-04-26T05:01:33Z</time></trkpt><trkpt lat="32.74110207" lon="35.05011471"><ele>498.5289811879656</ele><time>2012-04-26T05:01:36Z</time></trkpt><trkpt lat="32.74122008" lon="35.05003424"><ele>498.70416668137483</ele><time>2012-04-26T05:01:39Z</time></trkpt><trkpt lat="32.74134071" lon="35.04997937"><ele>498.37452473875396</ele><time>2012-04-26T05:01:42Z</time></trkpt><trkpt lat="32.74144431" lon="35.04994016"><ele>497.89647761372163</ele><time>2012-04-26T05:01:45Z</time></trkpt><trkpt lat="32.74147053" lon="35.04992952"><ele>497.78788785304755</ele><time>2012-04-26T05:01:48Z</time></trkpt><trkpt lat="32.74148476" lon="35.04990206"><ele>498.0488930466439</ele><time>2012-04-26T05:02:11Z</time></trkpt><trkpt lat="32.74149965" lon="35.04987206"><ele>498.3418999169557</ele><time>2012-04-26T05:02:24Z</time></trkpt><trkpt lat="32.74152293" lon="35.04985295"><ele>498.39142747202004</ele><time>2012-04-26T05:03:37Z</time></trkpt><trkpt lat="32.74154991" lon="35.04985152"><ele>498.14315411570794</ele><time>2012-04-26T05:04:33Z</time></trkpt><trkpt lat="32.74162364" lon="35.04982075"><ele>497.8665159554727</ele><time>2012-04-26T05:04:36Z</time></trkpt><trkpt lat="32.74172109" lon="35.04978931"><ele>497.37174368972273</ele><time>2012-04-26T05:04:39Z</time></trkpt><trkpt lat="32.74183743" lon="35.04974769"><ele>496.8549068259376</ele><time>2012-04-26T05:04:42Z</time></trkpt><trkpt lat="32.74201855" lon="35.04964255"><ele>496.70366420310336</ele><time>2012-04-26T05:04:45Z</time></trkpt><trkpt lat="32.74215093" lon="35.04957831"><ele>494.618655736351</ele><time>2012-04-26T05:04:48Z</time></trkpt><trkpt lat="32.74227314" lon="35.04950629"><ele>491.07503685547664</ele><time>2012-04-26T05:04:51Z</time></trkpt><trkpt lat="32.74238209" lon="35.04947639"><ele>487.63948038762976</ele><time>2012-04-26T05:04:54Z</time></trkpt><trkpt lat="32.74247832" lon="35.04943718"><ele>484.84858567738235</ele><time>2012-04-26T05:04:57Z</time></trkpt><trkpt lat="32.74255731" lon="35.04942566"><ele>482.311433698951</ele><time>2012-04-26T05:05:00Z</time></trkpt><trkpt lat="32.74268044" lon="35.04939457"><ele>478.6147284499669</ele><time>2012-04-26T05:05:03Z</time></trkpt><trkpt lat="32.74279315" lon="35.04937003"><ele>475.2385121258287</ele><time>2012-04-26T05:05:06Z</time></trkpt><trkpt lat="32.74295965" lon="35.04938771"><ele>469.2664415835368</ele><time>2012-04-26T05:05:09Z</time></trkpt><trkpt lat="32.74310907" lon="35.04938908"><ele>464.06523612681696</ele><time>2012-04-26T05:05:12Z</time></trkpt><trkpt lat="32.74321337" lon="35.04937897"><ele>460.612069547334</ele><time>2012-04-26T05:05:15Z</time></trkpt><trkpt lat="32.74331647" lon="35.04941334"><ele>456.5272998551686</ele><time>2012-04-26T05:05:18Z</time></trkpt><trkpt lat="32.74346579" lon="35.04939261"><ele>451.6637951114802</ele><time>2012-04-26T05:05:21Z</time></trkpt><trkpt lat="32.74357115" lon="35.04939042"><ele>448.0441773705605</ele><time>2012-04-26T05:05:24Z</time></trkpt><trkpt lat="32.74367764" lon="35.04935283"><ele>444.74944062668607</ele><time>2012-04-26T05:05:27Z</time></trkpt><trkpt lat="32.7437598" lon="35.04925382"><ele>442.9762461555825</ele><time>2012-04-26T05:05:30Z</time></trkpt><trkpt lat="32.74382591" lon="35.04916926"><ele>442.3411175648606</ele><time>2012-04-26T05:05:33Z</time></trkpt><trkpt lat="32.74385215" lon="35.04913031"><ele>442.03562559386677</ele><time>2012-04-26T05:05:36Z</time></trkpt><trkpt lat="32.74382351" lon="35.0491544"><ele>442.50397438596735</ele><time>2012-04-26T05:05:39Z</time></trkpt><trkpt lat="32.74384955" lon="35.04914392"><ele>442.00287239554086</ele><time>2012-04-26T05:07:59Z</time></trkpt><trkpt lat="32.74387557" lon="35.04915569"><ele>441.3533678057965</ele><time>2012-04-26T05:09:03Z</time></trkpt><trkpt lat="32.74386825" lon="35.04912103"><ele>441.72849176675857</ele><time>2012-04-26T05:09:15Z</time></trkpt><trkpt lat="32.7438856" lon="35.04914555"><ele>441.1912935027918</ele><time>2012-04-26T05:09:31Z</time></trkpt><trkpt lat="32.74391298" lon="35.0491628"><ele>440.49860254604187</ele><time>2012-04-26T05:09:35Z</time></trkpt><trkpt lat="32.74394657" lon="35.04916543"><ele>439.75895896169743</ele><time>2012-04-26T05:09:38Z</time></trkpt><trkpt lat="32.74395956" lon="35.04919455"><ele>439.3741090611953</ele><time>2012-04-26T05:09:45Z</time></trkpt><trkpt lat="32.74397956" lon="35.04922628"><ele>438.86333929868766</ele><time>2012-04-26T05:09:49Z</time></trkpt><trkpt lat="32.7440117" lon="35.04924685"><ele>438.1818585748285</ele><time>2012-04-26T05:09:55Z</time></trkpt><trkpt lat="32.74404194" lon="35.04925577"><ele>437.5878734202732</ele><time>2012-04-26T05:09:58Z</time></trkpt><trkpt lat="32.74402479" lon="35.04928563"><ele>437.8639581086942</ele><time>2012-04-26T05:10:03Z</time></trkpt><trkpt lat="32.74400822" lon="35.04931174"><ele>438.1086160795697</ele><time>2012-04-26T05:10:21Z</time></trkpt><trkpt lat="32.74398679" lon="35.04933727"><ele>438.4109823019095</ele><time>2012-04-26T05:10:26Z</time></trkpt><trkpt lat="32.7440098" lon="35.04931989"><ele>438.0638297524864</ele><time>2012-04-26T05:10:36Z</time></trkpt><trkpt lat="32.74398577" lon="35.04929179"><ele>438.55579345388304</ele><time>2012-04-26T05:10:50Z</time></trkpt><trkpt lat="32.74394878" lon="35.04926535"><ele>439.3239406613084</ele><time>2012-04-26T05:10:53Z</time></trkpt><trkpt lat="32.74392525" lon="35.04924094"><ele>439.8764483668967</ele><time>2012-04-26T05:10:56Z</time></trkpt><trkpt lat="32.74390598" lon="35.04921177"><ele>440.40045427525894</ele><time>2012-04-26T05:11:08Z</time></trkpt><trkpt lat="32.74392999" lon="35.04923101"><ele>439.82805730797594</ele><time>2012-04-26T05:11:15Z</time></trkpt><trkpt lat="32.74395918" lon="35.04923512"><ele>439.2369491649681</ele><time>2012-04-26T05:12:09Z</time></trkpt><trkpt lat="32.7439402" lon="35.0492107"><ele>439.7101640308537</ele><time>2012-04-26T05:13:04Z</time></trkpt><trkpt lat="32.74391158" lon="35.04920649"><ele>440.31288603969045</ele><time>2012-04-26T05:13:08Z</time></trkpt><trkpt lat="32.74388538" lon="35.04919513"><ele>440.91352094145407</ele><time>2012-04-26T05:15:08Z</time></trkpt><trkpt lat="32.7439067" lon="35.04921809"><ele>440.353687445285</ele><time>2012-04-26T05:15:56Z</time></trkpt><trkpt lat="32.74389019" lon="35.04918868"><ele>440.8494462156959</ele><time>2012-04-26T05:16:11Z</time></trkpt><trkpt lat="32.74385363" lon="35.04920084"><ele>441.53551981580955</ele><time>2012-04-26T05:16:16Z</time></trkpt><trkpt lat="32.74382545" lon="35.04920075"><ele>442.11714171871535</ele><time>2012-04-26T05:16:19Z</time></trkpt><trkpt lat="32.74379051" lon="35.04919174"><ele>442.9135327559397</ele><time>2012-04-26T05:16:38Z</time></trkpt><trkpt lat="32.74380337" lon="35.04922684"><ele>442.36203378173013</ele><time>2012-04-26T05:17:11Z</time></trkpt><trkpt lat="32.74377377" lon="35.04922292"><ele>442.985045680729</ele><time>2012-04-26T05:17:43Z</time></trkpt><trkpt lat="32.74969139" lon="35.04759716"><ele>363.64509449088223</ele><time>2012-04-26T05:24:56Z</time></trkpt><trkpt lat="32.74958215" lon="35.04760072"><ele>363.9364688801975</ele><time>2012-04-26T05:24:59Z</time></trkpt><trkpt lat="32.74957415" lon="35.04768329"><ele>365.54296948050217</ele><time>2012-04-26T05:25:02Z</time></trkpt><trkpt lat="32.74963158" lon="35.04774233"><ele>366.49382444824647</ele><time>2012-04-26T05:25:05Z</time></trkpt><trkpt lat="32.74970331" lon="35.04781118"><ele>367.508115309372</ele><time>2012-04-26T05:25:08Z</time></trkpt><trkpt lat="32.74980718" lon="35.04784343"><ele>367.66103429081335</ele><time>2012-04-26T05:25:11Z</time></trkpt><trkpt lat="32.74993198" lon="35.04782672"><ele>366.8704669911919</ele><time>2012-04-26T05:25:14Z</time></trkpt><trkpt lat="32.75003845" lon="35.04778063"><ele>365.7384604684541</ele><time>2012-04-26T05:25:17Z</time></trkpt><trkpt lat="32.75011568" lon="35.04773993"><ele>364.86428791475345</ele><time>2012-04-26T05:25:20Z</time></trkpt><trkpt lat="32.75025217" lon="35.04771844"><ele>364.12913411157297</ele><time>2012-04-26T05:25:23Z</time></trkpt><trkpt lat="32.75040538" lon="35.04777388"><ele>364.3268119006776</ele><time>2012-04-26T05:25:26Z</time></trkpt><trkpt lat="32.75053863" lon="35.04788735"><ele>365.3606368035978</ele><time>2012-04-26T05:25:29Z</time></trkpt><trkpt lat="32.75062244" lon="35.04800435"><ele>366.3491969427892</ele><time>2012-04-26T05:25:32Z</time></trkpt><trkpt lat="32.75070378" lon="35.04808378"><ele>366.83938451422233</ele><time>2012-04-26T05:25:35Z</time></trkpt><trkpt lat="32.75078841" lon="35.0481832"><ele>367.4156637382658</ele><time>2012-04-26T05:25:38Z</time></trkpt><trkpt lat="32.75088693" lon="35.04826507"><ele>367.690398037209</ele><time>2012-04-26T05:25:41Z</time></trkpt><trkpt lat="32.75102348" lon="35.04828798"><ele>367.25600100185375</ele><time>2012-04-26T05:25:44Z</time></trkpt><trkpt lat="32.75116053" lon="35.04825625"><ele>366.4272313193777</ele><time>2012-04-26T05:25:47Z</time></trkpt><trkpt lat="32.75129212" lon="35.04812935"><ele>364.94703631994975</ele><time>2012-04-26T05:25:50Z</time></trkpt><trkpt lat="32.75140431" lon="35.04812734"><ele>364.05938207336897</ele><time>2012-04-26T05:25:53Z</time></trkpt><trkpt lat="32.75143463" lon="35.0482014"><ele>364.2276614911684</ele><time>2012-04-26T05:25:56Z</time></trkpt><trkpt lat="32.75145368" lon="35.04822446"><ele>364.19971292245395</ele><time>2012-04-26T05:29:53Z</time></trkpt><trkpt lat="32.75143258" lon="35.04820132"><ele>364.24366462315703</ele><time>2012-04-26T05:31:23Z</time></trkpt><trkpt lat="32.7514494" lon="35.04817229"><ele>363.95126267641194</ele><time>2012-04-26T05:31:54Z</time></trkpt><trkpt lat="32.7514211" lon="35.04818526"><ele>364.24728579958753</ele><time>2012-04-26T05:32:05Z</time></trkpt><trkpt lat="32.7514236" lon="35.04815236"><ele>364.0464008748177</ele><time>2012-04-26T05:32:30Z</time></trkpt><trkpt lat="32.75143144" lon="35.04818374"><ele>364.1565135767846</ele><time>2012-04-26T05:32:53Z</time></trkpt><trkpt lat="32.75144994" lon="35.04821447"><ele>364.17576873969614</ele><time>2012-04-26T05:33:09Z</time></trkpt><trkpt lat="32.75148537" lon="35.04824039"><ele>364.02823508771206</ele><time>2012-04-26T05:33:12Z</time></trkpt><trkpt lat="32.75155542" lon="35.04827461"><ele>363.6337856070127</ele><time>2012-04-26T05:33:15Z</time></trkpt><trkpt lat="32.75160197" lon="35.0483477"><ele>363.6150888885432</ele><time>2012-04-26T05:33:18Z</time></trkpt><trkpt lat="32.75157719" lon="35.04842446"><ele>364.21249468517624</ele><time>2012-04-26T05:33:21Z</time></trkpt><trkpt lat="32.75153478" lon="35.04849869"><ele>364.964368017275</ele><time>2012-04-26T05:33:24Z</time></trkpt><trkpt lat="32.75149373" lon="35.04857242"><ele>365.71936293066545</ele><time>2012-04-26T05:33:27Z</time></trkpt><trkpt lat="32.75145977" lon="35.04864456"><ele>366.41726826784685</ele><time>2012-04-26T05:33:30Z</time></trkpt><trkpt lat="32.75142005" lon="35.04872073"><ele>367.2062348061482</ele><time>2012-04-26T05:33:33Z</time></trkpt><trkpt lat="32.75139295" lon="35.04879924"><ele>367.67663204364806</ele><time>2012-04-26T05:33:36Z</time></trkpt><trkpt lat="32.75137264" lon="35.04887075"><ele>367.94623135599926</ele><time>2012-04-26T05:33:39Z</time></trkpt><trkpt lat="32.75134996" lon="35.04894265"><ele>368.2438334958469</ele><time>2012-04-26T05:33:42Z</time></trkpt><trkpt lat="32.75132952" lon="35.0490105"><ele>368.5193784568077</ele><time>2012-04-26T05:33:45Z</time></trkpt><trkpt lat="32.75131222" lon="35.04906572"><ele>368.75326449747183</ele><time>2012-04-26T05:33:48Z</time></trkpt><trkpt lat="32.75129276" lon="35.04913304"><ele>369.02556654103336</ele><time>2012-04-26T05:33:51Z</time></trkpt><trkpt lat="32.75126437" lon="35.04921677"><ele>369.41251322092234</ele><time>2012-04-26T05:33:54Z</time></trkpt><trkpt lat="32.75123376" lon="35.04932389"><ele>369.85927904713947</ele><time>2012-04-26T05:33:57Z</time></trkpt><trkpt lat="32.75120213" lon="35.04943351"><ele>370.3533410316603</ele><time>2012-04-26T05:34:00Z</time></trkpt><trkpt lat="32.75117083" lon="35.04953063"><ele>370.8627622672756</ele><time>2012-04-26T05:34:03Z</time></trkpt><trkpt lat="32.75114606" lon="35.04963261"><ele>371.3876702474407</ele><time>2012-04-26T05:34:06Z</time></trkpt><trkpt lat="32.7511196" lon="35.04973001"><ele>371.99945107242013</ele><time>2012-04-26T05:34:09Z</time></trkpt><trkpt lat="32.75108964" lon="35.04983131"><ele>372.69125112454014</ele><time>2012-04-26T05:34:12Z</time></trkpt><trkpt lat="32.75105694" lon="35.04993786"><ele>373.4632660461096</ele><time>2012-04-26T05:34:15Z</time></trkpt><trkpt lat="32.75101844" lon="35.050034"><ele>374.3111395319152</ele><time>2012-04-26T05:34:18Z</time></trkpt><trkpt lat="32.75097193" lon="35.05013325"><ele>375.31723421398874</ele><time>2012-04-26T05:34:21Z</time></trkpt><trkpt lat="32.75093331" lon="35.05024043"><ele>376.2762864745009</ele><time>2012-04-26T05:34:24Z</time></trkpt><trkpt lat="32.75090447" lon="35.05033384"><ele>377.06784949519067</ele><time>2012-04-26T05:34:27Z</time></trkpt><trkpt lat="32.75087467" lon="35.05042306"><ele>377.8647531896371</ele><time>2012-04-26T05:34:30Z</time></trkpt><trkpt lat="32.75084814" lon="35.05053078"><ele>378.46225460482344</ele><time>2012-04-26T05:34:33Z</time></trkpt><trkpt lat="32.75082104" lon="35.05065454"><ele>379.1410026435902</ele><time>2012-04-26T05:34:36Z</time></trkpt><trkpt lat="32.75079149" lon="35.05077098"><ele>379.89726468568796</ele><time>2012-04-26T05:34:39Z</time></trkpt><trkpt lat="32.75075354" lon="35.05087117"><ele>380.82399961814707</ele><time>2012-04-26T05:34:42Z</time></trkpt><trkpt lat="32.75071373" lon="35.05095118"><ele>381.7882289489594</ele><time>2012-04-26T05:34:45Z</time></trkpt><trkpt lat="32.75067353" lon="35.05104703"><ele>382.85287196457176</ele><time>2012-04-26T05:34:48Z</time></trkpt><trkpt lat="32.75064128" lon="35.05114587"><ele>383.81692870105525</ele><time>2012-04-26T05:34:51Z</time></trkpt><trkpt lat="32.75061942" lon="35.05121693"><ele>384.51006837874303</ele><time>2012-04-26T05:34:54Z</time></trkpt><trkpt lat="32.75058942" lon="35.05129299"><ele>385.2666440052775</ele><time>2012-04-26T05:34:57Z</time></trkpt><trkpt lat="32.75056553" lon="35.05136712"><ele>385.79956490898513</ele><time>2012-04-26T05:35:00Z</time></trkpt><trkpt lat="32.75054025" lon="35.05142565"><ele>386.3850866289611</ele><time>2012-04-26T05:35:03Z</time></trkpt><trkpt lat="32.75051338" lon="35.05151001"><ele>387.04194967557794</ele><time>2012-04-26T05:35:06Z</time></trkpt><trkpt lat="32.75049216" lon="35.05160505"><ele>387.60241586134555</ele><time>2012-04-26T05:35:09Z</time></trkpt><trkpt lat="32.75046128" lon="35.05169696"><ele>388.4291332955078</ele><time>2012-04-26T05:35:12Z</time></trkpt><trkpt lat="32.75042966" lon="35.05179601"><ele>389.32347567137117</ele><time>2012-04-26T05:35:15Z</time></trkpt><trkpt lat="32.75040071" lon="35.051898"><ele>390.3200858163915</ele><time>2012-04-26T05:35:18Z</time></trkpt><trkpt lat="32.75036699" lon="35.05199333"><ele>391.6627079853152</ele><time>2012-04-26T05:35:21Z</time></trkpt><trkpt lat="32.75033171" lon="35.05209762"><ele>393.0729202022223</ele><time>2012-04-26T05:35:24Z</time></trkpt><trkpt lat="32.75030078" lon="35.05220641"><ele>393.55198535823627</ele><time>2012-04-26T05:35:27Z</time></trkpt><trkpt lat="32.75026705" lon="35.05231739"><ele>394.11097295799436</ele><time>2012-04-26T05:35:30Z</time></trkpt><trkpt lat="32.75022393" lon="35.05243058"><ele>394.9899488810787</ele><time>2012-04-26T05:35:33Z</time></trkpt><trkpt lat="32.75018139" lon="35.05253534"><ele>395.88711286312605</ele><time>2012-04-26T05:35:36Z</time></trkpt><trkpt lat="32.75014239" lon="35.05262318"><ele>396.750795022913</ele><time>2012-04-26T05:35:39Z</time></trkpt><trkpt lat="32.75009905" lon="35.05272402"><ele>397.67819041917136</ele><time>2012-04-26T05:35:42Z</time></trkpt><trkpt lat="32.75006132" lon="35.05283269"><ele>398.33931079175545</ele><time>2012-04-26T05:35:45Z</time></trkpt><trkpt lat="32.75002382" lon="35.05293239"><ele>398.8837212274281</ele><time>2012-04-26T05:35:48Z</time></trkpt><trkpt lat="32.74998071" lon="35.05303177"><ele>398.7287310548905</ele><time>2012-04-26T05:35:51Z</time></trkpt><trkpt lat="32.74993325" lon="35.05313439"><ele>398.53597233058025</ele><time>2012-04-26T05:35:54Z</time></trkpt><trkpt lat="32.74987646" lon="35.05323919"><ele>398.45528672894153</ele><time>2012-04-26T05:35:57Z</time></trkpt><trkpt lat="32.74982285" lon="35.05334479"><ele>398.0928025002321</ele><time>2012-04-26T05:36:00Z</time></trkpt><trkpt lat="32.74976108" lon="35.05343614"><ele>398.08674700787543</ele><time>2012-04-26T05:36:03Z</time></trkpt><trkpt lat="32.74968546" lon="35.05353628"><ele>398.10747423721983</ele><time>2012-04-26T05:36:06Z</time></trkpt><trkpt lat="32.74961137" lon="35.05363586"><ele>397.88343048479027</ele><time>2012-04-26T05:36:09Z</time></trkpt><trkpt lat="32.74953363" lon="35.05373316"><ele>397.9202325670697</ele><time>2012-04-26T05:36:12Z</time></trkpt><trkpt lat="32.74945521" lon="35.05383006"><ele>398.8298131207341</ele><time>2012-04-26T05:36:15Z</time></trkpt><trkpt lat="32.74937587" lon="35.05393025"><ele>399.8234068157983</ele><time>2012-04-26T05:36:18Z</time></trkpt><trkpt lat="32.74930026" lon="35.05402144"><ele>400.812506105846</ele><time>2012-04-26T05:36:21Z</time></trkpt><trkpt lat="32.74922477" lon="35.0541001"><ele>401.9649684456043</ele><time>2012-04-26T05:36:24Z</time></trkpt><trkpt lat="32.74914739" lon="35.05420916"><ele>402.70128645179744</ele><time>2012-04-26T05:36:27Z</time></trkpt><trkpt lat="32.74908271" lon="35.05431348"><ele>403.0991246189404</ele><time>2012-04-26T05:36:30Z</time></trkpt><trkpt lat="32.74902398" lon="35.0543958"><ele>403.63213224767696</ele><time>2012-04-26T05:36:33Z</time></trkpt><trkpt lat="32.74894955" lon="35.0544828"><ele>404.5529315442448</ele><time>2012-04-26T05:36:36Z</time></trkpt><trkpt lat="32.74886472" lon="35.0545667"><ele>405.8151322251655</ele><time>2012-04-26T05:36:39Z</time></trkpt><trkpt lat="32.74877989" lon="35.05465415"><ele>406.176192562277</ele><time>2012-04-26T05:36:42Z</time></trkpt><trkpt lat="32.74868743" lon="35.05474551"><ele>405.6814312565563</ele><time>2012-04-26T05:36:45Z</time></trkpt><trkpt lat="32.74860279" lon="35.05482739"><ele>404.93526084482824</ele><time>2012-04-26T05:36:48Z</time></trkpt><trkpt lat="32.74851466" lon="35.05490038"><ele>404.44570854453355</ele><time>2012-04-26T05:36:51Z</time></trkpt><trkpt lat="32.74842415" lon="35.05496292"><ele>404.245394476377</ele><time>2012-04-26T05:36:54Z</time></trkpt><trkpt lat="32.7483371" lon="35.05500136"><ele>404.6444981285706</ele><time>2012-04-26T05:36:57Z</time></trkpt><trkpt lat="32.74824209" lon="35.0550561"><ele>404.6661809942814</ele><time>2012-04-26T05:37:00Z</time></trkpt><trkpt lat="32.74814887" lon="35.05513651"><ele>403.83748569146536</ele><time>2012-04-26T05:37:03Z</time></trkpt><trkpt lat="32.74806291" lon="35.05522271"><ele>402.64751576246516</ele><time>2012-04-26T05:37:06Z</time></trkpt><trkpt lat="32.74798414" lon="35.05534037"><ele>400.3056326798963</ele><time>2012-04-26T05:37:09Z</time></trkpt><trkpt lat="32.74789644" lon="35.05542621"><ele>398.9880399988477</ele><time>2012-04-26T05:37:12Z</time></trkpt><trkpt lat="32.74780723" lon="35.05550871"><ele>398.06245599888473</ele><time>2012-04-26T05:37:15Z</time></trkpt><trkpt lat="32.74770574" lon="35.05559345"><ele>397.20637599875494</ele><time>2012-04-26T05:37:18Z</time></trkpt><trkpt lat="32.74759667" lon="35.05567709"><ele>396.4468239987674</ele><time>2012-04-26T05:37:21Z</time></trkpt><trkpt lat="32.74746618" lon="35.05574356"><ele>396.26377599866294</ele><time>2012-04-26T05:37:24Z</time></trkpt><trkpt lat="32.74733116" lon="35.05580305"><ele>396.27498399872053</ele><time>2012-04-26T05:37:27Z</time></trkpt><trkpt lat="32.74722329" lon="35.05586319"><ele>396.0115119988342</ele><time>2012-04-26T05:37:30Z</time></trkpt><trkpt lat="32.74709244" lon="35.05590275"><ele>396.4131759987119</ele><time>2012-04-26T05:37:33Z</time></trkpt><trkpt lat="32.74697797" lon="35.05595806"><ele>395.81164799880486</ele><time>2012-04-26T05:37:36Z</time></trkpt><trkpt lat="32.74686797" lon="35.05600821"><ele>395.25640799883956</ele><time>2012-04-26T05:37:39Z</time></trkpt><trkpt lat="32.74676141" lon="35.05606466"><ele>394.54857599893637</ele><time>2012-04-26T05:37:42Z</time></trkpt><trkpt lat="32.7466527" lon="35.05610093"><ele>394.28695199887886</ele><time>2012-04-26T05:37:45Z</time></trkpt><trkpt lat="32.7465415" lon="35.05611568"><ele>394.50211199891174</ele><time>2012-04-26T05:37:48Z</time></trkpt><trkpt lat="32.746435" lon="35.05612373"><ele>394.8394319988034</ele><time>2012-04-26T05:37:51Z</time></trkpt><trkpt lat="32.74632086" lon="35.05611897"><ele>395.49011999887273</ele><time>2012-04-26T05:37:54Z</time></trkpt><trkpt lat="32.74621136" lon="35.05610703"><ele>396.58228983966194</ele><time>2012-04-26T05:37:57Z</time></trkpt><trkpt lat="32.74611498" lon="35.05609199"><ele>398.13383660935176</ele><time>2012-04-26T05:38:00Z</time></trkpt><trkpt lat="32.74602408" lon="35.0560816"><ele>399.5100146061342</ele><time>2012-04-26T05:38:03Z</time></trkpt><trkpt lat="32.74592581" lon="35.05609509"><ele>400.4807296127506</ele><time>2012-04-26T05:38:06Z</time></trkpt><trkpt lat="32.74583842" lon="35.05613872"><ele>400.7045982062408</ele><time>2012-04-26T05:38:09Z</time></trkpt><trkpt lat="32.74576508" lon="35.0561794"><ele>400.8273061850383</ele><time>2012-04-26T05:38:12Z</time></trkpt><trkpt lat="32.74569186" lon="35.05622719"><ele>400.82347821930097</ele><time>2012-04-26T05:38:15Z</time></trkpt><trkpt lat="32.74561829" lon="35.05629383"><ele>400.39184399863643</ele><time>2012-04-26T05:38:18Z</time></trkpt><trkpt lat="32.74553258" lon="35.05632971"><ele>400.7482079986712</ele><time>2012-04-26T05:38:21Z</time></trkpt><trkpt lat="32.74546119" lon="35.05638683"><ele>400.45676399867875</ele><time>2012-04-26T05:38:24Z</time></trkpt><trkpt lat="32.74539496" lon="35.05646097"><ele>399.83376799857285</ele><time>2012-04-26T05:38:27Z</time></trkpt><trkpt lat="32.74529673" lon="35.05652461"><ele>400.2272839986974</ele><time>2012-04-26T05:38:30Z</time></trkpt><trkpt lat="32.74516688" lon="35.0566303"><ele>400.2816799985937</ele><time>2012-04-26T05:38:33Z</time></trkpt><trkpt lat="32.74504605" lon="35.05674329"><ele>400.0160359986385</ele><time>2012-04-26T05:38:36Z</time></trkpt><trkpt lat="32.74490578" lon="35.05687963"><ele>399.5959519986179</ele><time>2012-04-26T05:38:39Z</time></trkpt><trkpt lat="32.74475979" lon="35.05703479"><ele>398.87231599849855</ele><time>2012-04-26T05:38:42Z</time></trkpt><trkpt lat="32.74463093" lon="35.0571851"><ele>398.29053498095504</ele><time>2012-04-26T05:38:45Z</time></trkpt><trkpt lat="32.74452202" lon="35.05732746"><ele>397.2983715260492</ele><time>2012-04-26T05:38:48Z</time></trkpt><trkpt lat="32.74442594" lon="35.05744545"><ele>396.20647512098543</ele><time>2012-04-26T05:38:51Z</time></trkpt><trkpt lat="32.74431968" lon="35.05754498"><ele>395.5036617132048</ele><time>2012-04-26T05:38:54Z</time></trkpt><trkpt lat="32.74423749" lon="35.05765512"><ele>394.2884440113108</ele><time>2012-04-26T05:38:57Z</time></trkpt><trkpt lat="32.7441494" lon="35.0577489"><ele>393.3952226996192</ele><time>2012-04-26T05:39:00Z</time></trkpt><trkpt lat="32.7440618" lon="35.05783189"><ele>392.6600359085298</ele><time>2012-04-26T05:39:03Z</time></trkpt><trkpt lat="32.74397037" lon="35.05791127"><ele>391.9911149201485</ele><time>2012-04-26T05:39:06Z</time></trkpt><trkpt lat="32.74386901" lon="35.05799094"><ele>391.7497823550424</ele><time>2012-04-26T05:39:09Z</time></trkpt><trkpt lat="32.74375634" lon="35.05808693"><ele>391.482680690495</ele><time>2012-04-26T05:39:12Z</time></trkpt><trkpt lat="32.74363895" lon="35.05819541"><ele>390.5637104028473</ele><time>2012-04-26T05:39:15Z</time></trkpt><trkpt lat="32.7435379" lon="35.05830753"><ele>389.5090270416774</ele><time>2012-04-26T05:39:18Z</time></trkpt><trkpt lat="32.74343844" lon="35.05841504"><ele>388.5425054008296</ele><time>2012-04-26T05:39:21Z</time></trkpt><trkpt lat="32.74334205" lon="35.05850591"><ele>387.81920581661717</ele><time>2012-04-26T05:39:24Z</time></trkpt><trkpt lat="32.74325076" lon="35.05860569"><ele>386.9697587318128</ele><time>2012-04-26T05:39:27Z</time></trkpt><trkpt lat="32.7431417" lon="35.05868591"><ele>386.5165562352556</ele><time>2012-04-26T05:39:30Z</time></trkpt><trkpt lat="32.74302235" lon="35.0587854"><ele>385.87230193980895</ele><time>2012-04-26T05:39:33Z</time></trkpt><trkpt lat="32.74290753" lon="35.05885344"><ele>385.5214279990257</ele><time>2012-04-26T05:39:36Z</time></trkpt><trkpt lat="32.74283728" lon="35.05891063"><ele>384.78219199902236</ele><time>2012-04-26T05:39:39Z</time></trkpt><trkpt lat="32.74277775" lon="35.05897065"><ele>383.98933999903375</ele><time>2012-04-26T05:39:42Z</time></trkpt><trkpt lat="32.74273181" lon="35.05901783"><ele>383.3650759989934</ele><time>2012-04-26T05:39:45Z</time></trkpt><trkpt lat="32.7427454" lon="35.05905838"><ele>382.7648479989808</ele><time>2012-04-26T05:40:36Z</time></trkpt><trkpt lat="32.74277286" lon="35.05908823"><ele>382.3020559990163</ele><time>2012-04-26T05:41:15Z</time></trkpt><trkpt lat="32.74290916" lon="35.05917625"><ele>380.87100799901987</ele><time>2012-04-26T05:41:18Z</time></trkpt><trkpt lat="32.74299384" lon="35.05922767"><ele>379.8177618271217</ele><time>2012-04-26T05:41:21Z</time></trkpt><trkpt lat="32.74304222" lon="35.05932302"><ele>378.3059925460028</ele><time>2012-04-26T05:41:24Z</time></trkpt><trkpt lat="32.74304946" lon="35.05939846"><ele>377.2374162315578</ele><time>2012-04-26T05:41:27Z</time></trkpt><trkpt lat="32.74303147" lon="35.05945184"><ele>376.55276182773684</ele><time>2012-04-26T05:41:30Z</time></trkpt><trkpt lat="32.74299183" lon="35.05952167"><ele>375.68753756933177</ele><time>2012-04-26T05:41:33Z</time></trkpt><trkpt lat="32.74294355" lon="35.05961264"><ele>374.61442992038474</ele><time>2012-04-26T05:41:36Z</time></trkpt><trkpt lat="32.74287186" lon="35.05972367"><ele>373.54718674540334</ele><time>2012-04-26T05:41:39Z</time></trkpt><trkpt lat="32.74278795" lon="35.0598238"><ele>372.6019909767344</ele><time>2012-04-26T05:41:42Z</time></trkpt><trkpt lat="32.74275648" lon="35.05989529"><ele>371.8950506690556</ele><time>2012-04-26T05:41:45Z</time></trkpt><trkpt lat="32.74280926" lon="35.05991416"><ele>371.607127504011</ele><time>2012-04-26T05:41:48Z</time></trkpt><trkpt lat="32.74283452" lon="35.05993507"><ele>371.3414273514592</ele><time>2012-04-26T05:41:51Z</time></trkpt><trkpt lat="32.74281673" lon="35.05998564"><ele>370.8329074687187</ele><time>2012-04-26T05:41:54Z</time></trkpt><trkpt lat="32.74280849" lon="35.06006139"><ele>370.04126898949494</ele><time>2012-04-26T05:41:57Z</time></trkpt><trkpt lat="32.74285703" lon="35.06011452"><ele>369.38036461023387</ele><time>2012-04-26T05:42:00Z</time></trkpt><trkpt lat="32.74295803" lon="35.0600934"><ele>369.2704831875395</ele><time>2012-04-26T05:42:03Z</time></trkpt><trkpt lat="32.743064" lon="35.06001845"><ele>369.57788259103427</ele><time>2012-04-26T05:42:06Z</time></trkpt><trkpt lat="32.74316221" lon="35.05994809"><ele>369.95543784857114</ele><time>2012-04-26T05:42:09Z</time></trkpt><trkpt lat="32.74325639" lon="35.05991358"><ele>369.9717712081131</ele><time>2012-04-26T05:42:12Z</time></trkpt><trkpt lat="32.74336675" lon="35.05994662"><ele>369.05449058143256</ele><time>2012-04-26T05:42:15Z</time></trkpt><trkpt lat="32.74347779" lon="35.05998776"><ele>367.978360540708</ele><time>2012-04-26T05:42:18Z</time></trkpt><trkpt lat="32.74357233" lon="35.06002535"><ele>366.98329866175266</ele><time>2012-04-26T05:42:21Z</time></trkpt><trkpt lat="32.74364743" lon="35.06007157"><ele>365.91812778400475</ele><time>2012-04-26T05:42:24Z</time></trkpt><trkpt lat="32.743695" lon="35.06009463"><ele>365.3177507829194</ele><time>2012-04-26T05:42:27Z</time></trkpt><trkpt lat="32.74377" lon="35.06009393"><ele>364.7335127348263</ele><time>2012-04-26T05:42:30Z</time></trkpt><trkpt lat="32.7438583" lon="35.06010061"><ele>363.3037653217171</ele><time>2012-04-26T05:42:33Z</time></trkpt><trkpt lat="32.74395075" lon="35.0601037"><ele>361.8704903827916</ele><time>2012-04-26T05:42:36Z</time></trkpt><trkpt lat="32.74405815" lon="35.06010715"><ele>360.21150524842625</ele><time>2012-04-26T05:42:39Z</time></trkpt><trkpt lat="32.74414572" lon="35.06011105"><ele>358.84750950538785</ele><time>2012-04-26T05:42:42Z</time></trkpt><trkpt lat="32.74422474" lon="35.06010712"><ele>357.71590389597924</ele><time>2012-04-26T05:42:45Z</time></trkpt><trkpt lat="32.74431376" lon="35.06009837"><ele>356.4902047290445</ele><time>2012-04-26T05:42:48Z</time></trkpt><trkpt lat="32.74439395" lon="35.0600767"><ele>355.5423519571995</ele><time>2012-04-26T05:42:51Z</time></trkpt><trkpt lat="32.74446545" lon="35.06003486"><ele>354.9388217799865</ele><time>2012-04-26T05:42:54Z</time></trkpt><trkpt lat="32.74452701" lon="35.05997353"><ele>354.6731074598269</ele><time>2012-04-26T05:42:57Z</time></trkpt><trkpt lat="32.74455186" lon="35.05992903"><ele>354.77032589467825</ele><time>2012-04-26T05:43:00Z</time></trkpt><trkpt lat="32.74456429" lon="35.0598838"><ele>355.0647819303922</ele><time>2012-04-26T05:43:03Z</time></trkpt><trkpt lat="32.74458218" lon="35.05980079"><ele>355.67078339074754</ele><time>2012-04-26T05:43:06Z</time></trkpt><trkpt lat="32.74460886" lon="35.05971459"><ele>355.85040149410185</ele><time>2012-04-26T05:43:09Z</time></trkpt><trkpt lat="32.74463206" lon="35.05962538"><ele>356.1047478412774</ele><time>2012-04-26T05:43:12Z</time></trkpt><trkpt lat="32.74465321" lon="35.05954614"><ele>356.5026284107707</ele><time>2012-04-26T05:43:15Z</time></trkpt><trkpt lat="32.74463426" lon="35.05957495"><ele>356.60605393224984</ele><time>2012-04-26T05:43:18Z</time></trkpt><trkpt lat="32.74463533" lon="35.05953053"><ele>357.2836002991925</ele><time>2012-04-26T05:43:24Z</time></trkpt><trkpt lat="32.74466023" lon="35.05943861"><ele>358.0309109403728</ele><time>2012-04-26T05:43:27Z</time></trkpt><trkpt lat="32.7447165" lon="35.05931858"><ele>358.38899749445653</ele><time>2012-04-26T05:43:30Z</time></trkpt><trkpt lat="32.74477449" lon="35.05915461"><ele>359.54344792657355</ele><time>2012-04-26T05:43:33Z</time></trkpt><trkpt lat="32.74483612" lon="35.0590362"><ele>359.94749768171545</ele><time>2012-04-26T05:43:36Z</time></trkpt><trkpt lat="32.74491334" lon="35.05894422"><ele>359.58853195611135</ele><time>2012-04-26T05:43:39Z</time></trkpt><trkpt lat="32.74499022" lon="35.05887595"><ele>358.9009188938229</ele><time>2012-04-26T05:43:42Z</time></trkpt><trkpt lat="32.74504986" lon="35.05884595"><ele>357.9842447161789</ele><time>2012-04-26T05:43:45Z</time></trkpt><trkpt lat="32.74511903" lon="35.05879726"><ele>357.2237414225081</ele><time>2012-04-26T05:43:48Z</time></trkpt><trkpt lat="32.74520176" lon="35.05870965"><ele>356.9559261247147</ele><time>2012-04-26T05:43:51Z</time></trkpt><trkpt lat="32.74529757" lon="35.05862042"><ele>356.45730626602557</ele><time>2012-04-26T05:43:54Z</time></trkpt><trkpt lat="32.74536605" lon="35.05850638"><ele>357.1491340495024</ele><time>2012-04-26T05:43:57Z</time></trkpt><trkpt lat="32.74548409" lon="35.05842299"><ele>355.6390950500212</ele><time>2012-04-26T05:44:00Z</time></trkpt><trkpt lat="32.74554574" lon="35.05832543"><ele>356.0433943655036</ele><time>2012-04-26T05:44:03Z</time></trkpt><trkpt lat="32.74560036" lon="35.05829161"><ele>355.3365528392215</ele><time>2012-04-26T05:44:06Z</time></trkpt><trkpt lat="32.74566387" lon="35.05826282"><ele>354.34385042888874</ele><time>2012-04-26T05:44:09Z</time></trkpt><trkpt lat="32.74577109" lon="35.05827792"><ele>351.05991320991893</ele><time>2012-04-26T05:44:12Z</time></trkpt><trkpt lat="32.74590422" lon="35.05827443"><ele>347.5729439550795</ele><time>2012-04-26T05:44:15Z</time></trkpt><trkpt lat="32.74600976" lon="35.05826808"><ele>344.94188444512133</ele><time>2012-04-26T05:44:18Z</time></trkpt><trkpt lat="32.74610067" lon="35.05823563"><ele>343.64776916106337</ele><time>2012-04-26T05:44:21Z</time></trkpt><trkpt lat="32.74617508" lon="35.05819954"><ele>343.0338939932702</ele><time>2012-04-26T05:44:24Z</time></trkpt><trkpt lat="32.74626461" lon="35.05818083"><ele>341.6059817030495</ele><time>2012-04-26T05:44:27Z</time></trkpt><trkpt lat="32.74634797" lon="35.05816764"><ele>340.69266593932684</ele><time>2012-04-26T05:44:30Z</time></trkpt><trkpt lat="32.74644724" lon="35.05816035"><ele>339.2887667784597</ele><time>2012-04-26T05:44:33Z</time></trkpt><trkpt lat="32.74655436" lon="35.05814486"><ele>338.0893111623771</ele><time>2012-04-26T05:44:36Z</time></trkpt><trkpt lat="32.74662725" lon="35.05811975"><ele>337.87520803820223</ele><time>2012-04-26T05:44:39Z</time></trkpt><trkpt lat="32.74667666" lon="35.0581311"><ele>336.58288087275423</ele><time>2012-04-26T05:44:42Z</time></trkpt><trkpt lat="32.74670275" lon="35.05814411"><ele>335.61014017598967</ele><time>2012-04-26T05:44:45Z</time></trkpt><trkpt lat="32.74672768" lon="35.05818221"><ele>333.6207022991196</ele><time>2012-04-26T05:44:48Z</time></trkpt><trkpt lat="32.74677408" lon="35.05822622"><ele>331.0030551032848</ele><time>2012-04-26T05:44:51Z</time></trkpt><trkpt lat="32.74682347" lon="35.0582669"><ele>328.44802173464404</ele><time>2012-04-26T05:44:54Z</time></trkpt><trkpt lat="32.74688627" lon="35.0582994"><ele>325.9745427873916</ele><time>2012-04-26T05:44:57Z</time></trkpt><trkpt lat="32.74695159" lon="35.05833809"><ele>323.1695015548673</ele><time>2012-04-26T05:45:00Z</time></trkpt><trkpt lat="32.74703322" lon="35.05837566"><ele>320.0857457090699</ele><time>2012-04-26T05:45:03Z</time></trkpt><trkpt lat="32.74710738" lon="35.05840385"><ele>317.99940579352244</ele><time>2012-04-26T05:45:06Z</time></trkpt><trkpt lat="32.74716134" lon="35.05841834"><ele>317.4776727634357</ele><time>2012-04-26T05:45:09Z</time></trkpt><trkpt lat="32.74719623" lon="35.05842451"><ele>317.27920469873555</ele><time>2012-04-26T05:45:12Z</time></trkpt><trkpt lat="32.74724644" lon="35.05844375"><ele>316.54952595860846</ele><time>2012-04-26T05:45:15Z</time></trkpt><trkpt lat="32.74730094" lon="35.05847535"><ele>315.30107343238956</ele><time>2012-04-26T05:45:18Z</time></trkpt><trkpt lat="32.74736973" lon="35.05850077"><ele>314.35130275525535</ele><time>2012-04-26T05:45:21Z</time></trkpt><trkpt lat="32.7474274" lon="35.05850752"><ele>314.1807578278677</ele><time>2012-04-26T05:45:24Z</time></trkpt><trkpt lat="32.74747572" lon="35.05850979"><ele>314.18307250888483</ele><time>2012-04-26T05:45:27Z</time></trkpt><trkpt lat="32.74751422" lon="35.05851233"><ele>314.1540032776759</ele><time>2012-04-26T05:45:49Z</time></trkpt><trkpt lat="32.74755533" lon="35.05853471"><ele>313.2869927247381</ele><time>2012-04-26T05:45:52Z</time></trkpt><trkpt lat="32.74760555" lon="35.05857536"><ele>311.6664401158761</ele><time>2012-04-26T05:45:55Z</time></trkpt><trkpt lat="32.74768097" lon="35.05859891"><ele>310.83138842816567</ele><time>2012-04-26T05:45:58Z</time></trkpt><trkpt lat="32.74774699" lon="35.05861742"><ele>310.1935298535817</ele><time>2012-04-26T05:46:01Z</time></trkpt><trkpt lat="32.74782274" lon="35.05865297"><ele>308.86295973326014</ele><time>2012-04-26T05:46:04Z</time></trkpt><trkpt lat="32.74789154" lon="35.05869499"><ele>307.2521063925659</ele><time>2012-04-26T05:46:07Z</time></trkpt><trkpt lat="32.74794294" lon="35.05871344"><ele>306.3640480345225</ele><time>2012-04-26T05:46:10Z</time></trkpt><trkpt lat="32.74799463" lon="35.05871913"><ele>305.7941031139851</ele><time>2012-04-26T05:46:13Z</time></trkpt><trkpt lat="32.74802461" lon="35.05871876"><ele>305.6158610425567</ele><time>2012-04-26T05:46:16Z</time></trkpt><trkpt lat="32.74799404" lon="35.05870392"><ele>306.4197787685689</ele><time>2012-04-26T05:46:30Z</time></trkpt><trkpt lat="32.74796207" lon="35.05869474"><ele>307.0123705685422</ele><time>2012-04-26T05:46:34Z</time></trkpt><trkpt lat="32.74793245" lon="35.05868325"><ele>307.6936290585476</ele><time>2012-04-26T05:46:37Z</time></trkpt><trkpt lat="32.74790597" lon="35.05867225"><ele>308.2410255974817</ele><time>2012-04-26T05:46:47Z</time></trkpt><trkpt lat="32.74787617" lon="35.05868918"><ele>307.4607947291026</ele><time>2012-04-26T05:47:04Z</time></trkpt><trkpt lat="32.74785246" lon="35.05870696"><ele>306.65756337372875</ele><time>2012-04-26T05:48:01Z</time></trkpt><trkpt lat="32.74789223" lon="35.05870772"><ele>306.7185997811364</ele><time>2012-04-26T05:48:10Z</time></trkpt><trkpt lat="32.74795304" lon="35.05872599"><ele>305.77760413690396</ele><time>2012-04-26T05:48:13Z</time></trkpt><trkpt lat="32.74800395" lon="35.05873987"><ele>304.8890278043946</ele><time>2012-04-26T05:48:16Z</time></trkpt><trkpt lat="32.74804888" lon="35.05876178"><ele>303.68525132720873</ele><time>2012-04-26T05:48:19Z</time></trkpt><trkpt lat="32.7480906" lon="35.05876615"><ele>303.2482749539469</ele><time>2012-04-26T05:48:22Z</time></trkpt><trkpt lat="32.74811951" lon="35.05876337"><ele>303.2006051134257</ele><time>2012-04-26T05:48:32Z</time></trkpt><trkpt lat="32.74808533" lon="35.05875892"><ele>303.59643312595415</ele><time>2012-04-26T05:48:36Z</time></trkpt><trkpt lat="32.74811446" lon="35.05876227"><ele>303.2781913944389</ele><time>2012-04-26T05:48:46Z</time></trkpt><trkpt lat="32.74808863" lon="35.05875275"><ele>303.8475868223543</ele><time>2012-04-26T05:49:07Z</time></trkpt><trkpt lat="32.74806346" lon="35.05874067"><ele>304.4913780207992</ele><time>2012-04-26T05:49:24Z</time></trkpt><trkpt lat="32.74809259" lon="35.05874327"><ele>304.2100709165603</ele><time>2012-04-26T05:49:32Z</time></trkpt><trkpt lat="32.7481611" lon="35.05873184"><ele>304.2321997042937</ele><time>2012-04-26T05:49:35Z</time></trkpt><trkpt lat="32.74825631" lon="35.05873574"><ele>303.49131627794003</ele><time>2012-04-26T05:49:38Z</time></trkpt><trkpt lat="32.74833058" lon="35.05877018"><ele>301.68050793084296</ele><time>2012-04-26T05:49:41Z</time></trkpt><trkpt lat="32.7483902" lon="35.05877375"><ele>301.18916387861856</ele><time>2012-04-26T05:49:44Z</time></trkpt><trkpt lat="32.74837736" lon="35.05881564"><ele>299.54747429553544</ele><time>2012-04-26T05:49:50Z</time></trkpt><trkpt lat="32.74835475" lon="35.05886029"><ele>297.8293034039356</ele><time>2012-04-26T05:49:53Z</time></trkpt><trkpt lat="32.74834912" lon="35.05890669"><ele>295.94324801565955</ele><time>2012-04-26T05:49:56Z</time></trkpt><trkpt lat="32.74837114" lon="35.05893403"><ele>294.72445021206164</ele><time>2012-04-26T05:49:59Z</time></trkpt><trkpt lat="32.74842648" lon="35.05890646"><ele>295.61057917142716</ele><time>2012-04-26T05:50:02Z</time></trkpt><trkpt lat="32.7484753" lon="35.05885639"><ele>297.39590064192237</ele><time>2012-04-26T05:50:05Z</time></trkpt><trkpt lat="32.74850084" lon="35.05878677"><ele>300.0347669377203</ele><time>2012-04-26T05:50:08Z</time></trkpt><trkpt lat="32.74857143" lon="35.05871458"><ele>302.225099270149</ele><time>2012-04-26T05:50:11Z</time></trkpt><trkpt lat="32.74867526" lon="35.05862888"><ele>304.21239612550505</ele><time>2012-04-26T05:50:14Z</time></trkpt><trkpt lat="32.74879589" lon="35.05852179"><ele>305.19951392629105</ele><time>2012-04-26T05:50:17Z</time></trkpt><trkpt lat="32.74886989" lon="35.05843327"><ele>305.2607150941923</ele><time>2012-04-26T05:50:20Z</time></trkpt><trkpt lat="32.74890138" lon="35.05839953"><ele>305.1883558943092</ele><time>2012-04-26T05:50:23Z</time></trkpt><trkpt lat="32.74887288" lon="35.05840097"><ele>306.14680352325837</ele><time>2012-04-26T05:50:33Z</time></trkpt><trkpt lat="32.74890576" lon="35.05840715"><ele>304.79882533859035</ele><time>2012-04-26T05:50:49Z</time></trkpt><trkpt lat="32.74891252" lon="35.05844021"><ele>303.53795512631325</ele><time>2012-04-26T05:51:02Z</time></trkpt><trkpt lat="32.74889649" lon="35.05840588"><ele>305.16453439785926</ele><time>2012-04-26T05:51:33Z</time></trkpt><trkpt lat="32.74891195" lon="35.05837885"><ele>305.4561805953307</ele><time>2012-04-26T05:51:40Z</time></trkpt><trkpt lat="32.74891892" lon="35.05834761"><ele>306.1793930987309</ele><time>2012-04-26T05:52:09Z</time></trkpt><trkpt lat="32.74889259" lon="35.05836823"><ele>306.46230672413685</ele><time>2012-04-26T05:52:23Z</time></trkpt><trkpt lat="32.74890264" lon="35.05840446"><ele>304.99179297804073</ele><time>2012-04-26T05:53:15Z</time></trkpt><trkpt lat="32.74893132" lon="35.05842076"><ele>303.47595530820047</ele><time>2012-04-26T05:53:20Z</time></trkpt><trkpt lat="32.74894407" lon="35.05838869"><ele>304.0237839249849</ele><time>2012-04-26T05:53:54Z</time></trkpt><trkpt lat="32.7489948" lon="35.05837089"><ele>302.8013032957975</ele><time>2012-04-26T05:53:57Z</time></trkpt><trkpt lat="32.74906907" lon="35.05831465"><ele>301.99120103564843</ele><time>2012-04-26T05:54:00Z</time></trkpt><trkpt lat="32.74914911" lon="35.05824678"><ele>301.4065471715819</ele><time>2012-04-26T05:54:03Z</time></trkpt><trkpt lat="32.74921081" lon="35.05820674"><ele>300.59762432815523</ele><time>2012-04-26T05:54:06Z</time></trkpt><trkpt lat="32.74923408" lon="35.05818957"><ele>300.36777141563476</ele><time>2012-04-26T05:54:09Z</time></trkpt><trkpt lat="32.74926404" lon="35.05819475"><ele>299.1792352880776</ele><time>2012-04-26T05:54:33Z</time></trkpt><trkpt lat="32.74930662" lon="35.05820068"><ele>297.5345279892874</ele><time>2012-04-26T05:54:36Z</time></trkpt><trkpt lat="32.74936024" lon="35.05816729"><ele>296.82858739266834</ele><time>2012-04-26T05:54:39Z</time></trkpt><trkpt lat="32.74943202" lon="35.05815139"><ele>294.93875659350334</ele><time>2012-04-26T05:54:42Z</time></trkpt><trkpt lat="32.74950949" lon="35.05813378"><ele>292.92932646254366</ele><time>2012-04-26T05:54:45Z</time></trkpt><trkpt lat="32.7495998" lon="35.0581116"><ele>290.70047966579415</ele><time>2012-04-26T05:54:48Z</time></trkpt><trkpt lat="32.74969312" lon="35.05808386"><ele>288.7819274383104</ele><time>2012-04-26T05:54:51Z</time></trkpt><trkpt lat="32.74980062" lon="35.05806413"><ele>286.19515806102754</ele><time>2012-04-26T05:54:54Z</time></trkpt><trkpt lat="32.74988555" lon="35.05806412"><ele>283.58724939906483</ele><time>2012-04-26T05:54:57Z</time></trkpt><trkpt lat="32.74994017" lon="35.05805782"><ele>282.15818984120733</ele><time>2012-04-26T05:55:00Z</time></trkpt><trkpt lat="32.74993557" lon="35.05802529"><ele>283.5796278720157</ele><time>2012-04-26T05:55:08Z</time></trkpt><trkpt lat="32.74996503" lon="35.05802576"><ele>282.6710263189463</ele><time>2012-04-26T05:55:39Z</time></trkpt><trkpt lat="32.74999013" lon="35.05800779"><ele>282.6327540578524</ele><time>2012-04-26T05:55:47Z</time></trkpt><trkpt lat="32.74996784" lon="35.05803005"><ele>282.4154554461856</ele><time>2012-04-26T05:56:04Z</time></trkpt><trkpt lat="32.74998018" lon="35.05799997"><ele>283.24341989242</ele><time>2012-04-26T05:57:02Z</time></trkpt><trkpt lat="32.75000565" lon="35.05798815"><ele>282.9584157028174</ele><time>2012-04-26T05:57:56Z</time></trkpt><trkpt lat="32.75003962" lon="35.05796783"><ele>282.77590689536817</ele><time>2012-04-26T05:58:04Z</time></trkpt><trkpt lat="32.75007274" lon="35.05797288"><ele>281.59231910434943</ele><time>2012-04-26T05:58:08Z</time></trkpt><trkpt lat="32.75011118" lon="35.05796312"><ele>280.8636577250308</ele><time>2012-04-26T05:58:11Z</time></trkpt><trkpt lat="32.75018762" lon="35.0578968"><ele>281.30519143140776</ele><time>2012-04-26T05:58:14Z</time></trkpt><trkpt lat="32.7502809" lon="35.05780221"><ele>282.008143262362</ele><time>2012-04-26T05:58:17Z</time></trkpt><trkpt lat="32.7503735" lon="35.05772354"><ele>282.1837552448834</ele><time>2012-04-26T05:58:20Z</time></trkpt><trkpt lat="32.75044322" lon="35.05765587"><ele>282.24765220816585</ele><time>2012-04-26T05:58:23Z</time></trkpt><trkpt lat="32.75049608" lon="35.05759109"><ele>282.3601316920712</ele><time>2012-04-26T05:58:26Z</time></trkpt><trkpt lat="32.7505426" lon="35.05752581"><ele>282.82443657759916</ele><time>2012-04-26T05:58:29Z</time></trkpt><trkpt lat="32.7505857" lon="35.05747693"><ele>282.8718479560848</ele><time>2012-04-26T05:58:32Z</time></trkpt><trkpt lat="32.75061627" lon="35.05745449"><ele>282.4663481910691</ele><time>2012-04-26T05:58:35Z</time></trkpt><trkpt lat="32.75062917" lon="35.05748532"><ele>280.76228705143075</ele><time>2012-04-26T05:58:43Z</time></trkpt><trkpt lat="32.75061587" lon="35.05751519"><ele>280.17564094026073</ele><time>2012-04-26T05:58:46Z</time></trkpt><trkpt lat="32.75059032" lon="35.05754296"><ele>280.1889937144667</ele><time>2012-04-26T05:58:57Z</time></trkpt><trkpt lat="32.75055983" lon="35.0576029"><ele>279.220144407698</ele><time>2012-04-26T05:59:00Z</time></trkpt><trkpt lat="32.75051484" lon="35.05767157"><ele>278.5893205224137</ele><time>2012-04-26T05:59:03Z</time></trkpt><trkpt lat="32.75048359" lon="35.05771375"><ele>278.3901809842383</ele><time>2012-04-26T05:59:06Z</time></trkpt><trkpt lat="32.75052715" lon="35.05768467"><ele>277.5722081898248</ele><time>2012-04-26T05:59:15Z</time></trkpt><trkpt lat="32.7505828" lon="35.05763812"><ele>276.9184609314962</ele><time>2012-04-26T05:59:18Z</time></trkpt><trkpt lat="32.75064004" lon="35.05758057"><ele>276.670412328428</ele><time>2012-04-26T05:59:21Z</time></trkpt><trkpt lat="32.7506919" lon="35.0575271"><ele>276.5545550589848</ele><time>2012-04-26T05:59:24Z</time></trkpt><trkpt lat="32.75075342" lon="35.05747179"><ele>276.16973009834555</ele><time>2012-04-26T05:59:27Z</time></trkpt><trkpt lat="32.75081649" lon="35.05742579"><ele>275.4179565649856</ele><time>2012-04-26T05:59:30Z</time></trkpt><trkpt lat="32.75090406" lon="35.05736013"><ele>274.544406789887</ele><time>2012-04-26T05:59:33Z</time></trkpt><trkpt lat="32.750985" lon="35.05729756"><ele>273.918578270128</ele><time>2012-04-26T05:59:36Z</time></trkpt><trkpt lat="32.75104235" lon="35.05725633"><ele>273.4056293971663</ele><time>2012-04-26T05:59:39Z</time></trkpt><trkpt lat="32.75108472" lon="35.05723381"><ele>272.7179494955129</ele><time>2012-04-26T05:59:42Z</time></trkpt><trkpt lat="32.75115634" lon="35.05718601"><ele>272.0222442997775</ele><time>2012-04-26T05:59:45Z</time></trkpt><trkpt lat="32.75122784" lon="35.05712233"><ele>272.1016107929463</ele><time>2012-04-26T05:59:48Z</time></trkpt><trkpt lat="32.7512878" lon="35.05705025"><ele>272.13248237411597</ele><time>2012-04-26T05:59:51Z</time></trkpt><trkpt lat="32.75133984" lon="35.05698487"><ele>271.5823344843382</ele><time>2012-04-26T05:59:54Z</time></trkpt><trkpt lat="32.75140312" lon="35.05692565"><ele>270.30677611741413</ele><time>2012-04-26T05:59:57Z</time></trkpt><trkpt lat="32.75149565" lon="35.0568611"><ele>267.7887557893292</ele><time>2012-04-26T06:00:00Z</time></trkpt><trkpt lat="32.75158563" lon="35.0567826"><ele>265.90316775406995</ele><time>2012-04-26T06:00:03Z</time></trkpt><trkpt lat="32.75165711" lon="35.05671378"><ele>264.66165906285346</ele><time>2012-04-26T06:00:06Z</time></trkpt><trkpt lat="32.75171873" lon="35.05665957"><ele>263.4555081350293</ele><time>2012-04-26T06:00:09Z</time></trkpt><trkpt lat="32.75178935" lon="35.05658642"><ele>262.4782600893775</ele><time>2012-04-26T06:00:12Z</time></trkpt><trkpt lat="32.7518625" lon="35.05652715"><ele>260.95458109812677</ele><time>2012-04-26T06:00:15Z</time></trkpt><trkpt lat="32.75192713" lon="35.05648477"><ele>259.2987424187538</ele><time>2012-04-26T06:00:18Z</time></trkpt><trkpt lat="32.75196673" lon="35.05644469"><ele>258.7798944910903</ele><time>2012-04-26T06:00:21Z</time></trkpt><trkpt lat="32.75200199" lon="35.0563932"><ele>258.8738289365514</ele><time>2012-04-26T06:00:24Z</time></trkpt><trkpt lat="32.75204466" lon="35.05631914"><ele>259.4153911349492</ele><time>2012-04-26T06:00:27Z</time></trkpt><trkpt lat="32.75207211" lon="35.05623534"><ele>261.0508796366748</ele><time>2012-04-26T06:00:30Z</time></trkpt><trkpt lat="32.75209419" lon="35.05614577"><ele>263.32887395878186</ele><time>2012-04-26T06:00:33Z</time></trkpt><trkpt lat="32.7521012" lon="35.05610782"><ele>264.42559202651245</ele><time>2012-04-26T06:00:36Z</time></trkpt><trkpt lat="32.7521173" lon="35.05608171"><ele>264.7462856001522</ele><time>2012-04-26T06:01:07Z</time></trkpt><trkpt lat="32.75215514" lon="35.05608726"><ele>263.0824063039622</ele><time>2012-04-26T06:01:17Z</time></trkpt><trkpt lat="32.75223696" lon="35.05607323"><ele>260.43652593291546</ele><time>2012-04-26T06:01:20Z</time></trkpt><trkpt lat="32.75231514" lon="35.05604969"><ele>258.2990711922299</ele><time>2012-04-26T06:01:23Z</time></trkpt><trkpt lat="32.75239552" lon="35.05601325"><ele>256.5861307119324</ele><time>2012-04-26T06:01:26Z</time></trkpt><trkpt lat="32.75248585" lon="35.05598069"><ele>254.37989415616775</ele><time>2012-04-26T06:01:29Z</time></trkpt><trkpt lat="32.75257641" lon="35.05594774"><ele>252.21397915299087</ele><time>2012-04-26T06:01:32Z</time></trkpt><trkpt lat="32.75264979" lon="35.05592007"><ele>250.5222884350406</ele><time>2012-04-26T06:01:35Z</time></trkpt><trkpt lat="32.75271077" lon="35.05590621"><ele>248.77241715957953</ele><time>2012-04-26T06:01:38Z</time></trkpt><trkpt lat="32.75277717" lon="35.05589879"><ele>246.57123848225865</ele><time>2012-04-26T06:01:41Z</time></trkpt><trkpt lat="32.75285162" lon="35.05587674"><ele>244.66500712188287</ele><time>2012-04-26T06:01:44Z</time></trkpt><trkpt lat="32.75292753" lon="35.05583524"><ele>243.52452051916325</ele><time>2012-04-26T06:01:47Z</time></trkpt><trkpt lat="32.7530093" lon="35.05580882"><ele>241.6195736457958</ele><time>2012-04-26T06:01:50Z</time></trkpt><trkpt lat="32.75310081" lon="35.05580251"><ele>238.5424659353638</ele><time>2012-04-26T06:01:53Z</time></trkpt><trkpt lat="32.75316723" lon="35.05579098"><ele>236.60324266939088</ele><time>2012-04-26T06:01:56Z</time></trkpt><trkpt lat="32.75322439" lon="35.0557614"><ele>235.76783163953482</ele><time>2012-04-26T06:01:59Z</time></trkpt><trkpt lat="32.75327447" lon="35.05572101"><ele>235.6608093428067</ele><time>2012-04-26T06:02:02Z</time></trkpt><trkpt lat="32.75332769" lon="35.05568068"><ele>235.45585643212377</ele><time>2012-04-26T06:02:05Z</time></trkpt><trkpt lat="32.75338889" lon="35.05564234"><ele>234.89878131526152</ele><time>2012-04-26T06:02:08Z</time></trkpt><trkpt lat="32.75346781" lon="35.05560801"><ele>233.5578271554276</ele><time>2012-04-26T06:02:11Z</time></trkpt><trkpt lat="32.75354433" lon="35.05557801"><ele>232.13702464665414</ele><time>2012-04-26T06:02:14Z</time></trkpt><trkpt lat="32.75359709" lon="35.05553395"><ele>232.19136199067626</ele><time>2012-04-26T06:02:17Z</time></trkpt><trkpt lat="32.75364959" lon="35.0554936"><ele>232.11179946262737</ele><time>2012-04-26T06:02:20Z</time></trkpt><trkpt lat="32.7537017" lon="35.05544765"><ele>232.31164485677965</ele><time>2012-04-26T06:02:23Z</time></trkpt><trkpt lat="32.75375356" lon="35.05539039"><ele>232.58534917950925</ele><time>2012-04-26T06:02:26Z</time></trkpt><trkpt lat="32.75381075" lon="35.05533899"><ele>231.29390737904637</ele><time>2012-04-26T06:02:29Z</time></trkpt><trkpt lat="32.7538661" lon="35.05527582"><ele>230.38939476170052</ele><time>2012-04-26T06:02:32Z</time></trkpt><trkpt lat="32.75391561" lon="35.05521939"><ele>229.54410310306866</ele><time>2012-04-26T06:02:35Z</time></trkpt><trkpt lat="32.75396177" lon="35.0551803"><ele>228.35408107293543</ele><time>2012-04-26T06:02:38Z</time></trkpt><trkpt lat="32.7540105" lon="35.05514289"><ele>226.9699715855436</ele><time>2012-04-26T06:02:41Z</time></trkpt><trkpt lat="32.75405742" lon="35.05509922"><ele>225.82418874154598</ele><time>2012-04-26T06:02:44Z</time></trkpt><trkpt lat="32.75409665" lon="35.05506226"><ele>224.86006678929994</ele><time>2012-04-26T06:02:47Z</time></trkpt><trkpt lat="32.75412304" lon="35.05503605"><ele>224.23800500811095</ele><time>2012-04-26T06:02:57Z</time></trkpt><trkpt lat="32.75409315" lon="35.05507768"><ele>224.62159393617878</ele><time>2012-04-26T06:03:13Z</time></trkpt><trkpt lat="32.75405886" lon="35.05515224"><ele>224.31978407359026</ele><time>2012-04-26T06:03:16Z</time></trkpt><trkpt lat="32.75402632" lon="35.05521652"><ele>224.18230992306565</ele><time>2012-04-26T06:03:19Z</time></trkpt><trkpt lat="32.75399309" lon="35.05529241"><ele>223.73628801239045</ele><time>2012-04-26T06:03:22Z</time></trkpt><trkpt lat="32.75395884" lon="35.05536085"><ele>223.51605710284062</ele><time>2012-04-26T06:03:25Z</time></trkpt><trkpt lat="32.75391845" lon="35.05542287"><ele>223.65100983932453</ele><time>2012-04-26T06:03:28Z</time></trkpt><trkpt lat="32.75386738" lon="35.05549675"><ele>222.91835009065446</ele><time>2012-04-26T06:03:31Z</time></trkpt><trkpt lat="32.7538216" lon="35.05555948"><ele>222.3400850054148</ele><time>2012-04-26T06:03:34Z</time></trkpt><trkpt lat="32.75378891" lon="35.05561758"><ele>221.3018260335616</ele><time>2012-04-26T06:03:37Z</time></trkpt><trkpt lat="32.75375583" lon="35.05567768"><ele>220.14869807099294</ele><time>2012-04-26T06:03:40Z</time></trkpt><trkpt lat="32.75372009" lon="35.05573998"><ele>218.72753170207918</ele><time>2012-04-26T06:03:43Z</time></trkpt><trkpt lat="32.75370505" lon="35.05576842"><ele>218.0147168675626</ele><time>2012-04-26T06:03:47Z</time></trkpt><trkpt lat="32.75370095" lon="35.05580091"><ele>216.72795562346965</ele><time>2012-04-26T06:03:58Z</time></trkpt><trkpt lat="32.75368393" lon="35.05582973"><ele>216.07712152623657</ele><time>2012-04-26T06:04:06Z</time></trkpt><trkpt lat="32.75366096" lon="35.05585566"><ele>215.77614801327366</ele><time>2012-04-26T06:04:11Z</time></trkpt><trkpt lat="32.75361587" lon="35.0558913"><ele>215.86902629651618</ele><time>2012-04-26T06:04:14Z</time></trkpt><trkpt lat="32.75355204" lon="35.05594419"><ele>215.91810320064994</ele><time>2012-04-26T06:04:17Z</time></trkpt><trkpt lat="32.75349443" lon="35.0559902"><ele>216.06217258679172</ele><time>2012-04-26T06:04:20Z</time></trkpt><trkpt lat="32.7534684" lon="35.05601513"><ele>215.95594582480777</ele><time>2012-04-26T06:04:23Z</time></trkpt><trkpt lat="32.75343684" lon="35.05602769"><ele>216.595155648032</ele><time>2012-04-26T06:04:27Z</time></trkpt><trkpt lat="32.7533946" lon="35.05605626"><ele>216.95196155164504</ele><time>2012-04-26T06:04:30Z</time></trkpt><trkpt lat="32.75333227" lon="35.05609284"><ele>217.7351260681505</ele><time>2012-04-26T06:04:33Z</time></trkpt><trkpt lat="32.7532937" lon="35.05611036"><ele>218.44667539611854</ele><time>2012-04-26T06:04:36Z</time></trkpt><trkpt lat="32.75327119" lon="35.05612982"><ele>218.47370857155303</ele><time>2012-04-26T06:04:47Z</time></trkpt><trkpt lat="32.7532328" lon="35.05615338"><ele>218.9345295459356</ele><time>2012-04-26T06:04:50Z</time></trkpt><trkpt lat="32.75317334" lon="35.05619317"><ele>219.52542273912428</ele><time>2012-04-26T06:04:53Z</time></trkpt><trkpt lat="32.75311164" lon="35.05624298"><ele>219.8053528375683</ele><time>2012-04-26T06:04:56Z</time></trkpt><trkpt lat="32.75307122" lon="35.05630028"><ele>218.4663187774632</ele><time>2012-04-26T06:04:59Z</time></trkpt><trkpt lat="32.75302679" lon="35.05634544"><ele>217.8077052288111</ele><time>2012-04-26T06:05:02Z</time></trkpt><trkpt lat="32.75296906" lon="35.05637945"><ele>218.20196868054038</ele><time>2012-04-26T06:05:05Z</time></trkpt><trkpt lat="32.75290239" lon="35.0564208"><ele>218.59978661883582</ele><time>2012-04-26T06:05:08Z</time></trkpt><trkpt lat="32.75284974" lon="35.0564689"><ele>218.40882134042067</ele><time>2012-04-26T06:05:11Z</time></trkpt><trkpt lat="32.75282006" lon="35.05652236"><ele>217.01335069945904</ele><time>2012-04-26T06:05:14Z</time></trkpt><trkpt lat="32.75276625" lon="35.05657196"><ele>217.00306003804187</ele><time>2012-04-26T06:05:17Z</time></trkpt><trkpt lat="32.75269971" lon="35.05661397"><ele>218.07952750600634</ele><time>2012-04-26T06:05:20Z</time></trkpt><trkpt lat="32.75264064" lon="35.0566769"><ele>217.93558893233805</ele><time>2012-04-26T06:05:23Z</time></trkpt><trkpt lat="32.75259435" lon="35.0567639"><ele>216.207612353902</ele><time>2012-04-26T06:05:26Z</time></trkpt><trkpt lat="32.75255105" lon="35.05685851"><ele>214.15469019125524</ele><time>2012-04-26T06:05:29Z</time></trkpt><trkpt lat="32.75250626" lon="35.05692525"><ele>213.58484939420995</ele><time>2012-04-26T06:05:32Z</time></trkpt><trkpt lat="32.75243951" lon="35.05699662"><ele>214.16896974398222</ele><time>2012-04-26T06:05:35Z</time></trkpt><trkpt lat="32.75237279" lon="35.0570788"><ele>214.51339959467643</ele><time>2012-04-26T06:05:38Z</time></trkpt><trkpt lat="32.75233113" lon="35.05716517"><ele>213.01116567870181</ele><time>2012-04-26T06:05:41Z</time></trkpt><trkpt lat="32.75228075" lon="35.05723894"><ele>212.40552608302474</ele><time>2012-04-26T06:05:44Z</time></trkpt><trkpt lat="32.75224123" lon="35.05732137"><ele>210.66582155359546</ele><time>2012-04-26T06:05:47Z</time></trkpt><trkpt lat="32.75220221" lon="35.05740646"><ele>208.64151037410724</ele><time>2012-04-26T06:05:50Z</time></trkpt><trkpt lat="32.75216885" lon="35.05749786"><ele>205.89674660402784</ele><time>2012-04-26T06:05:53Z</time></trkpt><trkpt lat="32.75214049" lon="35.05760337"><ele>202.09715501602471</ele><time>2012-04-26T06:05:56Z</time></trkpt><trkpt lat="32.75209417" lon="35.05771777"><ele>198.53880360041222</ele><time>2012-04-26T06:05:59Z</time></trkpt><trkpt lat="32.75205979" lon="35.05781876"><ele>195.2457436430021</ele><time>2012-04-26T06:06:02Z</time></trkpt><trkpt lat="32.75201743" lon="35.05790241"><ele>193.42871915255694</ele><time>2012-04-26T06:06:05Z</time></trkpt><trkpt lat="32.75196451" lon="35.05798517"><ele>193.01250147820983</ele><time>2012-04-26T06:06:08Z</time></trkpt><trkpt lat="32.75191278" lon="35.05807568"><ele>192.3178301690143</ele><time>2012-04-26T06:06:11Z</time></trkpt><trkpt lat="32.75185645" lon="35.05815225"><ele>192.364980488217</ele><time>2012-04-26T06:06:14Z</time></trkpt><trkpt lat="32.75180264" lon="35.05823153"><ele>192.10401572025052</ele><time>2012-04-26T06:06:17Z</time></trkpt><trkpt lat="32.75174559" lon="35.05831094"><ele>191.94985303134402</ele><time>2012-04-26T06:06:20Z</time></trkpt><trkpt lat="32.75169178" lon="35.05837884"><ele>192.03320033131675</ele><time>2012-04-26T06:06:23Z</time></trkpt><trkpt lat="32.75165458" lon="35.05844077"><ele>191.4382004297167</ele><time>2012-04-26T06:06:26Z</time></trkpt><trkpt lat="32.75162156" lon="35.05848895"><ele>191.1656266847754</ele><time>2012-04-26T06:06:29Z</time></trkpt><trkpt lat="32.75159886" lon="35.05851837"><ele>191.1200216169947</ele><time>2012-04-26T06:06:32Z</time></trkpt><trkpt lat="32.75157174" lon="35.05853927"><ele>191.6525540526278</ele><time>2012-04-26T06:07:00Z</time></trkpt><trkpt lat="32.7515227" lon="35.05860111"><ele>191.57429941645876</ele><time>2012-04-26T06:07:03Z</time></trkpt><trkpt lat="32.75145695" lon="35.05869483"><ele>190.93706249139075</ele><time>2012-04-26T06:07:06Z</time></trkpt><trkpt lat="32.75139624" lon="35.05877127"><ele>190.60051026799826</ele><time>2012-04-26T06:07:09Z</time></trkpt><trkpt lat="32.75133647" lon="35.05881498"><ele>191.3808811329779</ele><time>2012-04-26T06:07:12Z</time></trkpt><trkpt lat="32.75127375" lon="35.05885806"><ele>192.17504068992704</ele><time>2012-04-26T06:07:15Z</time></trkpt><trkpt lat="32.75119912" lon="35.05890684"><ele>193.02388490854787</ele><time>2012-04-26T06:07:18Z</time></trkpt><trkpt lat="32.75115758" lon="35.05895788"><ele>192.2380466709568</ele><time>2012-04-26T06:07:21Z</time></trkpt><trkpt lat="32.75113549" lon="35.05903885"><ele>189.023482987617</ele><time>2012-04-26T06:07:24Z</time></trkpt><trkpt lat="32.75111152" lon="35.05912571"><ele>185.61070712553362</ele><time>2012-04-26T06:07:27Z</time></trkpt><trkpt lat="32.75106669" lon="35.05923653"><ele>181.96389028829947</ele><time>2012-04-26T06:07:30Z</time></trkpt><trkpt lat="32.75099199" lon="35.05935112"><ele>179.60985503186123</ele><time>2012-04-26T06:07:33Z</time></trkpt><trkpt lat="32.75090463" lon="35.0594728"><ele>177.60847658923265</ele><time>2012-04-26T06:07:36Z</time></trkpt><trkpt lat="32.75081396" lon="35.05959125"><ele>176.17269714228962</ele><time>2012-04-26T06:07:39Z</time></trkpt><trkpt lat="32.75073115" lon="35.0596743"><ele>177.29381479916898</ele><time>2012-04-26T06:07:42Z</time></trkpt><trkpt lat="32.75068185" lon="35.0597179"><ele>178.1599661638175</ele><time>2012-04-26T06:07:45Z</time></trkpt><trkpt lat="32.75062555" lon="35.05975065"><ele>179.74986751303572</ele><time>2012-04-26T06:07:48Z</time></trkpt><trkpt lat="32.75058485" lon="35.05979789"><ele>180.0533021899502</ele><time>2012-04-26T06:07:51Z</time></trkpt><trkpt lat="32.75058578" lon="35.05987427"><ele>177.276753826211</ele><time>2012-04-26T06:07:54Z</time></trkpt><trkpt lat="32.75058454" lon="35.05996892"><ele>173.95272279365338</ele><time>2012-04-26T06:07:57Z</time></trkpt><trkpt lat="32.75055069" lon="35.06007759"><ele>171.70820037189358</ele><time>2012-04-26T06:08:00Z</time></trkpt><trkpt lat="32.7505001" lon="35.06018293"><ele>170.38163794026136</ele><time>2012-04-26T06:08:03Z</time></trkpt><trkpt lat="32.75044883" lon="35.06029607"><ele>168.7920545394056</ele><time>2012-04-26T06:08:06Z</time></trkpt><trkpt lat="32.75039849" lon="35.06039907"><ele>167.7217770869535</ele><time>2012-04-26T06:08:09Z</time></trkpt><trkpt lat="32.75034192" lon="35.06052098"><ele>165.9913621332485</ele><time>2012-04-26T06:08:12Z</time></trkpt><trkpt lat="32.750294" lon="35.06063071"><ele>163.9920938542915</ele><time>2012-04-26T06:08:15Z</time></trkpt><trkpt lat="32.75024119" lon="35.06076466"><ele>161.03354817210672</ele><time>2012-04-26T06:08:18Z</time></trkpt><trkpt lat="32.75018644" lon="35.06089787"><ele>158.0077439107689</ele><time>2012-04-26T06:08:21Z</time></trkpt><trkpt lat="32.75017343" lon="35.06096517"><ele>155.6358678350653</ele><time>2012-04-26T06:08:24Z</time></trkpt><trkpt lat="32.75010468" lon="35.06110769"><ele>152.59172304289524</ele><time>2012-04-26T06:08:27Z</time></trkpt><trkpt lat="32.75004162" lon="35.06115482"><ele>153.51383595954474</ele><time>2012-04-26T06:08:30Z</time></trkpt><trkpt lat="32.74996292" lon="35.06119097"><ele>155.6447991849553</ele><time>2012-04-26T06:08:33Z</time></trkpt><trkpt lat="32.74993127" lon="35.06119783"><ele>156.85483327366336</ele><time>2012-04-26T06:08:36Z</time></trkpt><trkpt lat="32.74990599" lon="35.06121554"><ele>157.21321001656793</ele><time>2012-04-26T06:08:39Z</time></trkpt><trkpt lat="32.74989416" lon="35.06124501"><ele>156.32744523757256</ele><time>2012-04-26T06:08:42Z</time></trkpt><trkpt lat="32.74988443" lon="35.06127732"><ele>154.97121766166117</ele><time>2012-04-26T06:08:46Z</time></trkpt><trkpt lat="32.74985598" lon="35.06130694"><ele>154.55100429526433</ele><time>2012-04-26T06:08:52Z</time></trkpt><trkpt lat="32.74982811" lon="35.06132846"><ele>154.5142300219757</ele><time>2012-04-26T06:08:58Z</time></trkpt><trkpt lat="32.74979756" lon="35.06133203"><ele>155.64602959816682</ele><time>2012-04-26T06:09:01Z</time></trkpt><trkpt lat="32.74974928" lon="35.06133937"><ele>157.30467265726244</ele><time>2012-04-26T06:09:04Z</time></trkpt><trkpt lat="32.74967284" lon="35.06134709"><ele>160.12615840994863</ele><time>2012-04-26T06:09:07Z</time></trkpt><trkpt lat="32.74961508" lon="35.06135823"><ele>161.84687594920072</ele><time>2012-04-26T06:09:10Z</time></trkpt><trkpt lat="32.74958527" lon="35.06137312"><ele>162.05373078121596</ele><time>2012-04-26T06:09:13Z</time></trkpt><trkpt lat="32.74955691" lon="35.06139865"><ele>160.4567692402756</ele><time>2012-04-26T06:09:16Z</time></trkpt><trkpt lat="32.74952726" lon="35.06140289"><ele>160.33636431025835</ele><time>2012-04-26T06:09:30Z</time></trkpt><trkpt lat="32.7495047" lon="35.06142137"><ele>159.17995765209994</ele><time>2012-04-26T06:09:39Z</time></trkpt><trkpt lat="32.74946618" lon="35.06142807"><ele>158.97081737359701</ele><time>2012-04-26T06:09:45Z</time></trkpt><trkpt lat="32.7494204" lon="35.06144124"><ele>158.38454139260472</ele><time>2012-04-26T06:09:48Z</time></trkpt><trkpt lat="32.74936931" lon="35.06144596"><ele>158.4312275022665</ele><time>2012-04-26T06:09:51Z</time></trkpt><trkpt lat="32.7492577" lon="35.0614198"><ele>160.90948137777076</ele><time>2012-04-26T06:09:54Z</time></trkpt><trkpt lat="32.74916064" lon="35.06141868"><ele>161.6149258313423</ele><time>2012-04-26T06:09:57Z</time></trkpt><trkpt lat="32.74907898" lon="35.06142909"><ele>161.52711514865652</ele><time>2012-04-26T06:10:00Z</time></trkpt><trkpt lat="32.74899197" lon="35.06143337"><ele>161.87120144640792</ele><time>2012-04-26T06:10:03Z</time></trkpt><trkpt lat="32.748918" lon="35.06144053"><ele>161.9818706997222</ele><time>2012-04-26T06:10:06Z</time></trkpt><trkpt lat="32.74883673" lon="35.06142844"><ele>163.20548904150877</ele><time>2012-04-26T06:10:09Z</time></trkpt><trkpt lat="32.74879405" lon="35.06141457"><ele>164.22500492701388</ele><time>2012-04-26T06:10:12Z</time></trkpt><trkpt lat="32.74876997" lon="35.06143591"><ele>163.26823099523318</ele><time>2012-04-26T06:10:49Z</time></trkpt><trkpt lat="32.7487342" lon="35.06143212"><ele>164.03203379708114</ele><time>2012-04-26T06:10:53Z</time></trkpt><trkpt lat="32.74870969" lon="35.06141598"><ele>165.49822095028438</ele><time>2012-04-26T06:10:56Z</time></trkpt><trkpt lat="32.74868459" lon="35.06139504"><ele>167.17146414516665</ele><time>2012-04-26T06:11:00Z</time></trkpt><trkpt lat="32.74865433" lon="35.06138015"><ele>168.63387310403246</ele><time>2012-04-26T06:11:03Z</time></trkpt><trkpt lat="32.74861562" lon="35.06136029"><ele>170.47484281667235</ele><time>2012-04-26T06:11:07Z</time></trkpt><trkpt lat="32.74858279" lon="35.06134721"><ele>171.8129699974121</ele><time>2012-04-26T06:11:10Z</time></trkpt><trkpt lat="32.74854916" lon="35.06134305"><ele>172.7556233636654</ele><time>2012-04-26T06:11:14Z</time></trkpt><trkpt lat="32.74852171" lon="35.06132325"><ele>174.17232102087084</ele><time>2012-04-26T06:11:19Z</time></trkpt><trkpt lat="32.74849762" lon="35.06130845"><ele>175.2703011933183</ele><time>2012-04-26T06:11:25Z</time></trkpt><trkpt lat="32.74846238" lon="35.06131953"><ele>175.59732221641912</ele><time>2012-04-26T06:11:50Z</time></trkpt><trkpt lat="32.74842893" lon="35.06132347"><ele>176.1770942491114</ele><time>2012-04-26T06:11:53Z</time></trkpt><trkpt lat="32.74838657" lon="35.06131697"><ele>177.3127689167864</ele><time>2012-04-26T06:11:56Z</time></trkpt><trkpt lat="32.74833743" lon="35.06131409"><ele>178.45187320843158</ele><time>2012-04-26T06:11:59Z</time></trkpt><trkpt lat="32.7482569" lon="35.06128984"><ele>180.8101692406276</ele><time>2012-04-26T06:12:02Z</time></trkpt><trkpt lat="32.7482226" lon="35.06129849"><ele>181.28002674955331</ele><time>2012-04-26T06:12:07Z</time></trkpt><trkpt lat="32.74818707" lon="35.0613114"><ele>181.70652065987235</ele><time>2012-04-26T06:12:10Z</time></trkpt><trkpt lat="32.74814856" lon="35.06134297"><ele>181.84682818992692</ele><time>2012-04-26T06:12:13Z</time></trkpt><trkpt lat="32.74815377" lon="35.06138911"><ele>180.73431838614007</ele><time>2012-04-26T06:12:20Z</time></trkpt><trkpt lat="32.74818199" lon="35.06143492"><ele>178.97614302265217</ele><time>2012-04-26T06:12:23Z</time></trkpt><trkpt lat="32.74821217" lon="35.06153054"><ele>175.80957054016713</ele><time>2012-04-26T06:12:26Z</time></trkpt><trkpt lat="32.74822414" lon="35.06168281"><ele>171.6033963155593</ele><time>2012-04-26T06:12:29Z</time></trkpt><trkpt lat="32.74824115" lon="35.06182535"><ele>167.226689112842</ele><time>2012-04-26T06:12:32Z</time></trkpt><trkpt lat="32.74827475" lon="35.06195422"><ele>162.08464797072293</ele><time>2012-04-26T06:12:35Z</time></trkpt><trkpt lat="32.74827834" lon="35.06200545"><ele>160.46696356745719</ele><time>2012-04-26T06:12:38Z</time></trkpt><trkpt lat="32.74826093" lon="35.06203155"><ele>160.73980598696036</ele><time>2012-04-26T06:12:53Z</time></trkpt><trkpt lat="32.74825688" lon="35.0620641"><ele>160.10162919540295</ele><time>2012-04-26T06:13:00Z</time></trkpt><trkpt lat="32.74827623" lon="35.06211091"><ele>157.98693361377155</ele><time>2012-04-26T06:13:03Z</time></trkpt><trkpt lat="32.7483092" lon="35.06216872"><ele>155.10409856886574</ele><time>2012-04-26T06:13:06Z</time></trkpt><trkpt lat="32.74835645" lon="35.06225438"><ele>150.96744720436934</ele><time>2012-04-26T06:13:09Z</time></trkpt><trkpt lat="32.74841441" lon="35.06241428"><ele>145.12718462151403</ele><time>2012-04-26T06:13:12Z</time></trkpt><trkpt lat="32.74842721" lon="35.06255716"><ele>142.23191610261932</ele><time>2012-04-26T06:13:15Z</time></trkpt><trkpt lat="32.74843427" lon="35.06266808"><ele>140.161720904162</ele><time>2012-04-26T06:13:18Z</time></trkpt><trkpt lat="32.74843755" lon="35.06278776"><ele>138.18080287379652</ele><time>2012-04-26T06:13:21Z</time></trkpt><trkpt lat="32.74841781" lon="35.0629045"><ele>137.5207678740276</ele><time>2012-04-26T06:13:24Z</time></trkpt><trkpt lat="32.74836224" lon="35.06303319"><ele>137.4057416574268</ele><time>2012-04-26T06:13:27Z</time></trkpt><trkpt lat="32.74830899" lon="35.06313734"><ele>137.39420685814548</ele><time>2012-04-26T06:13:30Z</time></trkpt><trkpt lat="32.74826256" lon="35.06323084"><ele>137.10021543183825</ele><time>2012-04-26T06:13:33Z</time></trkpt><trkpt lat="32.74821801" lon="35.06332304"><ele>136.5578378958483</ele><time>2012-04-26T06:13:36Z</time></trkpt><trkpt lat="32.74815764" lon="35.06340988"><ele>136.6809250515168</ele><time>2012-04-26T06:13:39Z</time></trkpt><trkpt lat="32.74808764" lon="35.06350567"><ele>136.67836900791065</ele><time>2012-04-26T06:13:42Z</time></trkpt><trkpt lat="32.74804436" lon="35.06357394"><ele>136.22322190110285</ele><time>2012-04-26T06:13:45Z</time></trkpt><trkpt lat="32.7480161" lon="35.0636331"><ele>135.360988645224</ele><time>2012-04-26T06:13:48Z</time></trkpt><trkpt lat="32.74797766" lon="35.063701"><ele>134.4993809652332</ele><time>2012-04-26T06:13:51Z</time></trkpt><trkpt lat="32.74792173" lon="35.06377875"><ele>133.74989697478782</ele><time>2012-04-26T06:13:54Z</time></trkpt><trkpt lat="32.74786319" lon="35.06385009"><ele>133.204323434144</ele><time>2012-04-26T06:13:57Z</time></trkpt><trkpt lat="32.74781628" lon="35.0639143"><ele>132.43241854072247</ele><time>2012-04-26T06:14:00Z</time></trkpt><trkpt lat="32.74775322" lon="35.06398996"><ele>131.70188197093464</ele><time>2012-04-26T06:14:03Z</time></trkpt><trkpt lat="32.74767457" lon="35.06407025"><ele>131.19953360828654</ele><time>2012-04-26T06:14:06Z</time></trkpt><trkpt lat="32.74762106" lon="35.06414992"><ele>129.75766090989617</ele><time>2012-04-26T06:14:09Z</time></trkpt><trkpt lat="32.74757473" lon="35.06419494"><ele>129.41560821745762</ele><time>2012-04-26T06:14:12Z</time></trkpt><trkpt lat="32.7475875" lon="35.06422493"><ele>127.7766694386169</ele><time>2012-04-26T06:14:17Z</time></trkpt><trkpt lat="32.74755984" lon="35.06425444"><ele>127.43521114293607</ele><time>2012-04-26T06:14:24Z</time></trkpt><trkpt lat="32.74749734" lon="35.06431739"><ele>126.75118535322248</ele><time>2012-04-26T06:14:27Z</time></trkpt><trkpt lat="32.74743109" lon="35.06438186"><ele>126.02373423430262</ele><time>2012-04-26T06:14:30Z</time></trkpt><trkpt lat="32.74736206" lon="35.06445545"><ele>124.88145941368684</ele><time>2012-04-26T06:14:33Z</time></trkpt><trkpt lat="32.74731128" lon="35.06449768"><ele>124.49232700468443</ele><time>2012-04-26T06:14:36Z</time></trkpt><trkpt lat="32.74725943" lon="35.06454676"><ele>123.7771701057197</ele><time>2012-04-26T06:14:39Z</time></trkpt><trkpt lat="32.74720873" lon="35.06460345"><ele>122.89453698010904</ele><time>2012-04-26T06:14:42Z</time></trkpt><trkpt lat="32.74716698" lon="35.06464312"><ele>122.76866675016707</ele><time>2012-04-26T06:14:45Z</time></trkpt><trkpt lat="32.7471102" lon="35.06470741"><ele>122.2479965549603</ele><time>2012-04-26T06:14:48Z</time></trkpt><trkpt lat="32.74703384" lon="35.06479064"><ele>121.73880702440991</ele><time>2012-04-26T06:14:51Z</time></trkpt><trkpt lat="32.74698076" lon="35.06486366"><ele>120.86926908772666</ele><time>2012-04-26T06:14:54Z</time></trkpt><trkpt lat="32.7469656" lon="35.06490893"><ele>119.79274585969777</ele><time>2012-04-26T06:14:57Z</time></trkpt><trkpt lat="32.74691851" lon="35.06496055"><ele>119.3834837021459</ele><time>2012-04-26T06:15:00Z</time></trkpt><trkpt lat="32.74685672" lon="35.06502487"><ele>118.90004605082854</ele><time>2012-04-26T06:15:03Z</time></trkpt><trkpt lat="32.74680782" lon="35.06507919"><ele>118.34990533524824</ele><time>2012-04-26T06:15:06Z</time></trkpt><trkpt lat="32.74674727" lon="35.06515373"><ele>117.34812753850291</ele><time>2012-04-26T06:15:09Z</time></trkpt><trkpt lat="32.74668722" lon="35.06523043"><ele>116.17816794251878</ele><time>2012-04-26T06:15:12Z</time></trkpt><trkpt lat="32.74663806" lon="35.06530861"><ele>114.60330745720937</ele><time>2012-04-26T06:15:15Z</time></trkpt><trkpt lat="32.7465973" lon="35.06537082"><ele>113.34275718989326</ele><time>2012-04-26T06:15:18Z</time></trkpt><trkpt lat="32.74656322" lon="35.06540255"><ele>113.00353718174057</ele><time>2012-04-26T06:15:21Z</time></trkpt><trkpt lat="32.74652132" lon="35.06545781"><ele>112.13920126563572</ele><time>2012-04-26T06:15:24Z</time></trkpt><trkpt lat="32.7464734" lon="35.06553879"><ele>110.6423174110496</ele><time>2012-04-26T06:15:27Z</time></trkpt><trkpt lat="32.74642983" lon="35.06561308"><ele>109.26942574491655</ele><time>2012-04-26T06:15:30Z</time></trkpt><trkpt lat="32.74638853" lon="35.06568145"><ele>108.04348017224629</ele><time>2012-04-26T06:15:33Z</time></trkpt><trkpt lat="32.74633576" lon="35.06574769"><ele>107.17572447078281</ele><time>2012-04-26T06:15:36Z</time></trkpt><trkpt lat="32.74632005" lon="35.06577872"><ele>106.55175095502186</ele><time>2012-04-26T06:15:43Z</time></trkpt><trkpt lat="32.74629489" lon="35.06581286"><ele>106.06036542775573</ele><time>2012-04-26T06:15:59Z</time></trkpt><trkpt lat="32.74626074" lon="35.06585625"><ele>105.492941578788</ele><time>2012-04-26T06:16:02Z</time></trkpt><trkpt lat="32.74621939" lon="35.06590631"><ele>105.0515734721463</ele><time>2012-04-26T06:16:05Z</time></trkpt><trkpt lat="32.74616592" lon="35.06594278"><ele>105.49213638390376</ele><time>2012-04-26T06:16:08Z</time></trkpt><trkpt lat="32.74611922" lon="35.06595164"><ele>106.62319544900222</ele><time>2012-04-26T06:16:11Z</time></trkpt><trkpt lat="32.7460916" lon="35.06596042"><ele>107.18429180023057</ele><time>2012-04-26T06:16:14Z</time></trkpt><trkpt lat="32.74606084" lon="35.06597797"><ele>107.57206419625396</ele><time>2012-04-26T06:16:17Z</time></trkpt><trkpt lat="32.74599715" lon="35.06596168"><ele>110.00901567227844</ele><time>2012-04-26T06:16:20Z</time></trkpt><trkpt lat="32.74595496" lon="35.06597018"><ele>111.03104573058862</ele><time>2012-04-26T06:16:23Z</time></trkpt><trkpt lat="32.74596363" lon="35.06600697"><ele>109.65146519096096</ele><time>2012-04-26T06:16:27Z</time></trkpt><trkpt lat="32.74596404" lon="35.06609006"><ele>107.11785761352382</ele><time>2012-04-26T06:16:30Z</time></trkpt><trkpt lat="32.74595927" lon="35.06618026"><ele>104.53324432517898</ele><time>2012-04-26T06:16:33Z</time></trkpt><trkpt lat="32.74594654" lon="35.0662571"><ele>102.62762399874303</ele><time>2012-04-26T06:16:36Z</time></trkpt><trkpt lat="32.7459207" lon="35.06632887"><ele>101.39786399877433</ele><time>2012-04-26T06:16:39Z</time></trkpt><trkpt lat="32.74588342" lon="35.06642052"><ele>99.9662159987538</ele><time>2012-04-26T06:16:42Z</time></trkpt><trkpt lat="32.74584566" lon="35.06653533"><ele>97.88311199870267</ele><time>2012-04-26T06:16:45Z</time></trkpt><trkpt lat="32.7458041" lon="35.06663909"><ele>96.24136799864183</ele><time>2012-04-26T06:16:48Z</time></trkpt><trkpt lat="32.74575696" lon="35.06672718"><ele>95.23171199867181</ele><time>2012-04-26T06:16:51Z</time></trkpt><trkpt lat="32.74569923" lon="35.06682206"><ele>94.36961999876084</ele><time>2012-04-26T06:16:54Z</time></trkpt><trkpt lat="32.74564058" lon="35.0668916"><ele>94.2671279987987</ele><time>2012-04-26T06:16:57Z</time></trkpt><trkpt lat="32.7455925" lon="35.06695217"><ele>94.08050399870524</ele><time>2012-04-26T06:17:00Z</time></trkpt><trkpt lat="32.7455423" lon="35.06701866"><ele>93.792071998783</ele><time>2012-04-26T06:17:03Z</time></trkpt><trkpt lat="32.74549621" lon="35.06708558"><ele>93.35077601459227</ele><time>2012-04-26T06:17:06Z</time></trkpt><trkpt lat="32.74543301" lon="35.06717427"><ele>92.5305484182941</ele><time>2012-04-26T06:17:09Z</time></trkpt><trkpt lat="32.74538438" lon="35.06724484"><ele>91.89826889585642</ele><time>2012-04-26T06:17:12Z</time></trkpt><trkpt lat="32.74533668" lon="35.06730772"><ele>91.53925303429392</ele><time>2012-04-26T06:17:15Z</time></trkpt><trkpt lat="32.74528641" lon="35.06736091"><ele>91.59151294309035</ele><time>2012-04-26T06:17:18Z</time></trkpt><trkpt lat="32.74522724" lon="35.06741984"><ele>91.78102240280374</ele><time>2012-04-26T06:17:21Z</time></trkpt><trkpt lat="32.74520528" lon="35.06744811"><ele>91.64852884864032</ele><time>2012-04-26T06:17:24Z</time></trkpt><trkpt lat="32.74517322" lon="35.06748855"><ele>91.48497805005525</ele><time>2012-04-26T06:17:27Z</time></trkpt><trkpt lat="32.74512834" lon="35.06755598"><ele>90.91625435714445</ele><time>2012-04-26T06:17:30Z</time></trkpt><trkpt lat="32.74512495" lon="35.06762238"><ele>88.913066409986</ele><time>2012-04-26T06:17:33Z</time></trkpt><trkpt lat="32.74511588" lon="35.06767475"><ele>87.56163795536773</ele><time>2012-04-26T06:17:36Z</time></trkpt><trkpt lat="32.7450667" lon="35.06774471"><ele>87.08353809248466</ele><time>2012-04-26T06:17:39Z</time></trkpt><trkpt lat="32.74499256" lon="35.06785256"><ele>86.30574518549368</ele><time>2012-04-26T06:17:42Z</time></trkpt><trkpt lat="32.74494065" lon="35.0679474"><ele>85.30942659241168</ele><time>2012-04-26T06:17:45Z</time></trkpt><trkpt lat="32.74487493" lon="35.06806303"><ele>84.5770701521532</ele><time>2012-04-26T06:17:48Z</time></trkpt><trkpt lat="32.74482067" lon="35.06817891"><ele>83.44303045824601</ele><time>2012-04-26T06:17:51Z</time></trkpt><trkpt lat="32.74476741" lon="35.06827985"><ele>82.68893084714578</ele><time>2012-04-26T06:17:54Z</time></trkpt><trkpt lat="32.74471509" lon="35.06839472"><ele>81.54545113100966</ele><time>2012-04-26T06:17:57Z</time></trkpt><trkpt lat="32.74466595" lon="35.0685303"><ele>79.75287726841958</ele><time>2012-04-26T06:18:00Z</time></trkpt><trkpt lat="32.74462664" lon="35.06864968"><ele>78.04369611443991</ele><time>2012-04-26T06:18:03Z</time></trkpt><trkpt lat="32.74459803" lon="35.06874878"><ele>76.48551781787498</ele><time>2012-04-26T06:18:06Z</time></trkpt><trkpt lat="32.74455546" lon="35.06884784"><ele>75.97337599874184</ele><time>2012-04-26T06:18:09Z</time></trkpt><trkpt lat="32.74450681" lon="35.06894792"><ele>75.79323199883494</ele><time>2012-04-26T06:18:12Z</time></trkpt><trkpt lat="32.7444639" lon="35.06903819"><ele>75.58878799870807</ele><time>2012-04-26T06:18:15Z</time></trkpt><trkpt lat="32.74443037" lon="35.06911391"><ele>75.31086799858123</ele><time>2012-04-26T06:18:18Z</time></trkpt><trkpt lat="32.74440538" lon="35.06918374"><ele>74.79831199871991</ele><time>2012-04-26T06:18:21Z</time></trkpt><trkpt lat="32.74438715" lon="35.06927477"><ele>73.51036399880542</ele><time>2012-04-26T06:18:24Z</time></trkpt><trkpt lat="32.74435741" lon="35.06938116"><ele>72.36943999892237</ele><time>2012-04-26T06:18:27Z</time></trkpt><trkpt lat="32.74430585" lon="35.0694936"><ele>72.03319999868532</ele><time>2012-04-26T06:18:30Z</time></trkpt><trkpt lat="32.74425755" lon="35.06957456"><ele>72.27387199885952</ele><time>2012-04-26T06:18:33Z</time></trkpt><trkpt lat="32.74421384" lon="35.06968764"><ele>71.29225652929996</ele><time>2012-04-26T06:18:36Z</time></trkpt><trkpt lat="32.74416692" lon="35.06982226"><ele>69.82500948021973</ele><time>2012-04-26T06:18:39Z</time></trkpt><trkpt lat="32.74412511" lon="35.06995301"><ele>68.19122386927862</ele><time>2012-04-26T06:18:42Z</time></trkpt><trkpt lat="32.7440765" lon="35.07008582"><ele>66.73531539244912</ele><time>2012-04-26T06:18:45Z</time></trkpt><trkpt lat="32.74402933" lon="35.07022587"><ele>64.97428459283888</ele><time>2012-04-26T06:18:48Z</time></trkpt><trkpt lat="32.74399775" lon="35.07034601"><ele>63.06360158170052</ele><time>2012-04-26T06:18:51Z</time></trkpt><trkpt lat="32.74397098" lon="35.07046878"><ele>61.206459230673715</ele><time>2012-04-26T06:18:54Z</time></trkpt><trkpt lat="32.74393119" lon="35.07060374"><ele>60.02814188333799</ele><time>2012-04-26T06:18:57Z</time></trkpt><trkpt lat="32.74389613" lon="35.0707226"><ele>58.92697547241772</ele><time>2012-04-26T06:19:00Z</time></trkpt><trkpt lat="32.74386351" lon="35.07082847"><ele>57.946607332916166</ele><time>2012-04-26T06:19:03Z</time></trkpt><trkpt lat="32.74383112" lon="35.07094451"><ele>56.69452628762549</ele><time>2012-04-26T06:19:06Z</time></trkpt><trkpt lat="32.74380107" lon="35.07106493"><ele>55.213509019663285</ele><time>2012-04-26T06:19:09Z</time></trkpt><trkpt lat="32.74376375" lon="35.07116607"><ele>54.34257892913457</ele><time>2012-04-26T06:19:12Z</time></trkpt><trkpt lat="32.74371813" lon="35.07123258"><ele>54.336369262045636</ele><time>2012-04-26T06:19:15Z</time></trkpt><trkpt lat="32.74367529" lon="35.07129858"><ele>54.02753670515125</ele><time>2012-04-26T06:19:18Z</time></trkpt><trkpt lat="32.74365094" lon="35.07131893"><ele>54.254429231779476</ele><time>2012-04-26T06:19:32Z</time></trkpt><trkpt lat="32.74364304" lon="35.07135344"><ele>53.63397615303337</ele><time>2012-04-26T06:19:49Z</time></trkpt><trkpt lat="32.74362247" lon="35.07138743"><ele>53.41314016902245</ele><time>2012-04-26T06:19:55Z</time></trkpt><trkpt lat="32.7436044" lon="35.07141541"><ele>53.269029043456634</ele><time>2012-04-26T06:19:58Z</time></trkpt><trkpt lat="32.74358449" lon="35.07143881"><ele>53.297287835161136</ele><time>2012-04-26T06:20:11Z</time></trkpt><trkpt lat="32.74356997" lon="35.07149904"><ele>52.254215852042</ele><time>2012-04-26T06:20:14Z</time></trkpt><trkpt lat="32.74352538" lon="35.07157916"><ele>51.656703446337076</ele><time>2012-04-26T06:20:17Z</time></trkpt><trkpt lat="32.74347672" lon="35.07164519"><ele>51.55064486601308</ele><time>2012-04-26T06:20:20Z</time></trkpt><trkpt lat="32.74343361" lon="35.07171269"><ele>51.253516607802446</ele><time>2012-04-26T06:20:23Z</time></trkpt><trkpt lat="32.74339047" lon="35.07177939"><ele>50.99342696862461</ele><time>2012-04-26T06:20:26Z</time></trkpt><trkpt lat="32.74337201" lon="35.07185283"><ele>49.80463148875396</ele><time>2012-04-26T06:20:29Z</time></trkpt><trkpt lat="32.74338165" lon="35.07191028"><ele>48.11190071644096</ele><time>2012-04-26T06:20:32Z</time></trkpt><trkpt lat="32.74342082" lon="35.07194199"><ele>46.093285091571715</ele><time>2012-04-26T06:20:35Z</time></trkpt><trkpt lat="32.74344599" lon="35.07192898"><ele>45.60448412327077</ele><time>2012-04-26T06:20:49Z</time></trkpt><trkpt lat="32.74345848" lon="35.07196039"><ele>44.44019953025102</ele><time>2012-04-26T06:21:05Z</time></trkpt><trkpt lat="32.74346993" lon="35.07199094"><ele>43.328055388458594</ele><time>2012-04-26T06:21:09Z</time></trkpt><trkpt lat="32.74348015" lon="35.07205784"><ele>41.3657593960654</ele><time>2012-04-26T06:22:11Z</time></trkpt><trkpt lat="32.74350612" lon="35.07211896"><ele>39.555541188966174</ele><time>2012-04-26T06:22:14Z</time></trkpt><trkpt lat="32.74357861" lon="35.07217478"><ele>36.79812342827377</ele><time>2012-04-26T06:22:17Z</time></trkpt><trkpt lat="32.74367913" lon="35.07226546"><ele>33.16176849147302</ele><time>2012-04-26T06:22:20Z</time></trkpt><trkpt lat="32.74372193" lon="35.07237563"><ele>31.341035887981434</ele><time>2012-04-26T06:22:23Z</time></trkpt><trkpt lat="32.74373802" lon="35.07243703"><ele>30.60498431229464</ele><time>2012-04-26T06:22:26Z</time></trkpt><trkpt lat="32.7437307" lon="35.07247989"><ele>30.5675525591661</ele><time>2012-04-26T06:22:36Z</time></trkpt><trkpt lat="32.7437586" lon="35.0725734"><ele>29.49833391319005</ele><time>2012-04-26T06:22:39Z</time></trkpt><trkpt lat="32.74381906" lon="35.0726617"><ele>28.077242896911947</ele><time>2012-04-26T06:22:42Z</time></trkpt><trkpt lat="32.74390499" lon="35.07274933"><ele>26.347277193575366</ele><time>2012-04-26T06:22:45Z</time></trkpt><trkpt lat="32.74398646" lon="35.07287338"><ele>24.71431671632363</ele><time>2012-04-26T06:22:48Z</time></trkpt><trkpt lat="32.74409155" lon="35.07306384"><ele>23.122225664380323</ele><time>2012-04-26T06:22:51Z</time></trkpt><trkpt lat="32.74420232" lon="35.07314847"><ele>21.661376905493803</ele><time>2012-04-26T06:22:54Z</time></trkpt><trkpt lat="32.74432252" lon="35.0732469"><ele>20.17619361197256</ele><time>2012-04-26T06:22:57Z</time></trkpt><trkpt lat="32.74446915" lon="35.07330143"><ele>18.37787902082694</ele><time>2012-04-26T06:23:00Z</time></trkpt><trkpt lat="32.74455413" lon="35.07338182"><ele>17.478212999552326</ele><time>2012-04-26T06:23:03Z</time></trkpt><trkpt lat="32.74457545" lon="35.07341899"><ele>17.30198887637862</ele><time>2012-04-26T06:23:06Z</time></trkpt><trkpt lat="32.74460043" lon="35.07340587"><ele>17.018432205175177</ele><time>2012-04-26T06:23:48Z</time></trkpt><trkpt lat="32.74457731" lon="35.07342985"><ele>17.305022558959912</ele><time>2012-04-26T06:23:54Z</time></trkpt><trkpt lat="32.74457439" lon="35.07347455"><ele>17.44615006569104</ele><time>2012-04-26T06:25:21Z</time></trkpt></trkseg></trk></gpx>